[[{"header":{"parameterUnit":"m.s-1","parameterCategory":1,"la1":30.6,"la2":29.2853,"lo1":-89.7004,"lo2":-87.6739,"dy":0.0162,"dx":0.0183,"nx":112,"ny":82,"refTime":"2024-05-01T12:00:00:Z","depth":0,"parameterNumber":2,"parameterNumberName":"U-component_of_WINDS"},"data":[0.0,0.0,0.0,0.0,0.0,0.0,0.0,0.0,0.0,0.0,0.0,0.0,0.0,0.0,0.0,0.0,0.0,0.0,0.0,0.0,0.0,0.0,0.0,0.0,0.0,0.0,0.0,0.0,0.0,0.0,0.0,0.0,0.0,0.0,0.0,0.0,0.0,0.0,0.0,0.0,0.0,0.0,0.0,0.0,0.0,0.0,0.0,0.0,0.0,0.0,0.0,0.0,0.0,0.0,0.0,0.0,0.0,0.0,0.0,0.0,0.0,0.0,0.0,0.0,0.0,0.0,0.0,0.0,0.0,0.0,0.0,0.0,0.0,0.0,0.0,0.0,0.0,0.0,0.0,0.0,0.0,0.0,0.0,0.0,0.0,0.0,0.0,0.0,0.0,0.0,-0.7273,-0.7835,-0.7962,-0.7669,-0.6815,-0.6728,-0.6,-0.432,0.0,0.0,0.0,0.0,0.0,0.0,0.0,0.0,0.0,0.0,0.0,0.0,0.0,0.0,0.0,0.0,0.0,0.0,0.0,0.0,0.0,0.0,0.0,0.0,0.0,0.0,0.0,0.0,0.0,0.0,0.0,0.0,0.0,0.0,0.0,0.0,0.0,0.0,0.0,0.0,0.0,0.0,0.0,0.0,0.0,0.0,0.0,0.0,0.0,0.0,0.0,0.0,0.0,0.0,0.0,0.0,0.0,0.0,0.0,0.0,0.0,0.0,0.0,0.0,0.0,0.0,0.0,0.0,0.0,0.0,0.0,0.0,0.0,0.0,0.0,0.0,0.0,0.0,0.0,0.0,0.0,0.0,0.0,0.0,0.0,0.0,0.0,0.0,0.0,0.0,0.0,0.0,0.0,0.0,0.0,0.0,0.0,0.0,0.0,0.0,0.0,0.0,0.0,0.0,-0.6925,-0.8178,-0.8166,-0.8033,-0.7872,-0.7196,-0.645,-0.5639,0.0,0.0,0.0,0.0,0.0,0.0,0.0,0.0,0.0,0.0,0.0,0.0,0.0,0.0,0.0,0.0,0.0,0.0,0.0,0.0,0.0,0.0,0.0,0.0,0.0,0.0,0.0,0.0,0.0,0.0,0.0,0.0,0.0,0.0,0.0,0.0,0.0,0.0,0.0,0.0,0.0,0.0,0.0,0.0,0.0,0.0,0.0,0.0,0.0,0.0,0.0,0.0,0.0,0.0,0.0,0.0,0.0,0.0,0.0,0.0,0.0,0.0,0.0,0.0,0.0,0.0,0.0,0.0,0.0,0.0,0.0,0.0,0.0,0.0,0.0,0.0,0.0,0.0,0.0,0.0,0.0,0.0,0.0,0.0,0.0,0.0,0.0,0.0,0.0,0.0,0.0,0.0,0.0,0.0,0.0,0.0,0.0,0.0,0.0,0.0,0.0,0.0,0.0,-0.6829,-0.7602,-0.872,-0.8789,-0.8507,-0.7931,-0.7441,-0.6789,-0.5904,-0.4804,0.0,0.0,0.0,0.0,0.0,0.0,0.0,0.0,0.0,0.0,0.0,0.0,0.0,0.0,0.0,0.0,0.0,0.0,0.0,0.0,0.0,0.0,0.0,0.0,0.0,0.0,0.0,0.0,0.0,0.0,0.0,0.0,0.0,0.0,0.0,0.0,0.0,0.0,0.0,0.0,0.0,0.0,0.0,0.0,0.0,0.0,0.0,0.0,0.0,0.0,0.0,0.0,0.0,0.0,0.0,0.0,0.0,0.0,0.0,0.0,0.0,0.0,0.0,0.0,0.0,0.0,0.0,0.0,0.0,0.0,0.0,0.0,0.0,0.0,0.0,0.0,0.0,0.0,0.0,0.0,0.0,0.0,0.0,0.0,0.0,0.0,0.0,0.0,0.0,0.0,0.0,0.0,0.0,0.0,0.0,0.0,0.0,0.0,0.0,0.0,0.0,0.0,-0.8087,-0.8448,-0.9239,-0.9219,-0.8832,-0.8025,-0.7595,-0.6946,-0.599,-0.5169,0.0,0.0,0.0,0.0,0.0,0.0,0.0,0.0,0.0,0.0,0.0,0.0,0.0,0.0,0.0,0.0,0.0,0.0,0.0,0.0,0.0,0.0,0.0,0.0,0.0,0.0,0.0,0.0,0.0,0.0,0.0,0.0,0.0,0.0,0.0,0.0,0.0,0.0,0.0,0.0,0.0,0.0,0.0,0.0,0.0,0.0,0.0,0.0,0.0,0.0,0.0,0.0,0.0,0.0,0.0,0.0,0.0,0.0,0.0,0.0,0.0,0.0,0.0,0.0,0.0,0.0,0.0,0.0,0.0,0.0,0.0,0.0,0.0,0.0,0.0,0.0,0.0,0.0,0.0,0.0,0.0,0.0,0.0,0.0,0.0,0.0,0.0,0.0,0.0,0.0,0.0,0.0,0.0,0.0,0.0,0.0,0.0,0.0,0.0,0.0,0.0,0.0,-0.8413,-0.9038,-0.9608,-0.9122,-0.8745,-0.8718,-0.7637,-0.6746,-0.6284,-0.5514,0.0,0.0,0.0,0.0,0.0,0.0,0.0,0.0,0.0,0.0,0.0,0.0,0.0,0.0,0.0,0.0,0.0,0.0,0.0,0.0,0.0,0.0,0.0,0.0,0.0,0.0,0.0,0.0,0.0,0.0,0.0,0.0,0.0,0.0,0.0,0.0,0.0,0.0,0.0,0.0,0.0,0.0,0.0,0.0,0.0,0.0,0.0,0.0,0.0,0.0,0.0,0.0,0.0,0.0,0.0,0.0,0.0,0.0,0.0,0.0,0.0,0.0,0.0,0.0,0.0,0.0,0.0,0.0,0.0,0.0,0.0,0.0,0.0,0.0,0.0,0.0,0.0,0.0,0.0,0.0,0.0,0.0,0.0,0.0,0.0,0.0,0.0,0.0,0.0,0.0,0.0,0.0,0.0,0.0,0.0,0.0,0.0,0.0,0.0,0.0,0.0,0.0,-0.8556,-0.9132,0.0,-0.9428,-0.8977,-0.8749,-0.7839,-0.7027,-0.6453,0.0,0.0,0.0,0.0,0.0,0.0,0.0,0.0,0.0,0.0,0.0,0.0,0.0,0.0,0.0,0.0,0.0,0.0,0.0,0.0,0.0,0.0,0.0,0.0,0.0,0.0,0.0,0.0,0.0,0.0,0.0,0.0,0.0,0.0,0.0,0.0,0.0,0.0,0.0,0.0,0.0,0.0,0.0,0.0,0.0,0.0,0.0,0.0,0.0,0.0,0.0,0.0,0.0,0.0,0.0,0.0,0.0,0.0,0.0,0.0,0.0,0.0,0.0,0.0,0.0,0.0,0.0,0.0,0.0,0.0,0.0,0.0,0.0,0.0,0.0,0.0,0.0,0.0,0.0,0.0,0.0,0.0,0.0,0.0,0.0,0.0,0.0,0.0,0.0,0.0,0.0,0.0,0.0,0.0,0.0,0.0,0.0,0.0,0.0,0.0,0.0,0.0,-0.8123,-0.877,-0.9391,0.0,-0.9696,-0.926,-0.8911,-0.8053,-0.7218,-0.6507,0.0,0.0,0.0,0.0,0.0,0.0,0.0,0.0,0.0,0.0,0.0,0.0,0.0,0.0,0.0,0.0,0.0,0.0,0.0,0.0,0.0,0.0,0.0,0.0,0.0,0.0,0.0,0.0,0.0,0.0,0.0,0.0,0.0,0.0,0.0,0.0,0.0,0.0,0.0,0.0,0.0,0.0,0.0,0.0,0.0,0.0,0.0,0.0,0.0,0.0,0.0,0.0,0.0,0.0,0.0,0.0,0.0,0.0,0.0,0.0,0.0,0.0,0.0,0.0,0.0,0.0,0.0,0.0,0.0,0.0,0.0,0.0,0.0,0.0,0.0,0.0,0.0,0.0,0.0,0.0,0.0,0.0,0.0,0.0,0.0,0.0,0.0,0.0,0.0,0.0,0.0,0.0,0.0,0.0,0.0,0.0,0.0,0.0,0.0,0.0,0.0,0.0,-0.7894,-0.9058,-0.9932,-1.0264,-0.988,-0.9512,-0.9311,-0.8254,-0.7266,0.0,0.0,0.0,0.0,0.0,0.0,0.0,0.0,0.0,0.0,0.0,0.0,0.0,0.0,0.0,0.0,0.0,0.0,0.0,0.0,0.0,0.0,0.0,0.0,0.0,0.0,0.0,0.0,0.0,0.0,0.0,0.0,0.0,0.0,0.0,0.0,0.0,0.0,0.0,0.0,0.0,0.0,0.0,0.0,0.0,0.0,0.0,0.0,0.0,0.0,0.0,0.0,0.0,0.0,0.0,0.0,0.0,0.0,0.0,0.0,0.0,0.0,0.0,0.0,0.0,0.0,0.0,0.0,0.0,0.0,0.0,0.0,0.0,0.0,0.0,0.0,0.0,0.0,0.0,0.0,0.0,0.0,0.0,0.0,0.0,0.0,0.0,0.0,0.0,0.0,0.0,0.0,0.0,0.0,0.0,0.0,0.0,0.0,0.0,0.0,0.0,0.0,0.0,-0.8244,-0.9208,-0.9932,-1.0264,-0.9747,-0.9366,-0.9304,-0.8211,-0.7126,-0.6173,0.0,0.0,0.0,0.0,0.0,0.0,0.0,0.0,0.0,0.0,0.0,0.0,0.0,0.0,0.0,0.0,0.0,0.0,0.0,0.0,0.0,0.0,0.0,0.0,0.0,0.0,0.0,0.0,0.0,0.0,0.0,0.0,0.0,0.0,0.0,0.0,0.0,0.0,0.0,0.0,0.0,0.0,0.0,0.0,0.0,0.0,0.0,0.0,0.0,0.0,0.0,0.0,0.0,0.0,0.0,0.0,0.0,0.0,0.0,0.0,0.0,0.0,0.0,0.0,0.0,0.0,0.0,0.0,0.0,0.0,0.0,0.0,0.0,0.0,0.0,0.0,0.0,0.0,0.0,0.0,0.0,0.0,0.0,0.0,0.0,0.0,0.0,0.0,0.0,0.0,0.0,0.0,0.0,0.0,0.0,0.0,0.0,0.0,0.0,0.0,0.0,0.0,-0.8641,-0.962,-1.0384,-1.0842,-1.0449,-1.0055,-0.9861,-0.8848,-0.7794,-0.6775,0.0,0.0,0.0,0.0,0.0,0.0,0.0,0.0,0.0,0.0,0.0,0.0,0.0,0.0,0.0,0.0,0.0,0.0,0.0,0.0,0.0,0.0,0.0,0.0,0.0,0.0,0.0,0.0,0.0,0.0,0.0,0.0,0.0,0.0,0.0,0.0,0.0,0.0,0.0,0.0,0.0,0.0,0.0,0.0,0.0,0.0,0.0,0.0,0.0,0.0,0.0,0.0,0.0,0.0,0.0,0.0,0.0,0.0,0.0,0.0,0.0,0.0,0.0,0.0,0.0,0.0,0.0,0.0,0.0,0.0,0.0,0.0,0.0,0.0,0.0,0.0,0.0,0.0,0.0,0.0,0.0,0.0,0.0,0.0,0.0,0.0,0.0,0.0,0.0,0.0,0.0,0.0,0.0,0.0,0.0,0.0,0.0,0.0,0.0,0.0,0.0,0.0,-0.904,-1.0137,-1.1031,-1.1719,-1.151,-1.1163,-1.0772,-0.9831,-0.8859,-0.7879,0.0,0.0,0.0,0.0,0.0,0.0,0.0,0.0,0.0,0.0,0.0,0.0,0.0,0.0,0.0,0.0,0.0,0.0,0.0,0.0,0.0,0.0,0.0,0.0,0.0,0.0,0.0,0.0,0.0,0.0,0.0,0.0,0.0,0.0,0.0,0.0,0.0,0.0,0.0,0.0,0.0,0.0,0.0,0.0,0.0,0.0,0.0,0.0,0.0,0.0,0.0,0.0,0.0,0.0,0.0,0.0,0.0,0.0,0.0,0.0,-0.6514,0.0,0.0,0.0,0.0,0.0,0.0,0.0,0.0,0.0,0.0,0.0,0.0,0.0,0.0,0.0,0.0,0.0,0.0,0.0,0.0,0.0,0.0,0.0,0.0,0.0,0.0,0.0,0.0,0.0,0.0,0.0,0.0,0.0,0.0,0.0,0.0,0.0,0.0,0.0,0.0,0.0,-0.917,-1.0057,-1.0841,-1.1557,-1.1176,-1.0894,-1.0999,-0.9767,-0.8683,-0.7997,-0.639,0.0,0.0,0.0,0.0,0.0,0.0,0.0,0.0,0.0,0.0,0.0,0.0,0.0,0.0,0.0,0.0,0.0,0.0,0.0,0.0,0.0,0.0,0.0,0.0,0.0,0.0,0.0,0.0,0.0,0.0,0.0,0.0,0.0,0.0,0.0,0.0,0.0,0.0,0.0,0.0,0.0,0.0,0.0,0.0,0.0,0.0,0.0,0.0,0.0,0.0,0.0,0.0,0.0,0.0,0.0,0.0,0.0,0.0,0.0,0.0,-0.7579,0.0,0.0,0.0,0.0,0.0,0.0,0.0,0.0,0.0,0.0,0.0,0.0,0.0,0.0,0.0,0.0,0.0,0.0,0.0,0.0,0.0,0.0,0.0,0.0,0.0,0.0,0.0,0.0,0.0,0.0,0.0,0.0,0.0,0.0,0.0,0.0,0.0,0.0,0.0,0.0,-0.9868,-1.0652,-1.1366,-1.2259,-1.1993,-1.1733,-1.1677,-1.0501,-0.947,-0.8802,-0.7352,0.0,0.0,0.0,0.0,0.0,0.0,0.0,0.0,0.0,0.0,0.0,0.0,0.0,0.0,0.0,0.0,0.0,0.0,0.0,0.0,0.0,0.0,0.0,0.0,0.0,0.0,0.0,0.0,0.0,0.0,0.0,0.0,0.0,0.0,0.0,0.0,0.0,0.0,0.0,0.0,0.0,0.0,0.0,0.0,0.0,0.0,0.0,0.0,0.0,0.0,0.0,0.0,0.0,-1.1975,-1.208,-1.219,-1.203,-1.1903,-1.1733,-1.0625,-0.9777,-0.9142,-0.8575,0.0,0.0,0.0,0.0,0.0,0.0,0.0,0.0,0.0,0.0,0.0,0.0,0.0,0.0,0.0,0.0,0.0,0.0,0.0,0.0,0.0,0.0,-0.8411,-0.8708,-0.8813,-0.8539,-0.7392,0.0,0.0,0.0,0.0,0.0,0.0,0.0,0.0,0.0,0.0,0.0,-1.0616,-1.1293,-1.1984,-1.3056,-1.2841,-1.2517,-1.2323,-1.1195,-1.0256,-0.9666,-0.8407,-0.732,0.0,0.0,0.0,0.0,0.0,0.0,0.0,0.0,0.0,0.0,0.0,0.0,0.0,0.0,0.0,0.0,0.0,0.0,0.0,0.0,0.0,0.0,0.0,0.0,0.0,0.0,0.0,0.0,0.0,0.0,0.0,0.0,-0.6773,-0.6987,0.0,0.0,0.0,0.0,0.0,0.0,0.0,0.0,0.0,0.0,0.0,0.0,0.0,-1.2151,-1.2968,-1.3273,-1.3525,-1.3746,-1.3702,-1.3685,-1.3714,-1.3578,-1.3438,-1.3323,-1.3471,0.0,-1.0667,-1.0002,0.0,0.0,0.0,0.0,0.0,0.0,0.0,0.0,0.0,0.0,0.0,0.0,0.0,0.0,0.0,0.0,0.0,0.0,0.0,0.0,0.0,0.0,-0.9337,-0.9442,-0.9486,-0.9528,-0.9667,-0.851,-0.7432,-0.7497,-0.7181,-0.6902,0.0,0.0,0.0,0.0,0.0,0.0,-1.0735,-1.1184,-1.1801,-1.2976,-1.2154,-1.173,-1.227,-1.072,-0.9754,-0.9769,-0.8895,-0.8091,-0.7455,-0.6542,0.0,0.0,0.0,0.0,0.0,0.0,0.0,0.0,0.0,0.0,0.0,0.0,0.0,0.0,0.0,0.0,0.0,0.0,0.0,0.0,0.0,0.0,0.0,0.0,0.0,0.0,0.0,0.0,0.0,-0.6554,-0.7474,-0.7832,-0.7817,-0.7756,0.0,0.0,0.0,0.0,0.0,0.0,0.0,0.0,0.0,-1.3422,-1.3603,-1.4161,-1.5197,-1.5442,-1.5773,-1.6227,-1.627,-1.6335,-1.6403,-1.5967,-1.5733,-1.5704,-1.5879,-1.5256,-1.4021,-1.2196,-1.0953,-1.0139,0.0,0.0,0.0,0.0,-0.8423,-0.8154,-0.826,-0.8201,-0.8,-0.7596,0.0,0.0,0.0,0.0,0.0,0.0,0.0,-0.7404,-0.8014,-0.8926,-0.9702,-0.9896,-1.0083,-1.0253,-1.0346,-0.9842,-0.9162,-0.8488,-0.8421,-0.8203,-0.7385,-0.724,0.0,0.0,0.0,-0.9153,-1.0834,-1.1299,-1.1784,-1.2619,-1.2081,-1.1644,-1.167,-1.0533,-0.9767,-0.9644,-0.8995,-0.8395,-0.7903,-0.7085,-0.6401,0.0,0.0,0.0,0.0,0.0,0.0,0.0,0.0,0.0,0.0,0.0,0.0,0.0,0.0,0.0,0.0,0.0,0.0,0.0,0.0,0.0,0.0,0.0,0.0,0.0,0.0,0.0,0.0,-0.746,-0.8444,-0.8914,-0.9198,-0.933,0.0,0.0,0.0,0.0,0.0,0.0,-1.2773,-1.351,-1.4372,-1.5446,-1.5549,-1.603,-1.7026,-1.7462,-1.7864,-1.8222,-1.8275,-1.8321,-1.8321,-1.7736,-1.7431,-1.7421,-1.7441,-1.7308,-1.6838,-1.4365,-1.2865,-1.207,-1.1291,-1.0609,-1.0064,-1.0259,-1.0043,-0.9621,-0.9866,-0.9705,-0.9347,-0.9065,-0.8864,-0.8646,-0.8363,0.0,0.0,0.0,0.0,-0.8685,-0.9199,-0.9921,-1.0526,-1.0635,-1.096,-1.125,-1.1191,-1.1313,-1.1033,-0.956,-0.9589,-0.9488,-0.8276,-0.8231,0.0,0.0,0.0,-0.9753,-1.1208,-1.161,-1.1974,-1.251,-1.2103,-1.171,-1.1441,-1.0623,-1.0038,-0.9797,-0.9454,-0.8985,-0.8393,-0.7834,-0.7247,-0.6614,0.0,0.0,0.0,0.0,0.0,0.0,0.0,0.0,0.0,0.0,0.0,0.0,0.0,0.0,0.0,0.0,0.0,0.0,0.0,0.0,0.0,0.0,0.0,0.0,0.0,0.0,0.0,0.0,0.0,-1.0461,-1.0996,0.0,0.0,0.0,0.0,-1.2283,-1.3836,-1.4773,-1.4756,-1.5231,-1.5977,-1.7047,-1.7443,-1.7838,-1.8205,-1.9302,-1.9627,-1.9132,-1.8958,-1.8714,-1.8497,-1.8053,-1.7802,-1.7699,-1.7899,-1.8006,-1.7982,-1.6194,-1.5039,-1.4388,-1.3695,-1.3104,-1.2625,-1.2626,-1.2372,-1.1945,-1.1536,-1.1205,-1.0944,-1.0662,-1.0238,-0.9931,-1.0456,-1.0075,0.0,0.0,-1.0572,-1.0953,-1.1047,-1.1734,-1.2295,-1.1969,-1.2348,-1.2805,-1.2923,-1.3141,-1.2726,-1.0872,-1.0588,-1.0539,-1.0215,0.0,-0.9954,-1.0156,-1.0307,-1.0823,-1.2005,-1.2214,-1.247,-1.2996,-1.2144,-1.168,-1.2012,-1.1076,-1.0501,-1.0533,-1.0692,-1.0271,-0.9101,-0.9018,-0.8412,-0.7182,-0.6357,0.0,0.0,0.0,0.0,0.0,0.0,0.0,0.0,0.0,0.0,0.0,0.0,0.0,0.0,0.0,0.0,0.0,0.0,0.0,0.0,0.0,0.0,0.0,0.0,0.0,0.0,0.0,0.0,-1.2143,-1.3124,0.0,-1.3458,-1.3867,-1.4417,-1.5121,-1.5497,-1.6056,-1.684,-1.7303,-1.795,-1.8853,-1.9376,-1.9972,-2.0616,-2.102,-2.1117,-2.0878,-2.0926,-2.0587,-1.9849,-1.9683,-1.9487,-1.9259,-1.9455,-1.9467,-1.9233,-1.8607,-1.7349,-1.5694,-1.5014,-1.4258,-1.3579,-1.3515,-1.3239,-1.2842,-1.236,-1.2305,-1.2288,-1.1764,-1.1469,-1.1268,-1.0956,-1.0711,-1.0659,-1.1059,-1.1304,-1.1495,-1.1763,-1.2289,-1.2712,-1.2508,-1.2904,-1.3331,-1.3195,-1.3304,-1.3237,-1.2637,-1.2524,-1.2229,-1.1407,-1.1412,-1.1412,-1.1055,-1.121,-1.1575,-1.2243,-1.2414,-1.252,-1.2642,-1.2109,-1.1752,-1.1768,-1.0716,-1.0091,-1.0216,-0.9823,-0.9333,-0.8736,-0.8581,-0.829,-0.7797,-0.7036,-0.6133,0.0,0.0,0.0,0.0,0.0,0.0,0.0,0.0,0.0,0.0,0.0,0.0,0.0,0.0,0.0,0.0,0.0,0.0,0.0,0.0,0.0,0.0,0.0,0.0,0.0,0.0,-1.3131,-1.3551,-1.4834,-1.566,-1.5523,-1.6065,-1.6748,-1.7497,-1.7698,-1.8098,-1.8842,-1.9173,-1.9645,-2.0287,-2.0949,-2.149,-2.1934,-2.228,-2.2338,-2.206,-2.2156,-2.1771,-2.1038,-2.09,-2.0662,-2.0378,-2.0515,-2.0399,-2.0129,-1.99,-1.8795,-1.7148,-1.6527,-1.5697,-1.4857,-1.4768,-1.4426,-1.3941,-1.3282,-1.3202,-1.3357,-1.2765,-1.2564,-1.2434,-1.1809,-1.1816,-1.2015,-1.2024,-1.2253,-1.2488,-1.2545,-1.2985,-1.339,-1.3182,-1.37,-1.4136,-1.3877,-1.4054,-1.4248,-1.4211,-1.3809,-1.3282,-1.2596,-1.2635,-1.2599,-1.2043,-1.2113,-1.2325,-1.2626,-1.2739,-1.2785,-1.2739,-1.2398,-1.2044,-1.1762,-1.0863,-1.0321,-1.0346,-0.9747,-0.9274,-0.8977,-0.8709,-0.8444,-0.8149,-0.7235,-0.6393,-0.5636,0.0,0.0,0.0,0.0,0.0,0.0,0.0,0.0,0.0,0.0,0.0,0.0,0.0,0.0,0.0,0.0,0.0,0.0,0.0,0.0,0.0,0.0,0.0,-1.1873,-1.3521,-1.4763,-1.4713,-1.6185,-1.7086,-1.6856,-1.8348,-1.9338,-1.9283,-2.0422,-2.097,-2.0648,-2.0856,-2.1071,-2.1359,-2.2078,-2.2341,-2.2056,-2.3106,-2.3288,-2.2595,-2.2421,-2.2189,-2.1908,-2.1511,-2.1182,-2.0934,-2.094,-2.0807,-2.0571,-1.99,-1.9308,-1.8774,-1.8212,-1.7417,-1.6568,-1.6377,-1.5973,-1.5367,-1.4313,-1.4065,-1.409,-1.3659,-1.3493,-1.3387,-1.3174,-1.3445,-1.3661,-1.3079,-1.3537,-1.4058,-1.3467,-1.3911,-1.4419,-1.41,-1.4736,-1.5332,-1.5059,-1.5478,-1.5788,-1.5478,-1.4404,-1.3622,-1.3815,-1.3698,-1.3474,-1.3193,-1.3132,0.0,-1.3216,-1.3228,-1.3266,-1.3386,-1.2983,-1.2527,-1.2047,-1.1565,-1.1218,-1.0986,-1.0594,-1.0215,-0.9866,-0.9494,-0.895,-0.8214,-0.6983,-0.6138,-0.5718,0.0,0.0,0.0,0.0,0.0,0.0,0.0,0.0,0.0,0.0,0.0,0.0,0.0,0.0,0.0,0.0,0.0,0.0,0.0,0.0,0.0,-1.3503,-1.4876,-1.4825,-1.5594,-1.6474,-1.7327,-1.8312,-1.9077,-1.9543,-2.011,-2.0575,-2.0839,-2.1082,-2.13,-2.1468,-2.1901,-2.2287,-2.2598,-2.3264,-2.3596,-2.3527,-2.381,-2.3609,-2.2897,-2.3134,-2.2829,-2.2055,-2.2187,-2.2037,-2.1618,-2.153,-2.1316,-2.0999,-2.0561,-2.0009,-1.9274,-1.8022,-1.7245,-1.6795,-1.6412,-1.614,-1.5896,-1.561,-1.5333,-1.5048,-1.4542,-1.4258,-1.4003,-1.3418,-1.3445,-1.3615,-1.3389,-1.3506,-1.372,-1.3805,-1.4144,-1.4499,-1.4508,-1.5069,-1.5546,-1.5332,-1.5604,-1.5885,-1.5788,-1.5368,-1.5019,-1.4965,-1.4858,-1.4743,-1.4507,-1.4109,0.0,-1.3979,-1.3624,-1.3314,-1.3266,-1.3007,-1.2695,-1.2395,-1.1666,-1.1013,-1.0522,-0.9894,-0.937,-0.9041,-0.8926,-0.872,-0.8412,-0.7646,-0.6897,0.0,0.0,0.0,0.0,0.0,0.0,0.0,0.0,0.0,0.0,0.0,0.0,0.0,0.0,0.0,0.0,0.0,0.0,0.0,0.0,0.0,0.0,-1.5517,-1.693,-1.7659,-1.7684,-1.7908,-1.8635,-1.9383,-2.0115,-2.0815,-2.127,-2.1668,-2.202,-2.2318,-2.2546,-2.2758,-2.2863,-2.323,-2.3889,-2.3966,-2.4138,-2.4476,-2.4347,-2.4016,-2.3459,-2.3955,-2.3778,-2.2982,-2.3442,-2.3423,-2.3026,-2.2791,-2.2491,-2.2136,-2.1789,-2.1229,0.0,0.0,0.0,0.0,0.0,-1.6484,-1.6096,-1.6167,-1.5815,-1.5321,-1.5008,-1.4724,-1.438,-1.3755,-1.3721,-1.3866,-1.3555,-1.3615,-1.3777,-1.3887,-1.4232,-1.4578,-1.4664,-1.5306,-1.5809,-1.5459,-1.5811,-1.6106,-1.5925,-1.592,0.0,-1.5848,-1.5601,-1.5325,-1.5033,-1.4604,-1.4246,-1.4041,-1.3655,-1.3386,-1.3372,-1.3166,-1.2845,-1.2375,-1.1743,0.0,0.0,0.0,-0.9226,-0.8929,-0.8854,0.0,0.0,0.0,-0.7601,-0.707,-0.6878,0.0,0.0,-0.5729,-0.5775,0.0,0.0,0.0,0.0,0.0,0.0,0.0,0.0,0.0,0.0,0.0,0.0,0.0,0.0,0.0,0.0,-1.7385,-1.8577,-2.004,-1.966,-1.9243,-1.9194,-1.9837,-2.0553,-2.1236,-2.1994,-2.2608,-2.2977,-2.3728,-2.4189,-2.4218,0.0,0.0,0.0,0.0,-2.4309,-2.5072,-2.4706,-2.4458,-2.4338,-2.4812,-2.4836,-2.4415,-2.4937,-2.4988,-2.4633,-2.4296,-2.3923,-2.3547,-2.3179,-2.2605,-2.1825,-2.016,-1.9114,-1.8434,-1.7945,-1.7196,-1.6439,-1.6509,0.0,0.0,-1.5346,-1.5062,-1.4649,-1.4198,-1.4284,-1.4393,-1.3755,-1.3835,-1.4126,-1.395,-1.4282,-1.472,-1.4819,-1.556,-1.6119,-1.5693,-1.6108,-1.6467,-1.6145,-1.6286,-1.6485,-1.6485,-1.6053,-1.5608,-1.5178,-1.4905,-1.4516,-1.3831,-1.3604,-1.3529,-1.3621,0.0,0.0,-1.2247,-1.1872,-1.1345,-1.0547,-0.996,-0.9522,-0.9217,-0.9133,-0.9053,-0.8966,-0.8509,-0.8217,-0.8079,-0.7762,-0.7547,-0.7402,-0.6536,-0.6292,0.0,0.0,0.0,0.0,0.0,0.0,0.0,0.0,0.0,0.0,0.0,0.0,0.0,0.0,0.0,-1.7545,-1.8895,-1.9911,-2.0455,-2.068,-2.065,-2.0316,-2.0607,-2.1269,-2.2379,-2.2724,-2.3244,-2.4112,-2.4469,-2.4721,-2.4835,-2.4827,-2.4939,-2.5146,-2.4924,-2.5028,-2.5565,-2.4905,-2.5029,-2.587,0.0,0.0,-2.5734,-2.567,-2.5408,-2.4988,-2.4666,-2.4296,-2.3968,-2.3459,-2.2926,-2.2333,-2.0843,-2.0037,-1.9665,-1.9511,-1.9019,-1.8411,-1.8085,-1.7376,-1.6517,-1.6202,-1.5842,-1.5507,-1.5271,-1.5255,0.0,-1.4733,-1.4561,-1.4529,-1.4647,-1.4868,-1.5185,-1.5573,-1.6056,-1.649,-1.666,-1.6886,-1.7071,-1.7175,-1.701,-1.6882,-1.6882,-1.6702,-1.6413,-1.5953,-1.5763,-1.5446,-1.48,-1.4382,-1.4024,-1.3781,-1.3515,-1.3195,-1.2777,-1.2433,-1.1898,-1.1095,-1.0381,-0.9791,-0.9291,-0.9522,-0.9569,-0.9383,-0.8976,-0.8666,-0.848,-0.7947,-0.7632,-0.7559,-0.7097,-0.6953,0.0,0.0,0.0,0.0,0.0,0.0,0.0,0.0,0.0,0.0,0.0,-1.3114,-1.4673,0.0,-1.7971,-1.9105,-2.0334,-2.1082,-2.0921,-2.1191,-2.1277,-2.0945,-2.1423,-2.2136,-2.3028,-2.3525,-2.4096,-2.4811,-2.5047,-2.5173,-2.5257,-2.5094,-2.5135,-2.5439,-2.5094,-2.53,-2.6135,-2.5617,-2.5812,-2.6705,-2.6661,-2.6701,-2.6792,-2.6963,-2.6776,-2.6284,-2.6041,-2.5678,-2.5197,-2.4552,-2.4154,-2.3836,-2.2464,-2.1328,-2.0409,-2.0142,-1.9581,-1.8867,-1.8749,-1.8004,-1.7081,-1.7072,-1.6605,-1.6045,-1.5946,-1.5791,-1.5576,-1.5275,-1.5053,-1.4908,-1.5036,-1.5237,-1.5543,-1.5831,-1.6393,-1.6811,-1.6711,-1.7022,-1.727,-1.7199,-1.7043,-1.6947,-1.7125,-1.7001,-1.6683,-1.6088,-1.5997,-1.5801,-1.5285,-1.4837,-1.4507,-1.4275,-1.3923,-1.3505,-1.3036,-1.2475,-1.1975,-1.1567,-1.1046,-1.0595,-1.0263,-1.0317,-1.0273,-1.0101,-0.9744,-0.9433,-0.9199,-0.8651,-0.8273,-0.8053,-0.766,-0.7401,0.0,0.0,0.0,0.0,0.0,0.0,0.0,0.0,-1.234,-1.3035,-1.4071,-1.5385,-1.7165,-1.88,-2.0061,-2.0593,-2.1553,-2.2013,-2.1432,-2.1568,-2.1664,-2.1471,-2.2188,-2.2986,-2.3676,-2.4318,-2.4858,-2.53,-2.5508,-2.5578,-2.5578,-2.5394,-2.5502,-2.6007,-2.5629,-2.5938,-2.6986,-2.6599,-2.677,-2.7498,-2.781,-2.7902,-2.7832,-2.8214,-2.8105,-2.759,-2.7335,-2.6918,-2.6346,-2.5721,-2.5418,-2.5228,-2.399,-2.2678,-2.1413,-2.0764,-1.9994,-1.9304,-1.9314,-1.8592,-1.7662,-1.784,-1.7245,-1.6476,-1.6521,-1.6315,-1.5994,-1.5801,-1.5598,-1.542,-1.5377,-1.5591,-1.5842,-1.5991,-1.6682,-1.7184,-1.684,-1.7181,-1.7491,-1.7342,-1.7163,-1.7113,-1.7361,-1.7272,-1.6877,-1.6115,-1.6151,-1.61,-1.5568,-1.5314,-1.5078,-1.481,-1.4419,-1.3909,-1.3228,-1.253,-1.2065,-1.1932,-1.1658,-1.142,-1.1202,-1.1047,-1.0923,-1.0843,-1.049,-1.0188,-0.9961,-0.9452,-0.8997,-0.8593,-0.8247,-0.7777,-0.9847,-1.1239,-1.2692,-1.3178,-1.3409,-1.389,0.0,0.0,-1.4787,-1.6046,-1.6923,-1.7908,-1.931,-2.0703,-2.1631,-2.1625,-2.219,-2.2459,-2.1985,-2.2044,-2.2184,-2.2254,-2.2784,-2.3628,-2.4874,-2.4964,-2.5206,-2.5797,-2.5839,-2.5853,-2.5853,-2.6606,-2.7042,-2.7113,-2.7456,-2.7908,-2.8478,-2.7783,-2.7924,-2.886,-2.8391,-2.8446,-2.8907,-2.8807,-2.8449,-2.7908,-2.7302,-2.6794,-2.638,-2.6186,-2.5873,-2.5453,-2.4301,-2.3734,-2.3422,-2.2179,-2.145,-2.1031,-2.0582,-1.9693,-1.8747,-1.8443,-1.7729,-1.705,-1.7301,-1.7182,-1.6919,-1.6763,-1.646,-1.6167,-1.6017,-1.6105,-1.6262,-1.6486,-1.7092,-1.7721,-1.8006,-1.8002,-1.8123,-1.8731,-1.8385,-1.7944,-1.7853,-1.7773,-1.7402,-1.6477,-1.6666,-1.6635,-1.5953,-1.6026,-1.5873,-1.5118,-1.4904,-1.44,-1.345,-1.3127,-1.2687,-1.2039,-1.1941,-1.1723,-1.1211,-1.118,-1.1211,-1.1328,-1.0888,-1.0602,-1.0503,-0.987,-0.9329,-0.8943,-0.8831,-0.8197,-1.2659,-1.3549,-1.4235,-1.4787,-1.5238,-1.5731,-1.6477,-1.6679,-1.6981,-1.7882,-1.8912,-1.985,-2.047,-2.1625,-2.237,0.0,-2.2536,-2.2993,-2.2836,-2.262,-2.2844,-2.3802,-2.4053,-2.4151,-2.4209,-2.4841,-2.5329,-2.5584,-2.5939,-2.6294,-2.669,-2.7098,-2.7468,-2.7797,-2.7997,-2.8322,-2.8812,-2.8422,-2.8624,-2.9383,-2.907,-2.8976,-2.9099,-2.9022,-2.8638,-2.8033,-2.7315,-2.6909,-2.6726,-2.6349,-2.5955,-2.5509,-2.4401,-2.3943,-2.3765,-2.2479,-2.1855,-2.1555,-2.1123,-2.0434,-1.9659,-1.9114,-1.845,-1.7849,-1.7705,-1.7357,-1.698,-1.6908,-1.6512,-1.6047,-1.6063,-1.5997,-1.6045,-1.6482,-1.6925,-1.7373,-1.7852,-1.7886,-1.8022,-1.864,-1.8243,-1.7912,-1.826,-1.7938,-1.7456,-1.6992,-1.6977,-1.6862,-1.6468,-1.6412,-1.6168,-1.5571,-1.5167,-1.4777,-1.4363,-1.3791,-1.3273,-1.2915,-1.2517,-1.2163,-1.1856,-1.1705,-1.1634,-1.169,-1.15,-1.1229,-1.0884,-1.0522,-1.001,-0.9343,-0.9151,-0.8636,-1.446,-1.5269,-1.5836,-1.6321,-1.6898,-1.7423,-1.7631,-1.7867,-1.8302,-1.9155,-1.9937,-2.0565,-2.0879,-2.1937,-2.2566,-2.203,-2.2927,-2.3668,-2.3603,-2.3299,-2.3499,-2.4681,-2.4717,-2.4399,-2.3731,-2.4912,-2.5661,-2.5515,-2.6193,-2.6879,-2.7378,-2.7737,-2.8139,-2.857,-2.8713,-2.891,-2.9217,-2.908,-2.9214,-2.9651,-2.9571,-2.953,-2.9585,-2.9578,-2.9304,-2.8758,-2.7917,-2.748,-2.7263,-2.6596,-2.6124,-2.5669,-2.4562,-2.4097,-2.3991,-2.2785,-2.2176,-2.1921,-2.1512,-2.0964,-2.0333,-1.9696,-1.9079,-1.85,-1.807,-1.7605,-1.7184,-1.7092,-1.6645,-1.6173,-1.6153,-1.6052,-1.6049,-1.6493,-1.6783,-1.7107,-1.7598,-1.7638,-1.775,-1.8371,-1.8112,-1.7951,-1.838,-1.8102,-1.771,-1.7393,-1.7199,-1.7002,-1.6772,-1.653,-1.6261,-1.5962,-1.5384,-1.4997,-1.4945,-1.4174,-1.3608,-1.3404,-1.2832,-1.2431,-1.2249,-1.2051,-1.1952,-1.1902,-1.1902,-1.1644,-1.115,-1.0972,-1.0472,-0.964,-0.9413,-0.9042,-1.4463,-1.6023,-1.7841,-1.7988,-1.8399,-1.8944,-1.9726,-1.8864,-1.8344,-1.985,-1.9733,-1.9586,-2.038,-2.1563,-2.2292,-2.188,-2.3405,-2.4534,-2.4133,-2.4078,-2.4124,-2.4307,-2.4322,-2.4261,0.0,-2.5514,-2.6289,-2.5836,-2.6835,-2.7515,-2.7679,-2.8855,-2.9552,-2.9566,-3.0012,-3.0192,-3.0052,-2.987,-2.9794,-2.9777,-2.9777,-3.0148,-3.074,-3.0809,-3.0766,-3.0562,-2.9409,-2.8647,-2.8079,-2.7079,-2.6487,-2.6072,-2.4874,-2.4505,-2.4552,-2.3386,-2.2703,-2.2327,-2.1921,-2.1377,-2.0789,-2.0098,-1.946,-1.8904,-1.8505,-1.8175,-1.7892,-1.7582,-1.7183,-1.6833,-1.6631,-1.6572,-1.6564,-1.6591,-1.6909,-1.7269,-1.7621,-1.7432,-1.7476,-1.8337,-1.8371,-1.8245,-1.8141,-1.8371,-1.829,-1.7491,-1.7325,-1.7124,-1.6662,-1.631,-1.6159,-1.6256,-1.5505,-1.4945,-1.4829,-1.4122,-1.3531,-1.3138,-1.2732,-1.2382,-1.2126,-1.2101,-1.2026,-1.1902,-1.1902,-1.1703,-1.1293,-1.1023,-1.0523,-0.9788,-0.9666,-0.9365,-1.6218,-1.7338,-1.8341,-1.8202,-1.8948,-1.9771,-1.9956,-1.9702,-1.971,-2.0648,-2.0083,-1.9634,-2.0534,-2.0684,-2.0955,-2.1802,-2.2979,-2.4036,-2.4776,-2.5006,-2.531,-2.5899,-2.5816,0.0,0.0,0.0,0.0,-2.6557,-2.7377,-2.821,-2.9112,-2.9564,-2.9944,-3.0248,-3.0301,-3.0296,-3.0235,-3.0097,-3.0005,-3.0005,-2.9775,-2.9809,-2.9989,-2.9661,-2.9433,-2.925,-2.8505,-2.8012,-2.7696,-2.7109,-2.6544,-2.5971,-2.554,-2.5153,-2.4692,-2.4051,-2.3641,-2.3298,-2.2478,-2.1873,-2.1339,-2.0401,-1.9766,-1.9262,-1.8594,-1.8193,-1.7929,-1.7532,-1.7153,-1.6798,-1.6581,-1.6265,-1.6088,-1.6491,-1.6687,-1.6985,-1.7564,-1.7545,-1.7632,-1.8347,-1.8371,-1.8365,-1.8537,-1.8686,-1.8554,-1.7833,-1.7285,-1.69,-1.6757,-1.6483,-1.6416,-1.6729,-1.6074,-1.5573,-1.5515,-1.4765,-1.4022,-1.3398,-1.2907,-1.2427,-1.1986,-1.1694,-1.1603,-1.1619,-1.1368,-1.1124,-1.0896,-1.0498,-1.0002,-0.9387,-0.9263,-0.8931,-1.7614,-1.8208,-1.8711,-1.9244,-1.9831,-2.0314,-2.0472,-2.0222,-2.0042,-2.0288,-1.9548,-1.8984,-1.941,-1.9315,-1.9748,-2.1499,-2.2693,-2.3955,-2.5598,-2.5926,-2.6171,-2.6727,-2.6617,-2.6316,0.0,0.0,0.0,-2.7111,-2.7927,-2.8869,-2.9984,-3.0235,-3.0426,-3.0657,-3.0507,-3.0387,-3.0282,-3.0158,-3.0111,-3.0158,-3.0109,-3.0097,-3.0097,-2.9863,-2.9604,-2.9323,-2.8764,-2.8259,-2.779,-2.7359,-2.6793,-2.6185,-2.6049,-2.563,-2.5028,-2.4554,-2.4213,-2.3861,-2.2927,-2.2402,-2.1949,-2.0915,-2.0362,-2.001,-1.9024,-1.8634,-1.8435,-1.7804,-1.7527,-1.7272,-1.6919,-1.6514,-1.639,-1.6908,-1.6791,-1.682,-1.766,-1.7555,-1.7495,-1.8178,-1.8202,-1.8192,-1.8573,-1.8662,-1.8571,-1.8249,-1.7678,-1.7236,-1.7137,-1.6937,-1.689,-1.7156,-1.6514,-1.6048,-1.597,-1.5228,-1.4474,-1.3866,-1.3196,-1.2604,-1.2061,-1.1606,-1.1377,-1.1352,-1.1099,-1.0871,-1.0693,-1.0233,-0.9718,-0.9185,-0.8929,-0.8585,-1.8612,-1.872,-1.9095,-2.0954,-2.091,-2.0585,-2.1179,-2.038,-1.9379,-1.8874,-1.8194,-1.7559,0.0,0.0,-1.8735,-2.0951,-2.2539,-2.4283,-2.644,-2.6714,-2.672,0.0,0.0,0.0,0.0,0.0,0.0,-2.7575,0.0,-2.9491,-3.0299,-3.0821,-3.1014,-3.0821,-3.0672,-3.0507,-3.0357,-3.0189,-3.0189,-3.0326,-3.0759,-3.0965,-3.0979,-3.1283,-3.1121,-3.0589,-3.0006,-2.9214,-2.8328,-2.7758,-2.7222,-2.6679,-2.6405,-2.6025,-2.5571,-2.4969,-2.4563,-2.4152,-2.3335,-2.2927,-2.2553,-2.1589,-2.1205,-2.0964,-1.9736,-1.9469,-1.9386,-1.841,-1.8264,-1.8264,-1.7579,-1.7303,-1.7273,-1.7661,-1.7148,-1.6864,-1.7817,-1.743,-1.7116,-1.7837,-1.7828,-1.7852,-1.8269,-1.8337,-1.8432,-1.8677,-1.8433,-1.8055,-1.773,-1.7596,-1.7477,-1.7459,-1.6806,-1.6316,-1.6085,-1.5427,-1.4852,-1.443,-1.3578,-1.2882,-1.2333,-1.1789,-1.1402,-1.1124,-1.1099,-1.0981,-1.0725,-1.0231,-0.9721,-0.9201,-0.8659,-0.8371,-1.9715,-2.02,-2.0483,-2.0335,-2.0503,-2.0604,-2.0207,-1.9148,-1.8261,-1.8215,-1.6532,-1.5215,0.0,0.0,0.0,-1.9642,-2.2057,0.0,-2.5838,-2.6892,0.0,-2.7805,0.0,-2.8298,-2.8475,-2.899,0.0,0.0,-2.9612,-2.9837,-3.0981,-3.1159,-3.1176,-3.1014,-3.0821,-3.0791,-3.0895,-3.0702,-3.0642,-3.0672,-3.056,-3.0479,-3.0479,-3.0296,-3.002,-2.9624,-2.9233,-2.8725,-2.816,-2.8,-2.7636,-2.7167,-2.7154,-2.6769,-2.6151,-2.5734,-2.5347,-2.4921,-2.4141,-2.3482,-2.2815,-2.2101,-2.1454,-2.0867,-2.0167,-1.9696,-1.9282,-1.8713,-1.8496,-1.824,-1.7564,-1.7213,-1.7061,-1.7032,-1.6819,-1.6696,-1.7054,-1.713,-1.721,-1.7564,-1.7803,-1.8134,-1.8774,-1.8908,-1.8934,-1.8986,-1.9261,-1.8977,-1.7699,-1.7514,-1.736,-1.7031,-1.6511,-1.6066,-1.5817,-1.54,-1.4917,-1.444,-1.3781,-1.3099,-1.2482,-1.1933,-1.1578,-1.1402,-1.0998,-1.0934,-1.1231,-1.0249,-0.9721,-0.9567,-0.8858,-0.8358,-2.1164,-2.1325,-2.1213,-2.0942,-2.0686,-2.0215,-1.919,-1.8215,-1.7317,-1.6535,-1.5206,-1.4242,-1.4428,-1.5256,-1.6604,0.0,0.0,0.0,-2.5576,-2.6729,-2.7678,0.0,-2.8723,0.0,-2.9427,-2.9724,-3.0197,0.0,-3.0358,-3.0488,-3.1551,-3.1553,-3.1438,-3.1292,-3.1161,-3.1117,-3.1117,-3.0895,-3.0791,-3.0791,-3.0447,-3.0282,-3.0282,-2.9931,-2.9623,-2.9279,-2.904,-2.8656,-2.8197,-2.8112,-2.7868,-2.749,-2.7335,-2.6952,-2.6496,-2.6154,-2.5723,-2.5241,-2.4826,-2.4177,-2.3409,-2.2628,-2.2014,-2.1443,-2.0838,-2.0333,-1.9886,-1.9364,-1.9134,-1.8878,-1.8157,-1.7667,-1.7331,-1.7255,-1.6834,-1.6572,-1.6901,-1.6892,-1.6899,-1.7185,-1.7632,-1.8178,-1.8731,-1.8798,-1.8841,-1.9142,-1.9308,-1.905,-1.7958,-1.7937,-1.7793,-1.7245,-1.6668,-1.6228,-1.598,-1.5614,-1.5197,-1.4706,-1.4232,-1.3615,-1.2797,-1.2286,-1.1846,-1.1427,-1.0998,-1.0923,-1.121,-1.0248,-0.9827,-0.9891,-0.9214,-0.8773,-2.2517,-2.2146,-2.1606,-2.1823,-2.0901,-1.9614,-1.8227,-1.7352,-1.6314,-1.4529,-1.405,-1.3774,-1.3234,-1.4322,-1.5962,-1.8053,0.0,-2.2572,-2.5606,-2.6492,-2.7415,-2.9042,-2.9093,-2.9256,-2.9947,-3.0083,-3.0344,-3.0945,-3.0951,-3.1263,-3.1966,-3.1898,-3.1741,-3.1552,-3.1523,-3.1394,-3.1176,-3.0969,-3.0851,-3.0821,-3.0507,-3.0357,-3.0312,-2.9976,-2.9668,-2.9341,-2.918,-2.8798,-2.8287,-2.8197,-2.8033,-2.7756,-2.7302,-2.6977,-2.6692,-2.6361,-2.5863,-2.5382,-2.5312,-2.4814,-2.408,-2.315,-2.2628,-2.2252,-2.154,-2.1128,-2.077,-2.0158,-1.9943,-1.9696,-1.8908,-1.8285,-1.7813,-1.7748,-1.697,-1.6413,-1.697,-1.6661,-1.6412,-1.676,-1.7392,-1.7964,-1.8341,-1.8361,-1.8539,-1.9119,-1.9042,-1.8721,-1.8226,-1.8455,-1.839,-1.769,-1.7013,-1.6524,-1.6296,-1.5933,-1.5498,-1.5088,-1.4715,-1.4118,-1.3277,-1.2732,-1.2144,-1.1455,-1.1175,-1.1049,-1.1147,-1.0387,-1.0123,-1.0261,-0.96,-0.9288,-2.2658,-2.2509,-2.2043,-2.0961,-1.9982,-1.896,-1.7768,-1.61,0.0,-1.3729,-1.2725,-1.1954,-1.185,-1.337,-1.5345,-1.7484,-1.9986,-2.2721,-2.5741,-2.6625,-2.7552,0.0,-2.971,-3.0265,-3.1044,-3.1503,0.0,0.0,-3.1745,-3.1749,-3.1996,-3.1968,-3.1883,-3.1756,-3.1597,-3.1467,-3.1424,-3.1292,-3.1146,-3.1043,-3.0821,-3.0672,-3.0552,-3.0189,-2.9851,-2.954,-2.9226,0.0,-2.832,-2.8444,-2.8229,-2.7776,-2.7689,-2.7369,-2.6909,-2.6508,-2.6129,-2.5758,-2.5418,-2.4933,-2.4345,-2.3677,-2.2964,-2.2327,-2.2025,-2.1454,-2.0836,-2.0574,-2.0188,-1.9709,-1.8907,-1.8383,-1.7904,-1.7331,-1.6692,-1.6241,-1.6355,-1.634,-1.6307,-1.6377,-1.6769,-1.7245,-1.774,-1.8172,-1.8486,-1.8617,-1.9108,-1.9102,-1.8071,-1.8231,-1.811,-1.7226,-1.6811,-1.6457,-1.6171,-1.5875,-1.5575,-1.5362,-1.4465,-1.3957,-1.4017,-1.2833,-1.2154,-1.2122,-1.1799,-1.1721,-1.1906,-1.1068,-1.065,-1.0674,-0.9805,-0.9242,-2.3387,-2.3565,-2.3344,-2.1446,-2.0135,-1.8789,-1.6775,0.0,0.0,-1.2609,-1.1937,-1.15,-1.156,-1.2846,0.0,-1.5862,-1.7985,-2.0643,-2.4019,-2.5303,-2.6785,-2.9116,-3.0175,-3.0857,-3.1259,-3.1848,-3.2163,-3.2094,-3.2038,-3.2053,-3.2094,-3.2094,-3.2038,-3.1927,-3.1756,-3.1597,-3.1511,-3.138,-3.1263,-3.122,-3.094,-3.0732,-3.0598,-3.0264,-2.9958,-2.9696,-2.9622,-2.9426,-2.9165,-2.8917,-2.8652,-2.8358,-2.7654,-2.7248,-2.6943,-2.6589,-2.6211,-2.5875,-2.5571,-2.5052,-2.4418,-2.3934,-2.3224,-2.2515,-2.2327,-2.1683,-2.1068,-2.1068,-2.0612,-1.9972,-1.9336,-1.8774,-1.8184,-1.7351,-1.6503,-1.5795,-1.5527,-1.5585,-1.5688,-1.5708,-1.6123,-1.6612,-1.7201,-1.751,-1.7818,-1.8178,-1.8161,-1.8001,-1.7584,-1.7502,-1.7355,-1.7019,-1.6768,-1.6428,-1.6017,-1.5807,-1.5527,-1.5059,-1.4725,-1.4364,-1.4072,-1.3336,-1.287,-1.2708,-1.2184,-1.2042,-1.2307,-1.1285,-1.0843,-1.0926,-1.0089,-0.9593,-2.3806,-2.4143,-2.3997,-2.1829,-2.026,-1.8552,-1.5927,-1.4325,-1.3031,-1.1762,-1.1489,-1.1526,-1.1593,-1.2468,-1.3549,0.0,-1.6288,-1.869,-2.239,-2.4048,-2.5948,0.0,-3.0236,0.0,-3.1236,-3.1821,0.0,-3.2038,-3.2122,-3.2163,-3.2163,-3.2163,-3.2122,-3.1996,-3.1841,-3.167,-3.1568,-3.1409,-3.1307,-3.1263,-3.0999,-3.0805,-3.0755,-3.0291,-3.0045,-2.9942,-2.9845,-2.9771,-2.964,-2.906,-2.8792,-2.8651,-2.7449,-2.7011,-2.6943,-2.6636,-2.6211,-2.5793,-2.5641,-2.5052,-2.4309,-2.4007,-2.3372,-2.2703,-2.2478,-2.1911,-2.1397,-2.1387,-2.0838,-2.0137,-1.9608,-1.9015,-1.8266,-1.7148,-1.6212,-1.5397,-1.4736,-1.4802,-1.4943,-1.4912,-1.533,-1.5868,-1.6438,-1.6621,-1.6899,-1.7554,-1.7182,-1.6878,-1.7,-1.6833,-1.6739,-1.6838,-1.6683,-1.6389,-1.5894,-1.5751,-1.542,-1.4813,-1.4817,-1.4608,-1.4077,-1.3691,-1.3368,-1.3148,-1.2426,-1.215,-1.238,-1.1286,-1.0814,-1.0965,-1.0206,-0.976,-2.302,-2.2962,-2.2538,-2.1063,-1.9479,-1.7818,-1.5841,0.0,-1.3031,-1.1762,-1.1489,-1.1526,-1.1593,-1.2094,-1.3169,-1.5253,-1.6662,-1.8763,-2.239,-2.4042,-2.575,-2.8033,0.0,0.0,-3.1309,-3.1876,-3.2191,-3.2163,-3.2066,-3.2025,-3.2025,-3.2025,-3.2025,-3.1996,-3.1683,-3.1597,-3.1756,-3.1568,-3.1366,-3.1102,-3.1087,-3.1113,-3.1205,-3.0444,-3.0225,-3.0371,-2.9549,-2.9022,0.0,-2.8323,-2.808,-2.7855,-2.7235,-2.6998,-2.6943,-2.6636,-2.6141,-2.5606,-2.5618,-2.4897,-2.3934,-2.3897,-2.3482,-2.2889,-2.2515,-2.2214,-2.1873,-2.1136,-2.0595,-2.005,-1.9271,-1.8554,-1.77,-1.6191,-1.5686,-1.5193,-1.4113,-1.4241,-1.4417,-1.4002,-1.4358,-1.4859,-1.5267,-1.5657,-1.6044,-1.6411,-1.6688,-1.6797,-1.6523,-1.6769,-1.6815,-1.6413,-1.6445,-1.6277,-1.576,-1.5642,-1.5428,-1.4999,-1.4188,-1.4008,-1.4611,-1.339,-1.2868,-1.3179,-1.253,-1.2131,-1.2049,-1.1024,-1.0553,-1.0548,-0.9722,-0.9274,-2.2793,-2.3447,-2.3622,-2.1685,-2.0078,-1.8353,-1.5898,0.0,-1.3031,-1.1762,-1.1537,-1.1567,-1.1597,-1.1772,-1.2472,-1.416,-1.4813,0.0,-1.9918,-2.1581,-2.3404,-2.6024,-2.7847,0.0,0.0,0.0,-3.1763,-3.216,-3.2135,-3.2094,-3.1981,-3.1996,-3.1968,-3.187,-3.1756,-3.167,-3.1626,-3.1467,-3.1322,-3.1205,-3.1014,-3.0833,-3.067,-3.0287,-2.9992,-2.9823,-2.9564,-2.9345,0.0,-2.8518,-2.8283,-2.8223,-2.7216,-2.6897,-2.6956,-2.6477,-2.6084,-2.5723,-2.5347,-2.4743,-2.4043,-2.3787,-2.3372,-2.2927,-2.2515,-2.1987,-2.1502,-2.1156,-2.0566,-1.9932,-1.9499,-1.8585,-1.7538,-1.6394,-1.5731,-1.5078,-1.4037,-1.388,-1.3865,-1.3506,-1.3905,-1.4374,-1.4625,-1.4804,-1.5089,-1.5542,-1.5339,-1.5214,-1.5392,-1.546,-1.542,-1.5236,-1.581,-1.5942,-1.5327,-1.5142,-1.4816,-1.4303,-1.3983,-1.3892,-1.3983,-1.3391,-1.3151,-1.3267,-1.2655,-1.2107,-1.1699,-1.0888,-1.0386,-1.0138,-0.9601,-0.9325,-2.2394,-2.3146,-2.3302,-2.1485,-1.9812,-1.7969,0.0,0.0,-1.28,-1.1722,-1.1548,-1.1578,-1.1593,-1.1597,-1.1979,-1.3119,0.0,-1.4943,-1.8047,-1.9807,-2.1691,-2.4173,0.0,-2.7997,0.0,-3.083,-3.1622,-3.183,-3.2056,-3.2059,-3.1708,-3.189,-3.1968,-3.187,-3.1756,-3.167,-3.1597,-3.1409,-3.1292,-3.1234,-3.094,-3.0714,-3.0508,-3.0228,-2.9933,-2.9662,-2.9559,-2.9375,0.0,-2.843,-2.8206,-2.8179,-2.7084,-2.6726,-2.6773,-2.6339,-2.5945,-2.5571,-2.5158,-2.4563,-2.397,-2.3677,-2.3335,-2.2927,-2.244,-2.1883,-2.132,-2.1089,-2.0294,-1.9469,-1.9134,-1.8287,-1.7261,-1.631,-1.5622,-1.4896,-1.3807,-1.3586,-1.349,-1.3184,-1.3593,-1.4029,-1.4137,-1.4137,-1.431,-1.4713,-1.4312,-1.4077,-1.4453,-1.4414,-1.4403,-1.4437,-1.4916,-1.5077,-1.4649,-1.4507,-1.4199,-1.3547,-1.3542,-1.3489,-1.329,-1.3152,-1.3076,-1.3056,-1.241,-1.1829,-1.1337,-1.066,-1.0107,-0.9734,-0.9535,-0.9438,-2.1675,-2.1436,-2.058,-1.9887,-1.8108,-1.6139,-1.4645,-1.3326,-1.2238,-1.1634,-1.1489,-1.1523,-1.1593,-1.159,-1.1825,-1.2491,-1.3784,0.0,-1.7429,-1.9432,-2.1278,0.0,0.0,-2.644,-2.8082,-3.0744,-3.2011,-3.1083,-3.1741,0.0,-3.104,-3.1632,-3.1996,-3.1996,-3.1683,-3.1597,-3.1799,-3.1467,-3.1234,-3.1117,-3.0895,-3.0855,-3.0979,-3.0366,-3.016,-3.0248,-2.9457,-2.8798,0.0,-2.7723,-2.7436,-2.7248,-2.6705,-2.644,-2.6393,-2.6258,-2.5688,-2.5004,-2.5004,-2.4371,-2.3604,-2.3593,-2.3335,-2.2889,-2.2289,-2.1949,-2.1617,-2.0838,-1.9676,-1.8571,-1.7902,-1.7416,-1.6806,-1.5612,-1.5102,-1.4558,-1.3296,-1.3317,-1.3452,-1.2993,-1.3382,-1.3797,-1.3797,-1.3797,-1.3797,-1.379,-1.3804,-1.3789,-1.3825,-1.3977,-1.415,-1.4294,-1.3854,-1.3587,-1.3716,-1.3835,-1.3575,-1.2852,-1.2636,-1.2597,-1.2795,-1.2474,-1.2359,-1.2521,-1.1732,-1.1209,-1.0982,-1.0261,-0.9695,-0.9315,-0.9449,-0.9488,-1.9105,-1.9446,-1.925,-1.802,-1.6784,-1.5492,-1.4018,-1.302,-1.2224,-1.162,-1.1548,-1.1567,-1.1601,-1.1641,-1.2189,-1.3771,-1.4498,-1.5553,0.0,0.0,0.0,-2.2904,-2.6551,-2.9108,0.0,0.0,-3.2321,-3.1845,-3.2056,-3.2043,-3.1693,-3.1875,-3.1968,-3.187,-3.1756,-3.167,-3.1597,-3.1409,-3.1234,-3.1117,-3.0895,-3.0668,-3.0366,-3.0045,-2.9749,-2.9439,-2.8802,-2.8398,-2.8131,-2.7603,-2.7335,-2.7268,-2.6794,-2.6543,-2.6358,-2.6119,-2.5758,-2.5359,-2.4826,-2.437,-2.3934,-2.353,-2.3113,-2.2703,-2.2252,-2.1845,-2.1339,-2.0089,-1.9311,-1.8803,-1.8313,-1.7683,-1.6956,-1.611,-1.5295,-1.4523,-1.3822,-1.3724,-1.3653,-1.3368,-1.3572,-1.3717,-1.3455,-1.3273,-1.32,-1.32,-1.3083,-1.3039,-1.3185,-1.3368,-1.3411,-1.3142,-1.3222,-1.3417,-1.3731,-1.3044,-1.2524,-1.2409,-1.2239,-1.2143,-1.2104,-1.2367,-1.2391,-1.2163,-1.1914,-1.1432,-1.0714,-1.0504,-1.0089,-0.9493,-0.9697,-0.9702,-1.7028,-1.7562,-1.7498,-1.6308,-1.5473,-1.4588,-1.3302,-1.2524,-1.1945,-1.1576,-1.1537,-1.1571,-1.1604,-1.1652,-1.2182,-1.3668,-1.4268,-1.5259,0.0,0.0,0.0,-2.3481,0.0,0.0,0.0,-3.1063,-3.2056,-3.1852,-3.1809,-3.1903,-3.2051,-3.2025,-3.194,-3.1784,-3.1799,-3.1635,-3.1251,-3.1232,-3.1028,-3.0602,-3.0615,-3.0371,-2.9896,-2.9699,-2.9355,-2.8876,-2.8495,-2.817,0.0,-2.7503,-2.7201,-2.7032,-2.6658,-2.6336,-2.6047,-2.5781,-2.5512,-2.523,-2.4706,-2.4273,-2.3897,-2.3446,-2.2815,-2.2176,-2.1759,-2.1377,-2.0799,-1.9618,-1.9152,-1.8873,-1.8273,-1.774,-1.7146,-1.6158,-1.5374,-1.4728,-1.4074,-1.3969,-1.3935,-1.3681,-1.3826,-1.3863,-1.3382,-1.3163,-1.2973,-1.2826,-1.2636,-1.2526,-1.2673,-1.2709,-1.2673,-1.2526,-1.2562,-1.2783,-1.3105,-1.2536,-1.2147,-1.2036,-1.2034,-1.1957,-1.1809,-1.218,-1.2181,-1.1768,-1.1619,-1.1175,-1.0367,-1.0184,-1.0009,-0.9823,-0.9707,-0.9733,0.0,-1.5698,-1.541,-1.4683,-1.4057,-1.3421,-1.2544,-1.1914,0.0,-1.1489,-1.1489,-1.1541,-1.171,-1.1756,-1.2022,-1.2777,-1.3638,-1.4849,0.0,-1.8774,0.0,0.0,-2.6812,0.0,-2.8105,-3.0042,-3.1282,-3.1209,-3.1197,-3.1488,-3.216,-3.2066,-3.194,-3.1813,-3.1739,-3.1438,-3.0835,-3.0995,-3.0676,-2.9871,-3.01,-3.0009,-2.9602,-2.9345,-2.8998,0.0,-2.8365,-2.8105,-2.7756,-2.7436,-2.7066,-2.6692,-2.6327,-2.598,-2.5606,-2.5382,-2.5111,-2.479,-2.4574,-2.4116,-2.3593,-2.3335,-2.244,-2.1425,-2.1021,-2.0605,-2.0137,-1.946,-1.9112,-1.8794,-1.7902,-1.7674,-1.7289,-1.581,-1.5428,-1.5103,-1.4109,-1.4168,-1.4289,-1.3935,-1.4145,-1.4173,-1.3564,-1.3309,-1.3046,-1.2636,-1.2415,-1.2298,-1.2268,-1.212,-1.2077,-1.2224,-1.1929,-1.1774,-1.1977,-1.2228,-1.2199,-1.1755,-1.1923,-1.1908,-1.1713,-1.1872,-1.1778,-1.1405,-1.0989,-1.0555,-1.0038,-0.9569,-0.9638,-1.018,-0.962,-0.962,-1.2829,0.0,-1.3404,-1.2673,-1.2343,-1.2111,0.0,-1.1639,-1.1489,-1.1489,-1.1489,-1.1817,-1.2856,-1.273,-1.3195,-1.5456,-1.608,-1.6803,-1.8223,0.0,0.0,-2.6213,-2.792,-2.895,-2.9056,-2.993,-3.0685,-3.1151,-3.1197,-3.146,-3.2007,-3.2025,-3.1996,-3.194,-3.1259,-3.0984,-3.117,-3.0984,-3.0718,-3.0395,-2.975,-2.949,-2.9557,-2.8802,-2.85,-2.8587,-2.8262,-2.7934,-2.7556,-2.7369,-2.7066,-2.6692,-2.644,-2.6129,-2.5793,-2.5606,-2.5336,-2.4981,-2.4634,-2.42,-2.3677,-2.2889,-2.2111,-2.1425,-2.1021,-2.0479,-1.9863,-1.9231,-1.8922,-1.8612,-1.7902,-1.7498,-1.7096,-1.6292,-1.5674,-1.5162,-1.4946,-1.4621,-1.4389,-1.4425,-1.4281,-1.3992,-1.3375,-1.3083,-1.282,-1.2415,-1.2342,-1.2224,-1.2077,-1.2157,-1.212,-1.1855,-1.1744,-1.1728,-1.184,-1.141,-1.1134,-1.1175,-1.1139,-1.1014,-1.0812,-1.1242,-1.1382,-1.1259,-1.093,-1.0667,-1.0378,-0.9958,-0.983,-0.996,-0.9809,-0.9771,-1.197,-1.2377,-1.2718,-1.2306,-1.2163,-1.211,-1.2079,-1.1787,-1.156,-1.156,-1.1526,-1.1817,-1.2858,-1.3089,-1.3812,-1.595,-1.6863,0.0,0.0,0.0,-2.495,-2.7016,-2.8238,-2.888,0.0,-2.9297,-2.982,-3.0144,-3.0491,-3.0909,-3.1496,-3.1773,-3.1927,-3.1927,-3.0924,-3.0427,-3.0514,-3.0059,-2.9624,-2.9175,-2.9114,-2.9025,-2.8934,-2.8616,-2.8452,-2.8444,-2.8099,-2.7802,-2.7503,-2.7268,-2.693,-2.653,-2.6267,-2.599,-2.5723,-2.5371,-2.5135,-2.4885,-2.4418,-2.3824,-2.3187,-2.2289,-2.1693,-2.1272,-2.076,-2.0294,-1.9784,-1.9271,-1.9073,-1.8803,-1.8031,-1.7686,-1.7338,-1.6495,-1.5835,-1.5346,-1.4998,-1.4711,-1.4425,-1.4253,-1.4173,-1.392,-1.3302,-1.3119,-1.2936,-1.2636,-1.2489,-1.2415,-1.2298,-1.2224,-1.2077,-1.1855,-1.1855,-1.179,-1.1636,-1.1259,-1.1153,-1.1495,-1.1365,-1.1211,-1.1108,-1.137,-1.1404,-1.1144,-1.0668,-1.0368,-1.0368,-1.0067,-0.9954,-1.003,-0.996,-0.9846,-1.2169,-1.2515,-1.2823,-1.2725,-1.2725,-1.278,-1.2753,-1.2229,-1.178,0.0,0.0,0.0,0.0,-1.358,0.0,0.0,0.0,0.0,-2.2748,-2.3889,-2.5108,-2.7026,-2.7949,0.0,-2.7966,-2.8445,-2.8879,-2.9117,-2.9689,-3.0354,-3.1128,-3.149,-3.1662,-3.1662,-3.0473,-2.9692,-2.9376,-2.8889,-2.8265,-2.7593,-2.8337,-2.8533,-2.8246,-2.851,-2.8529,-2.8287,-2.7941,0.0,-2.7403,-2.7113,-2.676,-2.6324,-2.6037,-2.5793,-2.5535,-2.5028,-2.479,-2.4646,-2.4043,-2.3335,-2.259,-2.1883,-2.1436,-2.1089,-2.0576,-2.0186,-1.9863,-1.9469,-1.9262,-1.9024,-1.8193,-1.8,-1.7717,-1.6663,-1.6079,-1.5602,-1.497,-1.4683,-1.4431,-1.3967,-1.3921,-1.3768,-1.3193,-1.3119,-1.3083,-1.2863,-1.2709,-1.2599,-1.2562,-1.2261,-1.2003,-1.1966,-1.1892,-1.1706,-1.1372,-1.1298,-1.146,-1.1854,-1.175,-1.1647,-1.1647,-1.1649,-1.1458,-1.1031,-1.0331,-1.0067,-1.0218,-0.9997,-0.9992,-1.0143,-0.9992,-0.9884,-1.3292,-1.3535,-1.3336,-1.2838,-1.3131,-1.3519,-1.3469,-1.293,-1.2609,0.0,0.0,0.0,0.0,-1.5728,-1.6649,0.0,0.0,-2.0557,0.0,0.0,-2.4674,-2.5628,0.0,-2.7593,-2.7665,-2.774,-2.8317,-2.9592,-2.997,-3.0712,-3.1949,-3.146,-3.1119,-3.1119,-2.952,-2.8592,-2.8435,-2.8335,-2.8154,-2.7911,-2.7776,-2.7933,-2.8344,-2.8023,-2.8035,-2.8287,0.0,-2.7523,-2.7079,-2.7024,-2.6717,-2.6201,-2.598,-2.5793,-2.5583,-2.5194,-2.4849,-2.4454,-2.3677,-2.3075,-2.2665,-2.2365,-2.1769,-2.1167,-2.0876,-2.0527,-2.0147,-1.9676,-1.921,-1.8692,-1.8121,-1.787,-1.7634,-1.7082,-1.6541,-1.6095,-1.5983,-1.511,-1.4328,-1.4224,-1.3741,-1.3193,-1.2783,-1.282,-1.2863,-1.2673,-1.2636,-1.2526,-1.2378,-1.2298,-1.2114,-1.1781,-1.1446,-1.1223,-1.1149,-1.0812,-1.074,-1.0991,-1.0985,-1.0948,-1.0948,-1.0953,-1.0846,-1.0588,-1.0481,-1.0331,-1.0218,-0.9997,-0.9916,-0.9954,-0.9922,-0.9809,-1.2599,-1.3207,-1.3568,-1.326,-1.3915,-1.4624,-1.4637,-1.4108,-1.3714,0.0,0.0,0.0,0.0,0.0,-1.8007,-2.07,0.0,-2.2286,-2.4168,-2.4686,-2.5251,0.0,0.0,-2.731,-2.7372,-2.7448,-2.7727,-2.8338,-2.9384,-3.0182,-3.0609,-3.1132,-3.1179,-3.0636,-2.9404,-2.8547,-2.8045,-2.7637,-2.7308,-2.7086,-2.754,-2.7771,-2.7737,-2.7821,-2.808,-2.843,0.0,-2.7367,-2.7403,-2.7113,-2.6773,-2.643,-2.6166,-2.5875,-2.5535,-2.4873,-2.437,-2.3897,-2.3224,-2.2777,-2.2478,-2.2063,-2.1578,-2.1167,-2.0964,-2.0537,-2.0029,-1.9676,-1.9243,-1.8801,-1.847,-1.7957,-1.7437,-1.7038,-1.6485,-1.5968,-1.5607,-1.4981,-1.4373,-1.4035,-1.3637,-1.3236,-1.282,-1.2936,-1.3046,-1.2936,-1.2936,-1.2863,-1.2636,-1.2526,-1.2342,-1.2077,-1.1744,-1.1595,-1.1595,-1.1223,-1.0962,-1.0962,-1.085,-1.085,-1.0962,-1.0738,-1.07,-1.0812,-1.04,-1.0255,-1.0368,-0.9931,-0.9802,-0.9913,-0.9913,-0.9792,-1.2134,-1.2933,-1.3729,-1.3959,-1.4729,-1.5477,-1.5668,-1.5316,-1.5007,-1.5154,0.0,0.0,0.0,-1.6896,0.0,-2.2525,-2.2975,-2.3501,-2.5226,-2.5387,-2.5627,-2.6375,-2.6743,-2.6894,-2.6869,-2.7011,-2.7221,-2.7414,-2.8891,-2.9744,-2.9593,-3.0681,-3.0936,-3.0089,-2.9178,-2.8378,-2.7744,-2.7144,-2.6674,-2.6313,-2.7328,-2.7552,-2.7098,-2.7539,-2.8001,-2.8324,-2.7341,-2.7215,-2.7689,-2.7214,-2.6841,-2.6611,-2.6258,-2.584,-2.5336,-2.455,-2.397,-2.353,-2.3001,-2.2665,-2.2327,-2.1845,-2.1464,-2.1167,-2.0974,-2.0459,-1.9942,-1.9636,-1.926,-1.8856,-1.8558,-1.7856,-1.7152,-1.6884,-1.6333,-1.5777,-1.5339,-1.4857,-1.4343,-1.378,-1.3529,-1.3263,-1.2857,-1.3031,-1.3207,-1.3167,-1.3153,-1.3051,-1.287,-1.2709,-1.2489,-1.2261,-1.2003,-1.1781,-1.1669,-1.1298,-1.1037,-1.1037,-1.085,-1.0812,-1.1037,-1.0738,-1.07,-1.1037,-1.0331,-1.0138,-1.0496,-0.9909,-0.9718,-0.9914,-0.9836,-0.979,-1.3156,-1.3543,-1.3871,-1.4979,-1.5375,-1.5654,-1.621,-1.6358,-1.6507,-1.7081,0.0,0.0,0.0,-1.8975,-2.0798,-2.2064,-2.2927,-2.3422,-2.334,0.0,-2.4991,-2.4403,-2.5375,-2.6042,-2.5901,-2.6142,-2.6809,-2.8045,-2.9172,-2.9967,-3.0402,-3.0132,-2.9778,-2.9389,-2.8174,-2.7428,-2.724,-2.707,-2.6765,-2.6297,-2.6941,-2.7046,-2.6635,-2.6953,-2.7329,-2.7741,-2.7136,-2.7131,-2.749,-2.7146,-2.676,-2.6393,-2.6037,-2.5489,-2.4825,-2.4574,-2.4116,-2.3556,-2.3335,-2.2889,-2.2402,-2.2365,-2.1807,-2.1167,-2.0954,-2.0605,-2.0147,-1.9499,-1.9017,-1.8608,-1.8025,-1.7274,-1.6686,-1.6787,-1.6285,-1.5861,-1.5991,-1.506,-1.4116,-1.3678,-1.3306,-1.2934,-1.2598,-1.2914,-1.3163,-1.3019,-1.301,-1.2914,-1.267,-1.2599,-1.2452,-1.2077,-1.1669,-1.1223,-1.0663,-1.0255,-1.0255,-1.0775,-1.0625,-1.0625,-1.0812,-1.0775,-1.0775,-1.0812,-1.04,-1.0296,-1.0489,-0.9914,-0.9718,-0.9914,-0.9718,-0.9694,-1.2235,-1.3264,-1.4223,-1.4216,-1.5462,-1.6825,-1.7384,-1.7257,-1.7292,-1.83,-1.8247,0.0,0.0,0.0,-2.0846,-2.2331,-2.3018,-2.3592,-2.4256,-2.4502,-2.4667,-2.4725,-2.5541,-2.6044,-2.5818,-2.6501,-2.7045,-2.731,-2.8314,-2.8896,-2.8765,-2.9146,-2.903,-2.8332,-2.7835,-2.7474,-2.7207,-2.7067,-2.691,-2.6738,-2.7091,-2.7087,-2.6736,-2.6584,-2.6728,-2.7077,-2.6087,-2.5978,-2.6406,-2.587,-2.5529,-2.5331,-2.4676,-2.426,-2.3953,-2.3721,-2.3468,-2.3262,-2.3161,-2.2889,-2.2553,-2.2289,-2.1769,-2.1167,-2.0944,-2.0489,-1.9902,-1.9271,-1.8744,-1.8252,-1.7873,-1.7441,-1.7046,-1.6837,-1.6565,-1.6273,-1.604,-1.5329,-1.4593,-1.3964,-1.3473,-1.3026,-1.2687,-1.2775,-1.2854,-1.2811,-1.2936,-1.2934,-1.2681,-1.2667,-1.2583,-1.2338,-1.189,-1.1456,-1.0905,-1.0513,-1.0368,-1.0594,-1.0406,-1.0475,-1.0775,-1.0663,-1.0663,-1.0812,-1.0286,-1.0097,-1.0305,-0.9842,-0.9582,-0.9526,-0.9576,-0.9572,-1.1845,-1.3184,-1.4477,-1.409,-1.5564,-1.7334,-1.8241,-1.8143,-1.8185,-1.9259,-1.9203,-1.9236,-2.0146,0.0,0.0,0.0,-2.2944,-2.3517,-2.4297,-2.4355,-2.4431,-2.474,-2.5452,-2.5913,-2.5879,-2.6556,-2.6975,-2.6884,-2.7774,-2.8181,-2.7763,-2.8431,-2.846,-2.771,-2.752,-2.7307,-2.7093,-2.6922,-2.6843,-2.6843,-2.6985,-2.6844,-2.6498,-2.6202,-2.6246,-2.653,-2.5545,-2.5402,-2.5847,-2.5154,-2.475,-2.4491,-2.3848,-2.3528,-2.3408,-2.3375,-2.3255,-2.3121,-2.3242,-2.3038,-2.2628,-2.2214,-2.1693,-2.1128,-2.0799,-2.0294,-1.9666,-1.9082,-1.8478,-1.7916,-1.7523,-1.7287,-1.7046,-1.6618,-1.646,-1.6221,-1.5842,-1.5281,-1.466,-1.4018,-1.3605,-1.3191,-1.2802,-1.2807,-1.2834,-1.2734,-1.2829,-1.2829,-1.2612,-1.2651,-1.2609,-1.2414,-1.2,-1.1576,-1.1192,-1.0797,-1.0566,-1.0599,-1.0451,-1.0494,-1.0834,-1.0795,-1.0797,-1.0829,-1.022,-0.998,-1.0088,-0.9622,-0.9396,-0.938,-0.9406,-0.9457,-1.2412,-1.3435,-1.4614,-1.4991,0.0,0.0,-1.8599,-1.9055,-1.929,-1.9986,-2.0167,-2.0381,-2.0907,-2.1129,0.0,-2.1909,-2.2622,-2.3061,-2.2926,-2.3714,-2.4231,-2.4116,-2.4805,-2.5477,-2.5946,-2.6134,-2.6428,-2.6959,-2.7733,-2.8098,-2.791,-2.8071,-2.8032,-2.7695,-2.7113,-2.6806,-2.6806,-2.6604,-2.651,-2.651,-2.651,-2.6285,-2.5893,-2.5757,-2.5827,-2.6077,-2.574,-2.5778,-2.6047,-2.5358,-2.4653,-2.3968,-2.386,-2.3549,-2.325,-2.3801,-2.3583,-2.3181,-2.3716,-2.3361,-2.2617,-2.2214,-2.1693,-2.1089,-2.0459,-1.999,-1.9478,-1.8851,-1.825,-1.7622,-1.6814,-1.6598,-1.6484,-1.6103,-1.5805,-1.5582,-1.5428,-1.482,-1.417,-1.3786,-1.362,-1.3424,-1.2898,-1.3006,-1.3106,-1.2831,-1.2721,-1.2619,-1.2421,-1.2581,-1.2576,-1.2261,-1.1846,-1.1525,-1.1324,-1.0875,-1.0673,-1.0875,-1.0719,-1.0696,-1.0885,-1.1152,-1.1157,-1.0915,-1.0233,-0.9894,-0.9892,-0.9212,-0.9128,-0.9597,-0.9179,-0.9335,-1.2602,-1.3835,0.0,-1.53,0.0,0.0,0.0,-1.9097,0.0,0.0,-2.1081,-2.0936,-2.1462,-2.1592,0.0,-2.1831,-2.2452,-2.3062,-2.3543,-2.3452,-2.3489,-2.3917,-2.4687,-2.5165,-2.5159,-2.613,-2.6718,-2.6642,-2.6883,-2.6946,-2.68,-2.692,-2.6958,-2.6852,-2.6587,-2.6621,-2.6951,-2.6645,-2.6578,-2.6712,-2.6457,-2.6258,-2.6029,-2.5811,-2.5605,-2.5433,-2.502,-2.4824,-2.4817,-2.4722,-2.4268,-2.3622,-2.3506,-2.2967,-2.232,-2.2622,-2.2542,-2.2332,-2.2751,-2.2499,-2.1993,-2.192,-2.1377,-2.0731,-2.0381,-1.9772,-1.9044,-1.8461,-1.7953,-1.7407,-1.6602,-1.6387,-1.6282,-1.5951,-1.5856,-1.5771,-1.5364,-1.4983,-1.4515,-1.3911,-1.3527,-1.3252,-1.2972,-1.2798,-1.2667,-1.2537,-1.2544,-1.2556,-1.2477,-1.2613,-1.2601,-1.2292,-1.1911,-1.1554,-1.1255,-1.0835,-1.0632,-1.0673,-1.0953,-1.0977,-1.0701,-1.0761,-1.0673,-1.043,-1.0053,-0.9787,-0.9597,-0.9318,-0.9099,-0.8916,-0.9092,-0.9214,-1.3581,-1.4702,0.0,-1.6333,-1.7493,-1.8858,-1.9986,0.0,0.0,0.0,-2.1628,-2.1513,-2.2105,-2.1908,0.0,-2.2169,-2.2454,-2.2841,-2.3392,-2.3103,-2.3213,-2.419,-2.4542,-2.4844,-2.5168,-2.6014,-2.6413,-2.6072,-2.6313,-2.6445,-2.6313,-2.6418,-2.6498,-2.6418,-2.6299,-2.634,-2.6568,-2.6433,-2.6326,-2.6274,-2.6299,-2.6165,-2.5853,-2.5688,-2.5495,-2.53,-2.4821,-2.4627,-2.4662,-2.4551,-2.436,-2.411,-2.3791,-2.3198,-2.2483,-2.2666,-2.2492,-2.2205,-2.2337,-2.2092,-2.1685,-2.1275,-2.0737,-2.0172,-1.9878,-1.9355,-1.8816,-1.8391,-1.7809,-1.7134,-1.665,-1.6204,-1.5819,-1.5605,-1.5557,-1.5425,-1.4993,-1.4665,-1.4317,-1.3908,-1.3557,-1.3324,-1.3168,-1.2931,-1.2758,-1.2594,-1.2537,-1.2523,-1.255,-1.2612,-1.2644,-1.2487,-1.2098,-1.1746,-1.1551,-1.1125,-1.0876,-1.0876,-1.1052,-1.1069,-1.0762,-1.0923,-1.0876,-1.0533,-1.0124,-0.9762,-0.9424,-0.9161,-0.8896,-0.8742,-0.8926,-0.9057,-1.4907,-1.5705,-1.6501,-1.7718,-1.8668,0.0,-2.1511,-2.1989,-2.2077,-2.2077,0.0,-2.2097,-2.2778,-2.2143,-2.1808,-2.2733,-2.2615,-2.2514,-2.2821,-2.2859,-2.336,-2.4704,-2.4436,-2.4562,-2.5589,-2.568,-2.5553,-2.5326,-2.5988,-2.6332,-2.6201,-2.6363,-2.6418,-2.6286,-2.6138,-2.6029,-2.5948,-2.6029,-2.5907,-2.555,-2.6016,-2.5989,-2.5494,-2.5522,-2.5494,-2.5439,-2.499,-2.4996,-2.5289,-2.4862,-2.489,-2.5186,-2.4671,-2.4025,-2.3396,-2.3389,-2.3032,-2.248,-2.2172,-2.1846,-2.1422,-2.0468,-1.9903,-1.9459,-1.9114,-1.8839,-1.8626,-1.8544,-1.7761,-1.6884,-1.6856,-1.6038,-1.521,-1.5193,-1.5022,-1.478,-1.446,-1.4109,-1.3834,-1.3797,-1.3652,-1.3516,-1.3348,-1.3279,-1.3134,-1.2824,-1.2628,-1.254,-1.2612,-1.2668,-1.2662,-1.2619,-1.2246,-1.2,-1.1957,-1.157,-1.1305,-1.1267,-1.1094,-1.1008,-1.0965,-1.1397,-1.1386,-1.0944,-1.0294,-0.9733,-0.9305,-0.8828,-0.8692,-0.8849,-0.8687,-0.8864,-1.4453,-1.5505,0.0,-1.7926,-1.9415,-2.0692,-2.1064,-2.1954,-2.2722,-2.2722,-2.2685,-2.2698,-2.2812,-2.2634,-2.2532,-2.2646,-2.2615,-2.2726,-2.3273,-2.3454,-2.3765,-2.4507,-2.4576,-2.463,-2.4765,-2.4694,-2.4593,-2.4543,-2.5111,-2.5414,-2.5283,-2.5962,-2.6272,-2.6138,-2.6002,-2.6029,-2.6206,-2.6029,-2.5948,-2.5962,-2.5866,-2.5716,-2.5494,-2.5619,-2.5467,-2.5103,-2.4905,-2.534,-2.6216,-2.6094,-2.6112,-2.6155,-2.5882,-2.5084,-2.3977,-2.3057,-2.2362,-2.1799,-2.1093,-2.0485,-1.9994,-1.9986,-1.9588,-1.9114,-1.9041,-1.8701,-1.8326,-1.8039,-1.7495,-1.6878,-1.6412,-1.5826,-1.529,-1.5039,-1.4796,-1.4584,-1.4253,-1.4181,-1.4088,-1.3645,-1.355,-1.349,-1.3313,-1.3058,-1.2762,-1.2595,-1.252,-1.254,-1.2612,-1.2668,-1.2583,-1.2209,-1.2209,-1.2043,-1.1478,-1.1348,-1.1219,-1.1003,-1.1132,-1.1089,-1.0776,-1.0862,-1.0776,-1.0467,-0.9946,-0.9563,-0.9305,-0.8828,-0.8636,-0.8674,-0.8794,-0.8896,-1.4061,-1.5314,0.0,-1.8985,0.0,-2.1469,-2.1787,-2.2656,-2.3287,-2.2983,-2.282,-2.2766,-2.2795,-2.2704,-2.2629,-2.2689,-2.2592,-2.2646,-2.3021,-2.3064,-2.3307,-2.395,-2.3837,-2.3755,-2.3896,-2.3851,-2.3929,-2.419,-2.4824,-2.5265,-2.5428,-2.5914,-2.6138,-2.6002,-2.5866,-2.5839,-2.5921,-2.5785,-2.5661,-2.5578,-2.5286,-2.5079,-2.4943,-2.5301,-2.5342,-2.509,-2.5033,-2.5654,-2.6708,-2.6509,-2.6751,-2.7223,-2.6749,-2.5682,-2.428,-2.3245,-2.2293,-2.1316,-2.0385,-1.9878,-1.9596,-1.9442,-1.9059,-1.8682,-1.8682,-1.8481,-1.827,-1.8166,-1.7769,-1.7225,-1.6722,-1.6104,-1.5453,-1.4994,-1.4685,-1.4469,-1.4253,-1.4145,-1.4008,-1.3572,-1.366,-1.37,-1.3525,-1.3221,-1.2955,-1.2904,-1.2684,-1.2569,-1.2631,-1.2663,-1.2619,-1.2375,-1.2295,-1.2129,-1.165,-1.1435,-1.1219,-1.1089,-1.1041,-1.0954,-1.0781,-1.0598,-1.0424,-1.0294,-0.982,-0.9515,-0.9305,-0.8818,-0.8605,-0.8594,-0.8718,-0.8804,-1.3313,-1.4919,-1.68,-1.98,-2.1096,0.0,-2.2517,-2.3221,-2.3548,-2.2981,-2.2729,-2.2652,-2.2749,-2.2583,-2.25,-2.2681,-2.256,-2.2463,-2.2509,-2.2648,-2.2923,-2.3369,-2.3117,-2.2994,-2.3225,-2.3168,-2.3275,-2.3752,-2.4572,-2.5194,-2.5583,-2.5916,-2.6029,-2.5893,-2.5757,-2.5633,-2.5578,-2.5494,-2.5341,-2.5118,-2.4696,-2.4462,-2.4395,-2.4763,-2.5022,-2.5118,-2.5118,-2.5716,-2.6693,-2.6363,-2.687,-2.7782,-2.7061,-2.59,-2.4508,-2.3436,-2.232,-2.1129,-2.0018,-1.9659,-1.9671,-1.9039,-1.8616,-1.8368,-1.8299,-1.8303,-1.8337,-1.8371,-1.8007,-1.7542,-1.7095,-1.6341,-1.558,-1.5026,-1.4649,-1.4397,-1.4341,-1.4145,-1.392,-1.3564,-1.3835,-1.4033,-1.3779,-1.3526,-1.3369,-1.3246,-1.287,-1.2612,-1.2699,-1.2705,-1.2705,-1.2705,-1.2503,-1.2252,-1.1909,-1.1478,-1.1219,-1.1305,-1.0954,-1.0776,-1.0868,-1.0559,-1.0381,-1.0294,-0.982,-0.9458,-0.9248,-0.882,-0.8602,-0.8591,-0.864,-0.8693,-1.1424,0.0,-1.6517,0.0,-2.0062,-2.1153,0.0,0.0,-2.2958,0.0,-2.2712,-2.2735,-2.2638,-2.2592,-2.2509,-2.2301,-2.2454,-2.2486,-2.2278,-2.3392,-2.3953,-2.3251,-2.3692,-2.383,-2.3188,-2.2667,-2.2386,-2.2447,-2.3681,-2.4399,-2.4331,-2.545,-2.6029,-2.5893,-2.5647,-2.5619,-2.5839,-2.5425,-2.537,-2.5578,-2.4614,-2.4367,-2.4714,-2.4143,-2.4252,-2.4835,-2.4734,-2.5052,-2.5648,-2.5915,-2.6354,-2.6831,-2.6214,-2.566,-2.4931,-2.2845,-2.1881,-2.1466,-2.0139,-1.965,-1.9547,-1.9043,-1.8859,-1.872,-1.8184,-1.8245,-1.8371,-1.792,-1.759,-1.7221,-1.6557,-1.5912,-1.5369,-1.5005,-1.4721,-1.4541,-1.4341,-1.4405,-1.4317,-1.3637,-1.3838,-1.4016,-1.3821,-1.3826,-1.3622,-1.3136,-1.2745,-1.2544,-1.2681,-1.2705,-1.2705,-1.2705,-1.2662,-1.2326,-1.1478,-1.1041,-1.0949,-1.1262,-1.1089,-1.0873,-1.0733,-1.0829,-1.0738,-1.0294,-0.982,-0.9386,-0.8956,-0.8719,-0.861,-0.8595,-0.861,-0.8658,-1.2189,-1.437,-1.6459,0.0,-2.0304,-2.1319,-2.1635,-2.2497,-2.3137,-2.277,-2.2629,-2.2583,-2.2592,-2.2615,-2.2532,-2.2347,-2.2762,-2.2885,-2.2273,-2.315,-2.3514,-2.2672,-2.2917,-2.2997,-2.2644,-2.2292,-2.223,-2.2566,-2.3409,-2.404,-2.4377,-2.5268,-2.573,-2.5674,-2.5397,-2.5272,-2.5397,-2.5033,-2.4786,-2.4572,-2.4432,-2.432,-2.4182,-2.4206,-2.4309,-2.4507,-2.445,-2.4766,-2.5302,-2.5612,-2.6093,-2.6629,-2.5937,-2.5083,-2.4073,-2.2663,-2.1482,-2.0561,-2.0088,-1.9839,-1.9667,-1.9457,-1.9245,-1.9017,-1.8769,-1.8615,-1.8498,-1.828,-1.7866,-1.7374,-1.68,-1.6209,-1.5679,-1.5171,-1.482,-1.464,-1.4807,-1.4722,-1.4501,-1.4228,-1.4125,-1.4138,-1.4172,-1.409,-1.3904,-1.3655,-1.3032,-1.2648,-1.2674,-1.2705,-1.2491,-1.1983,-1.2406,-1.2106,-1.0694,-1.0429,-1.0603,-1.1262,-1.0997,-1.0824,-1.0824,-1.0916,-1.0786,-1.0294,-0.999,-0.9593,-0.9137,-0.8903,-0.875,-0.864,-0.8638,-0.8657,0.0,0.0,-1.5493,-1.829,-1.9861,-2.0898,0.0,0.0,-2.294,0.0,-2.256,-2.2463,-2.2532,-2.2509,-2.2463,-2.237,-2.2966,-2.315,-2.2269,-2.2917,-2.3138,-2.2198,-2.2216,-2.2282,-2.2105,-2.202,-2.213,-2.2589,-2.3086,-2.367,-2.4306,-2.4873,-2.5301,-2.5494,-2.5131,-2.4977,-2.5061,-2.4778,-2.4393,-2.3938,-2.4203,-2.4161,-2.3854,-2.4118,-2.4202,-2.4118,-2.4218,-2.4531,-2.5031,-2.5283,-2.582,-2.6407,-2.548,-2.4401,-2.3269,-2.2259,-2.1083,-2.0002,-2.0137,-2.0099,-1.9959,-1.9813,-1.959,-1.9341,-1.9124,-1.8836,-1.8585,-1.8514,-1.8071,-1.7509,-1.6971,-1.6448,-1.5961,-1.5416,-1.5081,-1.4955,-1.5239,-1.5016,-1.4779,-1.4857,-1.4552,-1.4351,-1.4504,-1.4476,-1.4341,-1.413,-1.3553,-1.31,-1.304,-1.2833,-1.2412,-1.1731,-1.2069,-1.1806,-1.0429,-1.0125,-1.0386,-1.1219,-1.0862,-1.0689,-1.0916,-1.0916,-1.0738,-1.0294,-1.0081,-0.978,-0.9317,-0.9087,-0.8882,-0.8709,-0.872,-0.8717,0.0,-1.1232,0.0,-1.6008,-1.7731,-1.9119,0.0,0.0,-2.1749,-2.2303,-2.2509,-2.2555,-2.2417,-2.2301,-2.2231,-2.2208,-2.2847,-2.3007,-2.2127,-2.3136,-2.342,-2.1993,-2.2329,-2.2453,-2.1872,-2.1793,-2.1807,-2.1835,-2.2401,-2.3009,-2.3616,-2.4091,-2.4709,-2.5481,-2.5047,-2.492,-2.5202,-2.492,-2.4708,-2.4538,-2.3877,-2.3806,-2.4268,-2.3583,-2.3391,-2.3658,-2.3953,-2.4231,-2.4482,-2.4855,-2.5394,-2.579,-2.4371,-2.3653,-2.3188,-2.1417,-2.0648,-2.0464,-2.0464,-2.0508,-2.043,-1.983,-1.9742,-1.973,-1.8945,-1.8664,-1.8526,-1.8239,-1.7813,-1.7384,-1.6766,-1.637,-1.6007,-1.5585,-1.5556,-1.5578,-1.534,-1.5211,-1.5215,-1.5327,-1.5057,-1.4743,-1.4689,-1.503,-1.5048,-1.4215,-1.4165,-1.4177,-1.4051,-1.3264,-1.2662,-1.2619,-1.1854,-1.1348,-1.1219,-1.0477,-1.0386,-1.1219,-1.0689,-1.0516,-1.0965,-1.0824,-1.0598,-1.0294,-1.0081,-0.9748,-0.9301,-0.9025,-0.8819,-0.8684,-0.8686,-0.8707,0.0,0.0,0.0,-1.4531,-1.6396,-1.8077,-1.8869,-1.9901,-2.0886,-2.1654,-2.1722,-2.1729,-2.2091,-2.2254,-2.2278,-2.2114,-2.2742,-2.2915,-2.2009,-2.2721,-2.2968,-2.1928,-2.1987,-2.2042,-2.1821,-2.1722,-2.164,-2.1544,-2.2015,-2.2588,-2.3186,-2.3663,-2.4256,-2.5033,-2.4692,-2.4478,-2.4476,-2.439,-2.4345,-2.4287,-2.4019,-2.399,-2.4144,-2.3803,-2.3612,-2.3586,-2.3509,-2.3768,-2.4271,-2.4192,-2.4562,-2.5071,-2.3698,-2.2844,-2.2173,-2.1261,-2.0545,-2.0076,-2.0403,-2.0444,-2.0352,-2.013,-1.9879,-1.9657,-1.937,-1.9059,-1.8778,-1.8352,-1.8038,-1.7684,-1.7184,-1.6798,-1.6418,-1.5935,-1.6119,-1.6315,-1.5935,-1.5448,-1.5061,-1.5063,-1.4781,-1.4449,-1.4166,-1.4161,-1.4431,-1.5111,-1.4669,-1.4302,-1.4247,-1.3915,-1.35,-1.2852,-1.1887,-1.1089,-1.0521,-1.0694,-1.0873,-1.1046,-1.0809,-1.0836,-1.117,-1.0979,-1.0841,-1.0949,-1.0429,-0.9895,-0.9285,-0.919,-0.8962,-0.8626,-0.8823,-0.8819,-0.9471,0.0,0.0,0.0,-1.4886,-1.625,-1.7618,-1.8627,-1.9587,-2.0757,-2.1041,-2.1272,-2.1838,-2.2091,-2.2137,-2.1973,-2.2598,-2.278,-2.1866,-2.2574,-2.2796,-2.1784,-2.1828,-2.1883,-2.1701,-2.1544,-2.1423,-2.135,-2.1592,-2.208,-2.2884,-2.3177,-2.3708,-2.4536,-2.4392,-2.4232,-2.4083,-2.4083,-2.4083,-2.4083,-2.4083,-2.4083,-2.4037,-2.3979,-2.376,-2.3407,-2.3271,-2.3525,-2.401,-2.3729,-2.4007,-2.4434,-2.3157,-2.2279,-2.1641,-2.1188,-2.0523,-1.9984,-2.0551,-2.061,-2.0381,-2.0225,-1.9951,-1.9676,-1.9557,-1.9215,-1.8818,-1.8536,-1.8263,-1.7994,-1.7603,-1.725,-1.6951,-1.6588,-1.6709,-1.6871,-1.6542,-1.5906,-1.5321,-1.5242,-1.501,-1.4601,-1.3985,-1.3784,-1.405,-1.51,-1.5016,-1.4825,-1.4825,-1.449,-1.3921,-1.2873,-1.2188,-1.147,-1.0671,-1.0911,-1.1084,-1.1046,-1.0803,-1.083,-1.117,-1.0889,-1.0793,-1.0954,-1.0472,-0.9928,-0.9411,-0.9389,-0.9164,-0.8759,-0.8923,-0.8873,0.0,0.0,0.0,-1.2926,-1.3106,-1.3631,-1.7222,-1.7671,-1.7807,-1.9563,-2.0495,-2.1152,-2.1679,-2.1779,-2.1779,-2.1793,-2.2387,-2.2568,-2.1708,-2.2654,-2.2932,-2.1586,-2.1939,-2.2061,-2.148,-2.1291,-2.1204,-2.118,-2.1057,-2.1527,-2.2711,-2.2683,-2.3088,-2.4086,-2.4232,-2.4218,-2.4083,-2.4083,-2.4083,-2.4083,-2.4083,-2.4037,-2.3891,-2.4037,-2.3717,-2.3108,-2.33,-2.3495,-2.3641,-2.354,-2.3732,-2.3952,-2.2704,-2.2014,-2.1653,-2.1198,-2.063,-2.0262,-2.0959,-2.0915,-2.0527,-2.0059,-1.9912,-1.9833,-1.9429,-1.906,-1.8736,-1.8718,-1.8495,-1.8213,-1.7969,-1.7751,-1.7524,-1.7508,-1.7347,-1.7187,-1.7118,-1.6603,-1.606,-1.594,-1.5757,-1.5294,-1.429,-1.4151,-1.4135,-1.4135,-1.5104,-1.5784,-1.5784,-1.4921,-1.3894,-1.2843,-1.2801,-1.2565,-1.1863,-1.1122,-1.0862,-1.1262,-1.0684,-1.0511,-1.1008,-1.0554,-1.0332,-1.0337,-1.0125,-0.9864,-0.9646,-0.9624,-0.9382,-0.9023,-0.9023,-0.8875,-0.8433,0.0,0.0,0.0,0.0,0.0,-1.4138,-1.4858,-1.582,-1.7675,-1.8161,-1.8838,-2.0662,-2.1075,-2.1226,-2.1476,-2.1753,-2.1842,-2.1509,-2.1757,-2.2002,-2.2047,-2.1792,-2.1738,-2.2034,-2.152,-2.1155,0.0,-2.0985,-2.1242,-2.1969,-2.2802,-2.3495,-2.4099,-2.4141,-2.4083,-2.3949,-2.3949,-2.3878,-2.3747,-2.3747,-2.3717,-2.37,-2.348,-2.3288,-2.3065,-2.2818,-2.2721,-2.2787,-2.2989,-2.3365,-2.3746,-2.3005,-2.2511,-2.2173,-2.1781,-2.14,-2.1032,-2.0931,-2.0761,-2.0527,-2.0059,-1.9991,-2.0009,-1.9473,-1.9521,-1.9647,-1.9024,-1.9049,-1.9166,-1.8606,-1.8553,-1.8428,-1.7857,-1.7723,-1.7634,-1.7388,-1.7,-1.6652,-1.6339,-1.581,-1.5381,-1.5233,-1.5287,-1.5344,-1.5344,-1.5625,-1.5784,-1.5784,-1.4921,-1.4039,-1.3363,-1.366,-1.3338,-1.2065,-1.144,-1.117,-1.1289,-1.1128,-1.1075,-1.1214,-1.0916,-1.0777,-1.0824,-1.0429,-1.0294,-1.0381,-0.9851,-0.945,-0.9228,-0.9228,-0.9087,-0.9671,-1.0228,-1.1145,-1.1185,0.0,0.0,-1.3258,-1.3838,-1.4667,-1.6445,-1.6985,-1.7734,-1.9574,-2.017,-2.0539,-2.0962,-2.1308,-2.1496,-2.1423,-2.1616,-2.1792,-2.1925,-2.1857,-2.1792,-2.1925,-2.143,-2.1082,-2.1021,-2.0886,-2.113,-2.1825,-2.2712,-2.3425,-2.3881,-2.3907,-2.3835,-2.3789,-2.376,-2.37,-2.3509,-2.3509,-2.345,-2.3288,-2.3168,-2.2987,-2.2805,-2.2604,-2.2463,-2.2345,-2.2579,-2.2745,-2.2852,-2.2571,-2.2296,-2.2015,-2.2143,-2.1897,-2.1502,-2.1368,-2.1202,-2.0906,-2.0575,-2.0518,-2.0548,-2.0118,-2.0026,-2.0014,-1.945,-1.9402,-1.9459,-1.9036,-1.8978,-1.8921,-1.8353,-1.8165,-1.8077,-1.776,-1.7497,-1.7198,-1.6736,-1.6205,-1.5769,-1.5569,-1.5689,-1.5784,-1.5784,-1.5445,-1.535,-1.5737,-1.4921,-1.432,-1.4433,-1.3943,-1.326,-1.2371,-1.2025,-1.1768,-1.1467,-1.1373,-1.132,-1.13,-1.1086,-1.0904,-1.0868,-1.0603,-1.0467,-1.0424,-0.9994,-0.9646,-0.9432,-0.9432,-0.9301,-1.1543,-1.1591,-1.2034,-1.2567,-1.1936,0.0,-1.3503,-1.3747,-1.3987,-1.5403,-1.6159,-1.6978,-1.8262,-1.9002,-1.9556,-2.0102,-2.0806,-2.1293,-2.1385,-2.1871,-2.2009,-2.1524,-2.19,-2.1995,-2.1486,-2.1171,-2.0972,-2.0959,-2.0814,-2.1121,-2.2023,-2.2531,-2.3052,-2.3573,-2.3599,-2.3599,-2.3569,-2.3569,-2.348,-2.333,-2.3343,-2.3163,-2.2878,-2.2987,-2.2775,-2.2389,-2.2555,-2.2432,-2.2159,-2.2265,-2.2089,-2.1808,-2.191,-2.1821,-2.1677,-2.2353,-2.2266,-2.1865,-2.2039,-2.1845,-2.1497,-2.1253,-2.1191,-2.1149,-2.0929,-2.0513,-2.0053,-1.9956,-1.9704,-1.9463,-1.9335,-1.9234,-1.9196,-1.892,-1.8697,-1.8427,-1.8179,-1.7893,-1.7581,-1.7138,-1.6699,-1.625,-1.5653,-1.577,-1.592,-1.5825,-1.4921,-1.4634,-1.554,-1.4968,-1.4825,-1.5683,-1.3919,-1.2705,-1.2662,-1.2619,-1.2369,-1.1742,-1.1467,-1.1289,-1.1305,-1.1138,-1.0916,-1.0684,-1.0684,-1.0424,-0.9994,-0.9994,-0.9864,-0.9646,-0.9646,-0.9515,-1.3182,-1.3415,-1.3659,-1.2826,-1.3198,0.0,-1.1828,-1.217,-1.2894,-1.316,-1.331,-1.4056,-1.6227,-1.7122,-1.7686,-1.8172,-1.958,-2.0789,-2.1307,-2.1494,-2.1672,-2.1938,-2.1643,-2.1513,-2.1775,-2.1264,-2.0837,-2.0698,-2.0901,-2.1273,-2.19,-2.2503,-2.3052,-2.3573,-2.3599,-2.3539,-2.3433,-2.3271,-2.3138,-2.3,-2.2891,-2.28,-2.2739,-2.2604,-2.242,-2.2216,-2.2123,-2.1968,-2.1804,-2.1642,-2.1865,-2.228,-2.2295,-2.2502,-2.2748,-2.2633,-2.2666,-2.2685,-2.2258,-2.1949,-2.1689,-2.1332,-2.1071,-2.0939,-2.0702,-2.0648,-2.0625,-2.0545,-2.0345,-2.0062,-1.982,-1.9617,-1.9442,-1.9196,-1.892,-1.8604,-1.8179,-1.7707,-1.739,-1.7257,-1.6865,-1.6504,-1.6391,-1.67,-1.6723,-1.592,-1.4921,-1.4394,-1.4586,-1.5112,-1.5588,-1.5784,-1.3919,-1.2619,-1.2423,-1.2252,-1.1995,-1.1699,-1.1435,-1.1305,-1.1305,-1.1262,-1.1084,-1.0727,-1.0511,-1.025,-0.9994,-0.9994,-0.9951,-0.9907,-0.9907,-0.9777,-1.4981,-1.4817,0.0,-1.4096,-1.418,0.0,0.0,-1.2552,-1.2795,-1.3662,-1.3104,-1.3197,-1.5653,-1.605,-1.6372,-1.7525,-1.8628,-1.9466,-1.9812,-2.0338,-2.0893,-2.1379,-2.089,-2.0697,-2.1191,-2.0894,-2.0574,-2.0422,-2.0476,-2.0793,-2.138,-2.1886,-2.236,-2.2841,-2.3119,-2.318,-2.3042,-2.2951,-2.2818,-2.2665,-2.2574,-2.2525,-2.2445,-2.234,-2.2216,-2.203,-2.1925,-2.1812,-2.1667,-2.1463,-2.1614,-2.1929,-2.2262,-2.2479,-2.2621,-2.2972,-2.3051,-2.2927,-2.2553,-2.2252,-2.2022,-2.1619,-2.1361,-2.117,-2.0976,-2.0852,-2.078,-2.0757,-2.064,-2.0428,-2.0155,-1.9936,-1.9662,-1.9333,-1.9012,-1.8735,-1.8504,-1.8032,-1.7613,-1.7326,-1.7099,-1.677,-1.6305,-1.6393,-1.6393,-1.5879,-1.535,-1.5064,-1.5064,-1.5493,-1.5588,-1.5112,-1.3651,-1.2668,-1.2497,-1.2418,-1.2246,-1.2075,-1.1903,-1.1731,-1.1527,-1.1483,-1.1262,-1.0727,-1.0337,-1.0081,-0.9994,-0.9994,-0.9994,-0.9994,-0.9864,-0.982,0.0,0.0,0.0,0.0,-1.522,-1.4802,0.0,0.0,0.0,-1.4406,0.0,0.0,0.0,0.0,0.0,-1.6728,0.0,0.0,0.0,-1.8565,0.0,-2.018,-1.9884,-1.9826,-2.0326,-2.0163,-2.0064,-2.0144,-1.9915,-2.0078,-2.0799,-2.1305,-2.1727,-2.206,-2.2563,-2.28,-2.272,-2.2647,-2.2555,-2.2389,-2.2359,-2.2278,-2.2123,-2.2123,-2.203,-2.18,-2.18,-2.1718,-2.1529,-2.1368,-2.1305,-2.1322,-2.1887,-2.2128,-2.218,-2.2986,-2.3143,-2.2964,-2.274,-2.2553,-2.2326,-2.1944,-2.172,-2.1537,-2.1294,-2.1052,-2.0927,-2.0956,-2.0855,-2.069,-2.0428,-2.0201,-1.9882,-1.9479,-1.915,-1.8874,-1.8827,-1.8504,-1.8133,-1.7652,-1.7419,-1.7044,-1.6251,-1.592,-1.5784,-1.5784,-1.5784,-1.5784,-1.5784,-1.5784,-1.5493,-1.4682,-1.3473,-1.2705,-1.2705,-1.2662,-1.254,-1.2326,-1.2326,-1.216,-1.1699,-1.1564,-1.1257,-1.0727,-1.0255,-0.9994,-0.9994,-0.9994,-0.9994,-0.9994,-0.9777,-0.9777,0.0,0.0,0.0,0.0,-1.6761,-1.6653,-1.3444,0.0,-1.3821,-1.2908,0.0,0.0,0.0,0.0,0.0,0.0,0.0,0.0,-1.5653,-1.6011,-1.6841,-1.8169,-1.8663,-1.9074,-1.9498,-1.8993,-1.9024,-1.994,-1.9346,-1.9407,-2.0493,-2.137,-2.1876,-2.1925,-2.2425,-2.2708,-2.272,-2.2525,-2.242,-2.2389,-2.2278,-2.2123,-2.1925,-2.1925,-2.1757,-2.1463,-2.1463,-2.1273,-2.0999,-2.0967,-2.0903,-2.0809,-2.0996,-2.1474,-2.2091,-2.2029,-2.2449,-2.2964,-2.2553,-2.2402,-2.2326,-2.1944,-2.1808,-2.1775,-2.1339,-2.1264,-2.1383,-2.1566,-2.1284,-2.0907,-2.0699,-2.0473,-2.0155,-1.9828,-1.9463,-1.9104,-1.8874,-1.8781,-1.8689,-1.8643,-1.7893,-1.7279,-1.7138,-1.6393,-1.5784,-1.5784,-1.5784,-1.5784,-1.5784,-1.5784,-1.5778,-1.5635,-1.3875,-1.2705,-1.2705,-1.246,-1.2252,-1.2037,-1.2043,-1.1952,-1.1699,-1.1127,-1.0771,-1.0684,-1.0255,-0.9994,-0.9994,-0.9994,-0.9994,-0.9994,-0.9951,-0.9951,0.0,0.0,0.0,0.0,0.0,0.0,-1.4572,0.0,-1.3776,0.0,0.0,0.0,0.0,0.0,0.0,0.0,-1.471,0.0,0.0,0.0,-1.58,-1.7081,0.0,0.0,-1.8164,-1.8212,-1.8481,-1.9233,-1.8635,-1.8697,-1.9809,-2.0825,-2.1329,-2.1255,-2.1995,-2.234,-2.2247,-2.2061,-2.1999,-2.1999,-2.1949,-2.1886,-2.1781,-2.1781,-2.1643,-2.1388,-2.1305,-2.1287,-2.1279,-2.0931,-2.1059,-2.1475,-2.1273,-2.1408,-2.18,-2.2193,-2.2468,-2.259,-2.2176,-2.2063,-2.1953,-2.1173,-2.1023,-2.1094,-2.0866,-2.0924,-2.1131,-2.1453,-2.1195,-2.0781,-2.0518,-2.0246,-2.0019,-1.9828,-1.95,-1.9142,-1.8874,-1.8496,-1.8265,-1.8365,-1.78,-1.7091,-1.6534,-1.6062,-1.6015,-1.6581,-1.6669,-1.6669,-1.6669,-1.6157,-1.5588,-1.4968,-1.4412,-1.3787,-1.3055,-1.2851,-1.2669,-1.2423,-1.2283,-1.2203,-1.2118,-1.1429,-1.0997,-1.0901,-1.0426,-1.0123,-0.9994,-0.9994,-0.9994,-0.9994,-0.982,-0.9864,-2.0175,0.0,0.0,0.0,0.0,0.0,0.0,0.0,0.0,0.0,0.0,0.0,0.0,0.0,0.0,0.0,0.0,-1.4143,0.0,-1.4217,0.0,0.0,0.0,0.0,0.0,-1.7204,-1.7619,-1.8462,-1.7637,-1.7677,-1.8996,-1.9921,-2.0455,-2.0603,-2.1416,-2.1844,-2.1843,-2.1761,-2.1698,-2.1698,-2.1698,-2.1667,-2.1624,-2.1561,-2.1454,-2.1273,-2.1126,-2.1219,-2.1419,-2.1005,-2.1263,-2.193,-2.173,-2.1611,-2.1631,-2.2334,-2.252,-2.2327,-2.1959,-2.1765,-2.1608,-2.0791,-2.0772,-2.1015,-2.0899,-2.1013,-2.118,-2.1445,-2.1203,-2.0835,-2.0473,-2.0201,-1.9928,-1.9737,-1.9417,-1.9142,-1.8874,-1.8404,-1.8032,-1.7893,-1.7567,-1.7091,-1.6346,-1.5967,-1.6062,-1.677,-1.6904,-1.6904,-1.6904,-1.6251,-1.5397,-1.4394,-1.464,-1.4403,-1.3308,-1.3125,-1.2963,-1.2637,-1.2541,-1.2458,-1.2302,-1.1705,-1.1277,-1.0999,-1.0602,-1.0265,-0.9994,-1.0056,-1.0051,-0.9994,-0.982,-0.982,0.0,0.0,0.0,-1.8473,0.0,0.0,0.0,0.0,-1.5635,0.0,0.0,0.0,0.0,0.0,0.0,0.0,0.0,0.0,0.0,0.0,0.0,0.0,0.0,0.0,0.0,-1.5791,-1.6126,0.0,-1.6237,-1.6151,-1.8134,-1.8653,-1.9254,-2.0117,-2.0658,-2.12,-2.1698,-2.1698,-2.1698,-2.1698,-2.1698,-2.158,-2.142,-2.1285,-2.1094,-2.0903,-2.0754,-2.0872,-2.1096,-2.1085,-2.1293,-2.1671,-2.2095,-2.2042,-2.1752,-2.2169,-2.2362,-2.2327,-2.1959,-2.1671,-2.1481,-2.1251,-2.1622,-2.2097,-2.185,-2.1883,-2.1989,-2.1776,-2.1517,-2.1257,-2.0789,-2.0473,-2.011,-1.9479,-1.9242,-1.9142,-1.8874,-1.8781,-1.8504,-1.752,-1.7333,-1.7279,-1.7286,-1.644,-1.5832,-1.5825,-1.5825,-1.5825,-1.5825,-1.5825,-1.5397,-1.4394,-1.4298,-1.4014,-1.3264,-1.3125,-1.2919,-1.2423,-1.2661,-1.2558,-1.2048,-1.1818,-1.147,-1.1024,-1.0736,-1.0407,-0.9994,-1.0208,-1.0198,-0.9994,-0.9994,-0.9994,0.0,0.0,-2.1101,-1.9908,0.0,0.0,0.0,0.0,0.0,0.0,0.0,0.0,0.0,0.0,0.0,0.0,0.0,0.0,0.0,0.0,0.0,0.0,0.0,0.0,0.0,0.0,0.0,-1.6443,-1.6185,-1.655,-1.7867,-1.9018,-1.9816,-2.01,-2.0855,-2.1319,-2.1506,-2.1423,-2.136,-2.136,-2.136,-2.1502,-2.1717,-2.1211,-2.116,-2.1402,-2.0782,-2.0742,-2.1096,-2.1018,-2.1399,-2.2048,-2.2082,-2.2112,-2.2168,-2.2328,-2.22,-2.1959,-2.154,-2.1448,-2.1421,-2.0939,-2.132,-2.1878,-2.1463,-2.1357,-2.1365,-2.1275,-2.0961,-2.0572,-2.0246,-2.011,-1.9882,-1.9379,-1.9242,-1.9142,-1.8874,-1.8697,-1.852,-1.8311,-1.7753,-1.7279,-1.7279,-1.6998,-1.6574,-1.592,-1.5784,-1.5784,-1.5784,-1.5784,-1.5594,-1.5022,-1.4736,-1.4426,-1.3955,-1.3592,-1.3204,-1.2886,-1.2954,-1.2831,-1.2473,-1.2248,-1.1946,-1.1475,-1.1192,-1.0739,-1.0135,-1.0391,-1.0279,-0.9941,-1.01,-1.0125,-2.2619,-2.2334,0.0,-2.1033,-1.9858,0.0,-1.6888,0.0,-1.7092,0.0,0.0,0.0,0.0,0.0,0.0,0.0,0.0,0.0,0.0,-1.2872,0.0,0.0,0.0,0.0,0.0,0.0,-1.504,-1.5644,-1.5445,-1.5902,-1.7367,-1.8573,-1.9434,-1.9936,-2.0672,-2.1151,-2.1336,-2.1253,-2.119,-2.119,-2.119,-2.1433,-2.1883,-2.1323,-2.136,-2.1812,-2.0941,-2.093,-2.1524,-2.1257,-2.1691,-2.2517,-2.2323,-2.2311,-2.2402,-2.2327,-2.1987,-2.1561,-2.1454,-2.1531,-2.1606,-2.1262,-2.1527,-2.1957,-2.1556,-2.1379,-2.1221,-2.1042,-2.0772,-2.0464,-2.011,-1.9973,-1.9758,-1.9261,-1.919,-1.9109,-1.8714,-1.861,-1.8612,-1.8697,-1.8087,-1.752,-1.7326,-1.7279,-1.7091,-1.644,-1.6015,-1.5784,-1.5784,-1.5784,-1.5642,-1.5172,-1.5035,-1.4772,-1.4356,-1.3893,-1.3519,-1.315,-1.3274,-1.3194,-1.2732,-1.2692,-1.2331,-1.1719,-1.1515,-1.1053,-1.0339,-1.0534,-1.0434,-1.0043,-1.0138,-1.0125]},{"header":{"parameterUnit":"m.s-1","parameterCategory":1,"la1":30.6,"la2":29.2853,"lo1":-89.7004,"lo2":-87.6739,"dy":0.0162,"dx":0.0183,"nx":112,"ny":82,"refTime":"2024-05-01T12:00:00:Z","depth":0,"parameterNumber":3,"parameterNumberName":"V-component_of_WINDS"},"data":[0.0,0.0,0.0,0.0,0.0,0.0,0.0,0.0,0.0,0.0,0.0,0.0,0.0,0.0,0.0,0.0,0.0,0.0,0.0,0.0,0.0,0.0,0.0,0.0,0.0,0.0,0.0,0.0,0.0,0.0,0.0,0.0,0.0,0.0,0.0,0.0,0.0,0.0,0.0,0.0,0.0,0.0,0.0,0.0,0.0,0.0,0.0,0.0,0.0,0.0,0.0,0.0,0.0,0.0,0.0,0.0,0.0,0.0,0.0,0.0,0.0,0.0,0.0,0.0,0.0,0.0,0.0,0.0,0.0,0.0,0.0,0.0,0.0,0.0,0.0,0.0,0.0,0.0,0.0,0.0,0.0,0.0,0.0,0.0,0.0,0.0,0.0,0.0,0.0,0.0,1.5292,1.6474,1.8814,2.0111,1.9653,2.102,2.067,1.7824,0.0,0.0,0.0,0.0,0.0,0.0,0.0,0.0,0.0,0.0,0.0,0.0,0.0,0.0,0.0,0.0,0.0,0.0,0.0,0.0,0.0,0.0,0.0,0.0,0.0,0.0,0.0,0.0,0.0,0.0,0.0,0.0,0.0,0.0,0.0,0.0,0.0,0.0,0.0,0.0,0.0,0.0,0.0,0.0,0.0,0.0,0.0,0.0,0.0,0.0,0.0,0.0,0.0,0.0,0.0,0.0,0.0,0.0,0.0,0.0,0.0,0.0,0.0,0.0,0.0,0.0,0.0,0.0,0.0,0.0,0.0,0.0,0.0,0.0,0.0,0.0,0.0,0.0,0.0,0.0,0.0,0.0,0.0,0.0,0.0,0.0,0.0,0.0,0.0,0.0,0.0,0.0,0.0,0.0,0.0,0.0,0.0,0.0,0.0,0.0,0.0,0.0,0.0,0.0,1.5239,1.8102,1.9534,2.0263,2.0179,2.0678,2.0227,1.8373,0.0,0.0,0.0,0.0,0.0,0.0,0.0,0.0,0.0,0.0,0.0,0.0,0.0,0.0,0.0,0.0,0.0,0.0,0.0,0.0,0.0,0.0,0.0,0.0,0.0,0.0,0.0,0.0,0.0,0.0,0.0,0.0,0.0,0.0,0.0,0.0,0.0,0.0,0.0,0.0,0.0,0.0,0.0,0.0,0.0,0.0,0.0,0.0,0.0,0.0,0.0,0.0,0.0,0.0,0.0,0.0,0.0,0.0,0.0,0.0,0.0,0.0,0.0,0.0,0.0,0.0,0.0,0.0,0.0,0.0,0.0,0.0,0.0,0.0,0.0,0.0,0.0,0.0,0.0,0.0,0.0,0.0,0.0,0.0,0.0,0.0,0.0,0.0,0.0,0.0,0.0,0.0,0.0,0.0,0.0,0.0,0.0,0.0,0.0,0.0,0.0,0.0,0.0,1.3771,1.5458,1.8281,1.9454,1.992,1.963,2.0238,1.9786,1.7775,1.6217,0.0,0.0,0.0,0.0,0.0,0.0,0.0,0.0,0.0,0.0,0.0,0.0,0.0,0.0,0.0,0.0,0.0,0.0,0.0,0.0,0.0,0.0,0.0,0.0,0.0,0.0,0.0,0.0,0.0,0.0,0.0,0.0,0.0,0.0,0.0,0.0,0.0,0.0,0.0,0.0,0.0,0.0,0.0,0.0,0.0,0.0,0.0,0.0,0.0,0.0,0.0,0.0,0.0,0.0,0.0,0.0,0.0,0.0,0.0,0.0,0.0,0.0,0.0,0.0,0.0,0.0,0.0,0.0,0.0,0.0,0.0,0.0,0.0,0.0,0.0,0.0,0.0,0.0,0.0,0.0,0.0,0.0,0.0,0.0,0.0,0.0,0.0,0.0,0.0,0.0,0.0,0.0,0.0,0.0,0.0,0.0,0.0,0.0,0.0,0.0,0.0,0.0,1.5453,1.6058,1.8133,1.9059,1.9435,1.9254,1.9658,1.915,1.7396,1.5447,0.0,0.0,0.0,0.0,0.0,0.0,0.0,0.0,0.0,0.0,0.0,0.0,0.0,0.0,0.0,0.0,0.0,0.0,0.0,0.0,0.0,0.0,0.0,0.0,0.0,0.0,0.0,0.0,0.0,0.0,0.0,0.0,0.0,0.0,0.0,0.0,0.0,0.0,0.0,0.0,0.0,0.0,0.0,0.0,0.0,0.0,0.0,0.0,0.0,0.0,0.0,0.0,0.0,0.0,0.0,0.0,0.0,0.0,0.0,0.0,0.0,0.0,0.0,0.0,0.0,0.0,0.0,0.0,0.0,0.0,0.0,0.0,0.0,0.0,0.0,0.0,0.0,0.0,0.0,0.0,0.0,0.0,0.0,0.0,0.0,0.0,0.0,0.0,0.0,0.0,0.0,0.0,0.0,0.0,0.0,0.0,0.0,0.0,0.0,0.0,0.0,0.0,1.6076,1.727,1.8118,1.8498,1.9024,1.9871,1.8843,1.8163,1.8121,1.5099,0.0,0.0,0.0,0.0,0.0,0.0,0.0,0.0,0.0,0.0,0.0,0.0,0.0,0.0,0.0,0.0,0.0,0.0,0.0,0.0,0.0,0.0,0.0,0.0,0.0,0.0,0.0,0.0,0.0,0.0,0.0,0.0,0.0,0.0,0.0,0.0,0.0,0.0,0.0,0.0,0.0,0.0,0.0,0.0,0.0,0.0,0.0,0.0,0.0,0.0,0.0,0.0,0.0,0.0,0.0,0.0,0.0,0.0,0.0,0.0,0.0,0.0,0.0,0.0,0.0,0.0,0.0,0.0,0.0,0.0,0.0,0.0,0.0,0.0,0.0,0.0,0.0,0.0,0.0,0.0,0.0,0.0,0.0,0.0,0.0,0.0,0.0,0.0,0.0,0.0,0.0,0.0,0.0,0.0,0.0,0.0,0.0,0.0,0.0,0.0,0.0,0.0,1.5556,1.6688,0.0,1.8256,1.8612,1.9087,1.8866,1.8307,1.7375,0.0,0.0,0.0,0.0,0.0,0.0,0.0,0.0,0.0,0.0,0.0,0.0,0.0,0.0,0.0,0.0,0.0,0.0,0.0,0.0,0.0,0.0,0.0,0.0,0.0,0.0,0.0,0.0,0.0,0.0,0.0,0.0,0.0,0.0,0.0,0.0,0.0,0.0,0.0,0.0,0.0,0.0,0.0,0.0,0.0,0.0,0.0,0.0,0.0,0.0,0.0,0.0,0.0,0.0,0.0,0.0,0.0,0.0,0.0,0.0,0.0,0.0,0.0,0.0,0.0,0.0,0.0,0.0,0.0,0.0,0.0,0.0,0.0,0.0,0.0,0.0,0.0,0.0,0.0,0.0,0.0,0.0,0.0,0.0,0.0,0.0,0.0,0.0,0.0,0.0,0.0,0.0,0.0,0.0,0.0,0.0,0.0,0.0,0.0,0.0,0.0,0.0,1.4321,1.5661,1.6813,0.0,1.8381,1.8778,1.8947,1.903,1.8442,1.6896,0.0,0.0,0.0,0.0,0.0,0.0,0.0,0.0,0.0,0.0,0.0,0.0,0.0,0.0,0.0,0.0,0.0,0.0,0.0,0.0,0.0,0.0,0.0,0.0,0.0,0.0,0.0,0.0,0.0,0.0,0.0,0.0,0.0,0.0,0.0,0.0,0.0,0.0,0.0,0.0,0.0,0.0,0.0,0.0,0.0,0.0,0.0,0.0,0.0,0.0,0.0,0.0,0.0,0.0,0.0,0.0,0.0,0.0,0.0,0.0,0.0,0.0,0.0,0.0,0.0,0.0,0.0,0.0,0.0,0.0,0.0,0.0,0.0,0.0,0.0,0.0,0.0,0.0,0.0,0.0,0.0,0.0,0.0,0.0,0.0,0.0,0.0,0.0,0.0,0.0,0.0,0.0,0.0,0.0,0.0,0.0,0.0,0.0,0.0,0.0,0.0,0.0,1.4538,1.664,1.8009,1.7822,1.8879,1.9612,1.9686,1.9327,1.8445,0.0,0.0,0.0,0.0,0.0,0.0,0.0,0.0,0.0,0.0,0.0,0.0,0.0,0.0,0.0,0.0,0.0,0.0,0.0,0.0,0.0,0.0,0.0,0.0,0.0,0.0,0.0,0.0,0.0,0.0,0.0,0.0,0.0,0.0,0.0,0.0,0.0,0.0,0.0,0.0,0.0,0.0,0.0,0.0,0.0,0.0,0.0,0.0,0.0,0.0,0.0,0.0,0.0,0.0,0.0,0.0,0.0,0.0,0.0,0.0,0.0,0.0,0.0,0.0,0.0,0.0,0.0,0.0,0.0,0.0,0.0,0.0,0.0,0.0,0.0,0.0,0.0,0.0,0.0,0.0,0.0,0.0,0.0,0.0,0.0,0.0,0.0,0.0,0.0,0.0,0.0,0.0,0.0,0.0,0.0,0.0,0.0,0.0,0.0,0.0,0.0,0.0,0.0,1.5303,1.7003,1.8009,1.7822,1.8331,1.8682,1.8713,1.8941,1.8206,1.6082,0.0,0.0,0.0,0.0,0.0,0.0,0.0,0.0,0.0,0.0,0.0,0.0,0.0,0.0,0.0,0.0,0.0,0.0,0.0,0.0,0.0,0.0,0.0,0.0,0.0,0.0,0.0,0.0,0.0,0.0,0.0,0.0,0.0,0.0,0.0,0.0,0.0,0.0,0.0,0.0,0.0,0.0,0.0,0.0,0.0,0.0,0.0,0.0,0.0,0.0,0.0,0.0,0.0,0.0,0.0,0.0,0.0,0.0,0.0,0.0,0.0,0.0,0.0,0.0,0.0,0.0,0.0,0.0,0.0,0.0,0.0,0.0,0.0,0.0,0.0,0.0,0.0,0.0,0.0,0.0,0.0,0.0,0.0,0.0,0.0,0.0,0.0,0.0,0.0,0.0,0.0,0.0,0.0,0.0,0.0,0.0,0.0,0.0,0.0,0.0,0.0,0.0,1.5509,1.7311,1.8495,1.8638,1.9196,1.9471,1.9198,1.9642,1.8758,1.6008,0.0,0.0,0.0,0.0,0.0,0.0,0.0,0.0,0.0,0.0,0.0,0.0,0.0,0.0,0.0,0.0,0.0,0.0,0.0,0.0,0.0,0.0,0.0,0.0,0.0,0.0,0.0,0.0,0.0,0.0,0.0,0.0,0.0,0.0,0.0,0.0,0.0,0.0,0.0,0.0,0.0,0.0,0.0,0.0,0.0,0.0,0.0,0.0,0.0,0.0,0.0,0.0,0.0,0.0,0.0,0.0,0.0,0.0,0.0,0.0,0.0,0.0,0.0,0.0,0.0,0.0,0.0,0.0,0.0,0.0,0.0,0.0,0.0,0.0,0.0,0.0,0.0,0.0,0.0,0.0,0.0,0.0,0.0,0.0,0.0,0.0,0.0,0.0,0.0,0.0,0.0,0.0,0.0,0.0,0.0,0.0,0.0,0.0,0.0,0.0,0.0,0.0,1.5462,1.7602,1.9251,1.9845,2.0819,2.1162,2.0529,2.0845,1.9723,1.6518,0.0,0.0,0.0,0.0,0.0,0.0,0.0,0.0,0.0,0.0,0.0,0.0,0.0,0.0,0.0,0.0,0.0,0.0,0.0,0.0,0.0,0.0,0.0,0.0,0.0,0.0,0.0,0.0,0.0,0.0,0.0,0.0,0.0,0.0,0.0,0.0,0.0,0.0,0.0,0.0,0.0,0.0,0.0,0.0,0.0,0.0,0.0,0.0,0.0,0.0,0.0,0.0,0.0,0.0,0.0,0.0,0.0,0.0,0.0,0.0,1.5207,0.0,0.0,0.0,0.0,0.0,0.0,0.0,0.0,0.0,0.0,0.0,0.0,0.0,0.0,0.0,0.0,0.0,0.0,0.0,0.0,0.0,0.0,0.0,0.0,0.0,0.0,0.0,0.0,0.0,0.0,0.0,0.0,0.0,0.0,0.0,0.0,0.0,0.0,0.0,0.0,0.0,1.6332,1.8096,1.9358,1.9917,2.0423,2.0597,2.0364,2.0248,1.9331,1.7347,1.5238,0.0,0.0,0.0,0.0,0.0,0.0,0.0,0.0,0.0,0.0,0.0,0.0,0.0,0.0,0.0,0.0,0.0,0.0,0.0,0.0,0.0,0.0,0.0,0.0,0.0,0.0,0.0,0.0,0.0,0.0,0.0,0.0,0.0,0.0,0.0,0.0,0.0,0.0,0.0,0.0,0.0,0.0,0.0,0.0,0.0,0.0,0.0,0.0,0.0,0.0,0.0,0.0,0.0,0.0,0.0,0.0,0.0,0.0,0.0,0.0,1.6206,0.0,0.0,0.0,0.0,0.0,0.0,0.0,0.0,0.0,0.0,0.0,0.0,0.0,0.0,0.0,0.0,0.0,0.0,0.0,0.0,0.0,0.0,0.0,0.0,0.0,0.0,0.0,0.0,0.0,0.0,0.0,0.0,0.0,0.0,0.0,0.0,0.0,0.0,0.0,0.0,1.6878,1.859,1.9937,2.0864,2.1198,2.1387,2.1396,2.1062,2.0194,1.8609,1.6908,0.0,0.0,0.0,0.0,0.0,0.0,0.0,0.0,0.0,0.0,0.0,0.0,0.0,0.0,0.0,0.0,0.0,0.0,0.0,0.0,0.0,0.0,0.0,0.0,0.0,0.0,0.0,0.0,0.0,0.0,0.0,0.0,0.0,0.0,0.0,0.0,0.0,0.0,0.0,0.0,0.0,0.0,0.0,0.0,0.0,0.0,0.0,0.0,0.0,0.0,0.0,0.0,0.0,2.0329,2.0765,2.0746,2.1647,2.2095,2.2009,1.9367,1.8933,1.983,1.6784,0.0,0.0,0.0,0.0,0.0,0.0,0.0,0.0,0.0,0.0,0.0,0.0,0.0,0.0,0.0,0.0,0.0,0.0,0.0,0.0,0.0,0.0,1.8511,1.8998,1.9679,1.901,1.4625,0.0,0.0,0.0,0.0,0.0,0.0,0.0,0.0,0.0,0.0,0.0,1.7409,1.9076,2.055,2.1891,2.213,2.2293,2.2579,2.2091,2.1204,1.9928,1.8663,1.6538,0.0,0.0,0.0,0.0,0.0,0.0,0.0,0.0,0.0,0.0,0.0,0.0,0.0,0.0,0.0,0.0,0.0,0.0,0.0,0.0,0.0,0.0,0.0,0.0,0.0,0.0,0.0,0.0,0.0,0.0,0.0,0.0,1.0761,1.1774,0.0,0.0,0.0,0.0,0.0,0.0,0.0,0.0,0.0,0.0,0.0,0.0,0.0,1.9399,1.9874,2.1713,2.2566,2.2432,2.3437,2.3943,2.3994,2.4183,2.4306,2.4347,2.375,0.0,2.0275,1.9213,0.0,0.0,0.0,0.0,0.0,0.0,0.0,0.0,0.0,0.0,0.0,0.0,0.0,0.0,0.0,0.0,0.0,0.0,0.0,0.0,0.0,0.0,2.1668,2.096,2.0875,2.0491,1.877,1.721,1.5757,1.4439,1.3192,1.223,0.0,0.0,0.0,0.0,0.0,0.0,1.8362,1.9568,2.07,2.2029,2.1869,2.1945,2.2541,2.1739,2.1097,2.0831,1.9406,1.7755,1.5897,1.3715,0.0,0.0,0.0,0.0,0.0,0.0,0.0,0.0,0.0,0.0,0.0,0.0,0.0,0.0,0.0,0.0,0.0,0.0,0.0,0.0,0.0,0.0,0.0,0.0,0.0,0.0,0.0,0.0,0.0,1.0437,1.2348,1.2564,1.2756,1.2473,0.0,0.0,0.0,0.0,0.0,0.0,0.0,0.0,0.0,1.9213,2.0601,2.1754,2.2637,2.3949,2.4758,2.5047,2.6038,2.6526,2.6507,2.6772,2.691,2.6927,2.6824,2.5899,2.4223,2.2002,2.0278,1.8919,0.0,0.0,0.0,0.0,1.8484,1.8155,2.0508,2.049,1.9433,1.9469,0.0,0.0,0.0,0.0,0.0,0.0,0.0,1.9543,2.0878,2.1819,2.2446,2.2489,2.2449,2.2114,2.1096,2.0124,1.8631,1.5838,1.543,1.4836,1.2537,1.226,0.0,0.0,0.0,1.6095,1.853,1.957,2.0463,2.1423,2.1462,2.1614,2.2065,2.1417,2.1004,2.104,2.0026,1.869,1.7046,1.5638,1.3846,0.0,0.0,0.0,0.0,0.0,0.0,0.0,0.0,0.0,0.0,0.0,0.0,0.0,0.0,0.0,0.0,0.0,0.0,0.0,0.0,0.0,0.0,0.0,0.0,0.0,0.0,0.0,0.0,1.1852,1.3746,1.3727,1.4473,1.4505,0.0,0.0,0.0,0.0,0.0,0.0,1.7662,1.8984,2.0336,2.1754,2.273,2.3654,2.4486,2.5467,2.6115,2.639,2.7158,2.755,2.755,2.7907,2.8099,2.8151,2.8391,2.8175,2.7409,2.4633,2.315,2.2582,2.2042,2.1162,2.0407,2.1938,2.2038,2.1736,2.3967,2.4096,2.3208,2.2795,2.1802,2.037,1.8404,0.0,0.0,0.0,0.0,2.0968,2.3057,2.3372,2.3299,2.3956,2.3981,2.3652,2.3009,2.2753,2.1538,1.77,1.7707,1.7339,1.4121,1.4079,0.0,0.0,0.0,1.7282,1.9171,1.9909,2.0533,2.1238,2.1338,2.1511,2.192,2.1482,2.1223,2.1313,2.0804,1.9773,1.8154,1.7442,1.5993,1.3637,0.0,0.0,0.0,0.0,0.0,0.0,0.0,0.0,0.0,0.0,0.0,0.0,0.0,0.0,0.0,0.0,0.0,0.0,0.0,0.0,0.0,0.0,0.0,0.0,0.0,0.0,0.0,0.0,0.0,1.5842,1.6495,0.0,0.0,0.0,0.0,1.6227,1.799,1.956,2.0735,2.1451,2.2503,2.3899,2.4624,2.4893,2.4772,2.6026,2.6344,2.5738,2.5915,2.6116,2.6294,2.6577,2.6769,2.6931,2.7827,2.8129,2.7889,2.6818,2.6048,2.5431,2.4834,2.4709,2.4979,2.5959,2.5865,2.5398,2.6611,2.5924,2.4653,2.5582,2.4192,2.211,2.1737,2.1183,0.0,0.0,2.2999,2.4456,2.5482,2.5453,2.5208,2.5451,2.5248,2.4997,2.4958,2.4844,2.3871,2.094,1.9654,1.8722,1.7693,0.0,1.7729,1.7591,1.8404,1.9525,2.0899,2.1049,2.1329,2.2062,2.174,2.1794,2.2591,2.2216,2.1954,2.196,2.1861,2.1176,1.9741,1.8853,1.7735,1.6322,1.3909,0.0,0.0,0.0,0.0,0.0,0.0,0.0,0.0,0.0,0.0,0.0,0.0,0.0,0.0,0.0,0.0,0.0,0.0,0.0,0.0,0.0,0.0,0.0,0.0,0.0,0.0,0.0,0.0,1.796,1.8874,0.0,1.7738,1.7991,1.8578,1.9441,2.0334,2.1356,2.2551,2.3277,2.4038,2.4849,2.5481,2.5911,2.6152,2.6604,2.6727,2.6543,2.7148,2.7382,2.732,2.811,2.8554,2.8756,2.9048,2.9204,2.9265,2.8927,2.8035,2.6978,2.7652,2.739,2.6795,2.7786,2.807,2.8017,2.851,2.8215,2.7518,2.6895,2.6065,2.5235,2.4754,2.4414,2.4224,2.4408,2.4876,2.5369,2.559,2.5407,2.522,2.5365,2.5122,2.4876,2.5014,2.4956,2.4571,2.3519,2.2535,2.1288,1.9462,1.9617,1.9617,1.849,1.9079,1.9997,2.0941,2.1022,2.1096,2.1409,2.1402,2.1533,2.1902,2.0976,2.0633,2.118,2.0308,1.9568,1.9114,1.8884,1.8244,1.7159,1.5895,1.3775,0.0,0.0,0.0,0.0,0.0,0.0,0.0,0.0,0.0,0.0,0.0,0.0,0.0,0.0,0.0,0.0,0.0,0.0,0.0,0.0,0.0,0.0,0.0,0.0,0.0,0.0,1.8797,1.9219,2.0511,2.1019,2.0093,2.0562,2.1292,2.2145,2.2806,2.3533,2.439,2.4874,2.5201,2.5391,2.5986,2.6302,2.6315,2.6789,2.6919,2.682,2.7422,2.7679,2.7604,2.8439,2.8901,2.9102,2.9435,2.9681,2.9842,2.9995,2.9502,2.8751,2.9739,2.9679,2.9081,2.9782,2.9992,2.9897,2.9833,2.974,2.9478,2.8503,2.7972,2.7602,2.6918,2.6616,2.6441,2.6158,2.6202,2.6329,2.6302,2.6044,2.586,2.6011,2.5697,2.5437,2.5624,2.555,2.5442,2.5441,2.4345,2.289,2.1278,2.1504,2.1389,1.9993,2.0565,2.1188,2.1328,2.1306,2.1278,2.1306,2.1529,2.1617,2.1439,2.0702,2.0366,2.0638,1.9496,1.8858,1.898,1.8782,1.8474,1.7986,1.6491,1.4193,1.1092,0.0,0.0,0.0,0.0,0.0,0.0,0.0,0.0,0.0,0.0,0.0,0.0,0.0,0.0,0.0,0.0,0.0,0.0,0.0,0.0,0.0,0.0,0.0,1.5508,1.7862,1.9591,1.9703,2.1381,2.2217,2.1381,2.3015,2.4149,2.4242,2.5332,2.607,2.6251,2.6161,2.5963,2.5625,2.6195,2.61,2.5261,2.6522,2.6908,2.6396,2.6544,2.6738,2.6994,2.7287,2.7543,2.7781,2.8821,2.9373,2.9515,2.9995,3.038,3.0712,3.1072,3.1502,3.1912,3.2055,3.169,3.1076,3.0608,3.0422,3.0389,3.0499,2.9953,2.9121,2.8251,2.7798,2.7475,2.689,2.7078,2.7515,2.7766,2.7524,2.7261,2.745,2.7069,2.6758,2.6958,2.6742,2.6537,2.6674,2.4949,2.3416,2.3279,2.3371,2.3163,2.2286,2.2977,0.0,2.2159,2.2015,2.1969,2.1897,2.2206,2.2085,2.1347,2.1523,2.1265,2.0393,1.9562,1.9211,1.9414,1.8683,1.8452,1.8834,1.5684,1.2761,1.0184,0.0,0.0,0.0,0.0,0.0,0.0,0.0,0.0,0.0,0.0,0.0,0.0,0.0,0.0,0.0,0.0,0.0,0.0,0.0,0.0,0.0,1.595,1.7807,1.868,1.9914,2.1085,2.2029,2.2919,2.3506,2.3655,2.4073,2.4575,2.5168,2.5575,2.5725,2.5585,2.5986,2.6094,2.5825,2.641,2.6612,2.636,2.6735,2.6626,2.6109,2.6731,2.6966,2.6874,2.7522,2.8016,2.8365,2.8701,2.9006,2.9236,2.957,2.9946,3.0401,3.1137,3.1596,3.1838,3.2037,3.2022,3.1882,3.174,3.1788,3.1816,3.1363,3.1107,3.0815,3.0136,2.9846,2.9704,2.955,2.913,2.8684,2.8622,2.791,2.7197,2.7214,2.6908,2.6657,2.6758,2.6623,2.6502,2.6537,2.5514,2.4629,2.4662,2.4727,2.4477,2.3615,2.3308,0.0,2.2701,2.2232,2.194,2.1969,2.2192,2.1989,2.1147,2.0777,2.0023,1.8597,1.7941,1.7669,1.784,1.7613,1.7586,1.7735,1.572,1.3759,0.0,0.0,0.0,0.0,0.0,0.0,0.0,0.0,0.0,0.0,0.0,0.0,0.0,0.0,0.0,0.0,0.0,0.0,0.0,0.0,0.0,0.0,1.7929,1.9779,2.1233,2.1644,2.2065,2.2808,2.3305,2.3813,2.4372,2.4522,2.4926,2.5782,2.6016,2.6051,2.5893,2.5956,2.597,2.5899,2.604,2.6227,2.642,2.6513,2.6498,2.6342,2.7076,2.7414,2.745,2.8186,2.8732,2.9077,2.9237,2.9443,2.9711,2.999,3.0389,0.0,0.0,0.0,0.0,0.0,3.2351,3.2197,3.2161,3.2336,3.2486,3.2094,3.2032,3.2016,3.1354,3.1091,3.0962,3.0716,2.9876,2.9047,2.8951,2.839,2.7708,2.7219,2.7401,2.7521,2.6843,2.6842,2.6871,2.6569,2.5979,0.0,2.561,2.5396,2.4946,2.4116,2.3716,2.3248,2.2525,2.2121,2.1897,2.1928,2.2075,2.1698,2.0545,2.0238,0.0,0.0,0.0,1.6948,1.7107,1.7519,0.0,0.0,0.0,1.5328,1.4065,1.3572,0.0,0.0,1.2112,1.2672,0.0,0.0,0.0,0.0,0.0,0.0,0.0,0.0,0.0,0.0,0.0,0.0,0.0,0.0,0.0,0.0,1.9564,2.109,2.3003,2.2867,2.2581,2.2623,2.2972,2.3488,2.4162,2.4534,2.5164,2.6142,2.6468,2.663,2.6604,0.0,0.0,0.0,0.0,2.5505,2.6019,2.6206,2.6517,2.697,2.7436,2.7888,2.8335,2.8941,2.9387,2.9684,2.9936,3.021,3.048,3.076,3.1257,3.183,3.1874,3.2127,3.2499,3.2794,3.2598,3.2177,3.2141,0.0,0.0,3.2539,3.2672,3.2709,3.2076,3.1803,3.1582,3.1076,3.0097,2.9204,2.9246,2.9041,2.858,2.7579,2.8288,2.8782,2.725,2.7347,2.7542,2.687,2.6511,2.6318,2.6318,2.569,2.4978,2.4348,2.4264,2.3747,2.2242,2.2038,2.1969,2.1797,0.0,0.0,1.9937,2.0004,1.9453,1.7906,1.7208,1.6874,1.6976,1.7925,1.8009,1.7087,1.7254,1.6941,1.6072,1.6227,1.6371,1.648,1.43,1.46,0.0,0.0,0.0,0.0,0.0,0.0,0.0,0.0,0.0,0.0,0.0,0.0,0.0,0.0,0.0,1.9315,2.0621,2.1729,2.2818,2.2667,2.2536,2.2812,2.2786,2.3161,2.4263,2.4369,2.4926,2.6199,2.624,2.6165,2.6056,2.5821,2.5713,2.5757,2.5754,2.6088,2.6764,2.6475,2.684,2.7925,0.0,0.0,2.8393,2.8635,2.8972,2.9387,2.9657,2.9936,3.0199,3.0572,3.1482,3.2571,3.2482,3.2618,3.289,3.2959,3.2613,3.213,3.2293,3.217,3.1983,3.2144,3.2301,3.242,3.238,3.2345,0.0,3.2328,3.1677,3.0981,3.0882,3.0233,2.9483,2.9059,2.904,2.8999,2.8495,2.8453,2.841,2.8165,2.7555,2.7083,2.7083,2.6343,2.5763,2.5843,2.5226,2.448,2.3686,2.3072,2.2443,2.1789,2.184,2.1532,2.0597,2.0693,2.0148,1.8603,1.798,1.7439,1.6935,1.7721,1.7762,1.6884,1.706,1.6737,1.5864,1.6159,1.6698,1.7436,1.708,1.7539,0.0,0.0,0.0,0.0,0.0,0.0,0.0,0.0,0.0,0.0,0.0,1.4156,1.5666,0.0,1.9187,2.0533,2.1711,2.2509,2.2632,2.2379,2.2324,2.2609,2.2724,2.3124,2.4055,2.4308,2.4843,2.5918,2.588,2.5785,2.5702,2.5259,2.5135,2.5439,2.5204,2.5578,2.6537,2.647,2.6905,2.7835,2.785,2.8137,2.8668,2.9042,2.9479,2.9971,3.0156,3.0466,3.084,3.1355,3.1981,3.2583,3.2457,3.2842,3.3467,3.3605,3.3325,3.2927,3.2971,3.3073,3.3164,3.3147,3.3034,3.2897,3.2967,3.2738,3.2473,3.2573,3.2008,3.1342,3.1259,3.0813,3.0178,2.9541,2.9881,3.0096,2.9165,2.9188,2.9246,2.8766,2.7948,2.7319,2.7207,2.643,2.5752,2.5622,2.5171,2.4624,2.3934,2.3177,2.2554,2.2192,2.1907,2.1455,2.0711,2.0508,2.0079,1.9299,1.9084,1.887,1.8563,1.9001,1.9069,1.8652,1.8818,1.8714,1.8351,1.8658,1.9085,1.9623,2.0219,2.0543,0.0,0.0,0.0,0.0,0.0,0.0,0.0,0.0,1.3089,1.3856,1.4892,1.6177,1.7852,1.9639,2.1001,2.1465,2.2466,2.2945,2.2339,2.2044,2.1949,2.2137,2.253,2.3086,2.3832,2.4212,2.475,2.5522,2.5453,2.5411,2.5411,2.4846,2.4735,2.5225,2.4913,2.5268,2.6403,2.6599,2.7063,2.7799,2.8177,2.858,2.8947,2.9473,3.0007,3.0507,3.0762,3.1102,3.1537,3.2048,3.2315,3.2364,3.2421,3.2997,3.3855,3.4051,3.3943,3.3689,3.3706,3.3976,3.4293,3.4179,3.3936,3.3687,3.3686,3.3265,3.2792,3.2668,3.2159,3.1616,3.1441,3.127,3.0924,3.0075,3.0724,3.1162,2.9765,2.9909,3.0068,2.9295,2.8423,2.7722,2.7382,2.6534,2.5742,2.5235,2.5049,2.4733,2.403,2.3357,2.2834,2.2589,2.2098,2.1521,2.0914,2.0497,2.023,2.0105,2.0242,2.0288,2.0208,2.0293,2.0382,2.0447,2.0587,2.0716,2.0826,2.1105,2.1324,2.1469,2.2355,2.2585,1.1081,1.2509,1.4065,1.4732,1.4892,1.5325,0.0,0.0,1.5961,1.7057,1.7678,1.8383,1.9607,2.0839,2.1679,2.1767,2.2335,2.2508,2.1794,2.1568,2.1423,2.135,2.1955,2.2768,2.3811,2.4055,2.4395,2.5021,2.5061,2.5075,2.5075,2.5193,2.5328,2.5394,2.5942,2.6658,2.7501,2.7124,2.7621,2.8923,2.8453,2.8509,2.9097,2.9251,2.9654,3.019,3.0791,3.1234,3.1508,3.1695,3.1951,3.2287,3.3066,3.3427,3.3528,3.3429,3.3508,3.3657,3.4002,3.3938,3.3734,3.388,3.4148,3.4384,3.4324,3.4274,3.4121,3.3348,3.3194,3.3055,3.2302,3.2039,3.1916,3.1669,3.1479,3.1242,3.0875,3.0946,3.092,3.0418,2.9782,2.9068,2.8226,2.7303,2.6542,2.6115,2.5786,2.5433,2.4921,2.4618,2.3924,2.2573,2.2411,2.2227,2.1788,2.1848,2.17,2.1172,2.116,2.0879,2.0226,2.0221,2.0226,2.0228,2.0423,2.053,2.0558,2.0869,2.1138,2.1326,2.152,2.2145,1.3725,1.4658,1.5433,1.6067,1.6448,1.687,1.767,1.7614,1.7623,1.8436,1.9287,1.998,2.0381,2.1437,2.2127,0.0,2.2098,2.2301,2.1957,2.1419,2.1209,2.1668,2.2088,2.2472,2.2724,2.342,2.3984,2.4226,2.4562,2.4897,2.5217,2.5325,2.5558,2.5921,2.6222,2.676,2.7521,2.7447,2.7884,2.8812,2.8629,2.8724,2.9099,2.9149,2.9526,3.0127,3.0806,3.1161,3.1292,3.1611,3.1556,3.1291,3.2162,3.2505,3.2635,3.3722,3.4222,3.4412,3.4724,3.4863,3.4925,3.5204,3.516,3.5031,3.5126,3.4907,3.4527,3.4192,3.4233,3.4217,3.3301,3.3073,3.2897,3.2089,3.1747,3.1504,3.1235,3.1215,3.1137,3.0794,3.0212,2.9591,2.894,2.7755,2.688,2.6737,2.6143,2.5658,2.5542,2.4973,2.4197,2.3139,2.3243,2.3308,2.3153,2.2953,2.276,2.2539,2.218,2.1886,2.161,2.167,2.1708,2.17,2.1801,2.192,2.2071,2.2247,2.2482,2.2767,2.2866,2.3253,1.5304,1.6125,1.6798,1.7199,1.7729,1.82,1.8298,1.8341,1.8544,1.9239,1.9893,2.0342,2.0384,2.137,2.1983,2.1274,2.1805,2.2216,2.1914,2.135,2.1159,2.174,2.1964,2.1969,2.1746,2.3029,2.3773,2.3586,2.4319,2.4901,2.5253,2.5584,2.5955,2.641,2.66,2.7018,2.7605,2.7777,2.8089,2.8509,2.8619,2.883,2.9136,2.9449,2.9885,3.0438,3.087,3.1129,3.1294,3.1556,3.1341,3.0932,3.1793,3.2123,3.2275,3.394,3.4643,3.4828,3.5105,3.5412,3.5756,3.6088,3.5977,3.5729,3.5948,3.57,3.5232,3.4755,3.4798,3.4783,3.3864,3.3653,3.3459,3.2544,3.2241,3.2004,3.1423,3.1334,3.1293,3.0955,3.0519,3.0023,2.9486,2.8415,2.7599,2.75,2.6674,2.6057,2.595,2.5152,2.4393,2.3888,2.3917,2.4,2.4033,2.3589,2.3334,2.3451,2.2855,2.2542,2.2619,2.2725,2.2777,2.2803,2.2803,2.2914,2.318,2.3265,2.3452,2.3785,2.3896,2.4185,1.4977,1.6593,1.8394,1.8305,1.8805,1.9446,1.9855,1.9196,1.8749,1.9592,1.9349,1.908,1.9467,2.0462,2.097,2.0181,2.1494,2.2285,2.1445,2.1302,2.125,2.113,2.1142,2.1183,0.0,2.3124,2.3984,2.3263,2.4429,2.5103,2.4922,2.6039,2.6667,2.668,2.738,2.7848,2.8085,2.8222,2.8274,2.832,2.832,2.861,2.9235,3.0342,3.0968,3.1168,3.1059,3.1262,3.1668,3.1427,3.1496,3.184,3.2637,3.2891,3.2879,3.379,3.43,3.4546,3.4828,3.5142,3.547,3.5888,3.6216,3.6509,3.6713,3.6856,3.6582,3.4882,3.4558,3.4512,3.3632,3.3421,3.3404,3.3368,3.3186,3.2736,3.1545,3.1449,3.1447,3.0975,3.0955,3.0667,2.9749,2.94,2.9059,2.8543,2.7659,2.6815,2.6091,2.5295,2.4764,2.4677,2.428,2.4033,2.4081,2.362,2.3378,2.3579,2.2911,2.2569,2.2685,2.2699,2.2738,2.2803,2.2803,2.2906,2.3089,2.3241,2.3429,2.3703,2.3774,2.4397,1.6182,1.7188,1.8063,1.8202,1.8948,1.9728,1.9956,1.9659,1.9539,2.0202,1.9522,1.8919,1.919,1.9288,1.9455,1.9803,2.051,2.1172,2.1632,2.1546,2.1521,2.1732,2.1951,0.0,0.0,0.0,0.0,2.3599,2.4381,2.5179,2.5869,2.6272,2.6726,2.7236,2.7584,2.7822,2.7888,2.8066,2.8164,2.8164,2.8379,2.8598,2.8833,2.9532,2.9951,3.0157,3.0435,3.0704,3.0963,3.1117,3.1011,3.0883,3.1893,3.205,3.189,3.3103,3.3684,3.3899,3.4448,3.4835,3.5165,3.5694,3.6028,3.6322,3.669,3.6891,3.6759,3.5649,3.5464,3.5417,3.4569,3.4005,3.3635,3.344,3.2839,3.2113,3.1443,3.1408,3.1404,3.0992,3.0955,3.0868,3.0399,2.9687,2.8984,2.8401,2.7729,2.698,2.6052,2.5811,2.5645,2.5395,2.5538,2.5664,2.5631,2.5191,2.4785,2.4484,2.3773,2.3189,2.2781,2.2889,2.2957,2.2927,2.3052,2.3193,2.3301,2.344,2.3635,2.3907,2.3976,2.4289,1.7046,1.7583,1.799,1.8788,1.9361,1.9789,2.0074,1.9743,1.9396,1.9507,1.8754,1.8015,1.7903,1.7776,1.8056,1.9147,1.9771,2.055,2.1815,2.1851,2.1863,2.2081,2.2334,2.2328,0.0,0.0,0.0,2.3619,2.4437,2.5318,2.618,2.6457,2.686,2.7423,2.759,2.7723,2.7809,2.8,2.8079,2.8,2.851,2.8749,2.8749,2.941,2.9864,3.0167,3.0244,3.0504,3.0932,3.0924,3.0822,3.0727,3.153,3.1721,3.1677,3.2732,3.3251,3.3529,3.4151,3.4497,3.4787,3.5418,3.5717,3.5915,3.6447,3.667,3.6574,3.5906,3.5738,3.571,3.5273,3.4623,3.4075,3.4192,3.3312,3.231,3.1859,3.1671,3.1481,3.1092,3.1055,3.1038,3.0834,3.0231,2.9505,2.8715,2.8359,2.7852,2.69,2.6587,2.6385,2.6167,2.63,2.6381,2.6383,2.5916,2.5517,2.5274,2.4305,2.3581,2.3293,2.3152,2.307,2.3082,2.3205,2.3313,2.3395,2.3535,2.3753,2.4006,2.4123,2.4413,1.7471,1.7726,1.8239,1.9884,1.993,1.9705,2.0186,1.9382,1.8309,1.7677,1.7003,1.6338,0.0,0.0,1.6758,1.8172,1.9292,2.0467,2.1844,2.2218,2.2272,0.0,0.0,0.0,0.0,0.0,0.0,2.35,0.0,2.5467,2.5935,2.6616,2.7079,2.7268,2.7436,2.759,2.7756,2.7967,2.7967,2.7789,2.8558,2.8939,2.8952,2.9882,3.0583,3.106,3.0401,3.0651,3.1393,3.0829,3.0836,3.1307,3.1538,3.1853,3.2219,3.2614,3.2969,3.3319,3.3873,3.4151,3.4399,3.5058,3.5291,3.5412,3.6067,3.6233,3.6079,3.5555,3.5367,3.5367,3.5647,3.5087,3.4644,3.5519,3.4488,3.3187,3.273,3.2185,3.1688,3.1288,3.1271,3.1235,3.1015,3.0975,3.06,2.953,2.9499,2.932,2.8442,2.7487,2.6913,2.6948,2.6508,2.6239,2.6313,2.5866,2.566,2.59,2.4496,2.3787,2.4076,2.3388,2.3057,2.3193,2.3205,2.3283,2.3466,2.36,2.3836,2.4125,2.4284,2.4838,1.7596,1.8109,1.8524,1.8715,1.8994,1.9172,1.8968,1.8013,1.7103,1.6837,1.5349,1.4126,0.0,0.0,0.0,1.6999,1.8714,0.0,2.1347,2.2217,0.0,2.2365,0.0,2.3275,2.3059,2.3633,0.0,0.0,2.4903,2.5483,2.646,2.6671,2.6863,2.7079,2.7268,2.7302,2.7214,2.7403,2.7469,2.7436,2.7881,2.8113,2.8113,2.8624,2.9054,2.943,2.9489,2.9876,3.0463,3.0291,3.0492,3.091,3.0896,3.1204,3.1724,3.2064,3.237,3.2699,3.3303,3.3771,3.4226,3.4691,3.5095,3.5424,3.5827,3.6088,3.5979,3.4555,3.4694,3.5226,3.4847,3.4149,3.3941,3.5609,3.4106,3.2418,3.2936,3.2301,3.1615,3.1443,3.1308,3.1095,3.0712,3.063,3.0522,3.0237,3.0016,2.9292,2.7583,2.7098,2.6733,2.6225,2.6232,2.6347,2.652,2.6539,2.6366,2.5917,2.5054,2.4379,2.3977,2.3293,2.297,2.3057,2.3253,2.3649,2.4222,2.459,2.516,2.5845,2.5456,2.5439,1.8196,1.8456,1.8644,1.8774,1.8708,1.8442,1.7739,1.6837,1.5938,1.5086,1.3934,1.305,1.3019,1.3646,1.4658,0.0,0.0,0.0,2.0989,2.1985,2.2614,0.0,2.3311,0.0,2.3776,2.4124,2.4563,0.0,2.5137,2.5469,2.6299,2.6418,2.6555,2.6726,2.685,2.693,2.699,2.7214,2.7302,2.7302,2.7656,2.7809,2.7809,2.8157,2.8481,2.8835,2.9103,2.9481,2.9974,3.008,3.028,3.0598,3.0762,3.1073,3.1437,3.1798,3.2122,3.2453,3.2796,3.3277,3.3822,3.4349,3.4723,3.5078,3.5464,3.5756,3.5783,3.4933,3.5149,3.5597,3.5444,3.4861,3.4571,3.5675,3.4229,3.2701,3.3081,3.2449,3.1783,3.1651,3.1404,3.1092,3.0716,3.0675,3.0671,3.0485,3.038,2.9617,2.7719,2.7359,2.701,2.6365,2.6226,2.6225,2.6399,2.664,2.6656,2.6394,2.5675,2.5011,2.4452,2.3727,2.325,2.3045,2.3253,2.3762,2.4597,2.4971,2.56,2.6454,2.62,2.6125,1.8894,1.8789,1.8699,1.9223,1.8614,1.7622,1.6593,1.5727,1.4689,1.3111,1.2651,1.2402,1.1864,1.2699,1.3968,1.5522,0.0,1.8982,2.0736,2.1597,2.235,2.3101,2.3506,2.3956,2.4468,2.4579,2.4847,2.5283,2.54,2.5543,2.5886,2.6062,2.6223,2.6358,2.6393,2.6577,2.6922,2.71,2.7235,2.7268,2.759,2.7756,2.7776,2.8137,2.8463,2.8771,2.899,2.9369,2.9808,2.9974,3.0127,3.0357,3.0791,3.1102,3.1322,3.1626,3.201,3.2342,3.2398,3.278,3.3372,3.4,3.4349,3.4594,3.5065,3.5337,3.5526,3.572,3.5885,3.6088,3.6419,3.608,3.5727,3.5891,3.4793,3.3652,3.3396,3.2699,3.2037,3.1856,3.1538,3.1193,3.0905,3.0938,3.0855,3.0522,3.0547,3.0033,2.8336,2.7883,2.7457,2.6727,2.626,2.6063,2.6206,2.6451,2.6708,2.6942,2.6076,2.547,2.5236,2.4265,2.358,2.3228,2.3363,2.3898,2.4818,2.5231,2.5863,2.6731,2.683,2.6878,1.897,1.9056,1.891,1.8221,1.7678,1.7034,1.5789,1.4402,0.0,1.2307,1.1408,1.0717,1.0599,1.1829,1.3339,1.4834,1.6807,1.8772,2.0568,2.1464,2.2212,0.0,2.3579,2.4074,2.4474,2.5059,0.0,0.0,2.5879,2.5998,2.591,2.5945,2.605,2.6236,2.6396,2.6521,2.6602,2.6726,2.6897,2.7045,2.7268,2.7436,2.757,2.7967,2.8327,2.8651,2.8972,0.0,2.9777,2.9713,2.9943,3.0312,3.0417,3.0732,3.1161,3.1452,3.1768,3.2094,3.2315,3.2715,3.3203,3.3658,3.4126,3.4546,3.4739,3.5095,3.5284,3.4667,3.5232,3.5925,3.5559,3.5503,3.5813,3.6851,3.5899,3.473,3.4677,3.3318,3.209,3.2055,3.1873,3.1596,3.1276,3.1004,3.0841,3.0831,3.0506,2.9769,2.8366,2.8007,2.7362,2.6026,2.5948,2.6082,2.626,2.6486,2.664,2.6742,2.5567,2.5179,2.5815,2.3946,2.3223,2.392,2.4059,2.4574,2.5459,2.6555,2.7565,2.8454,2.798,2.7822,1.9193,1.9468,1.9458,1.8316,1.7503,1.655,1.4907,0.0,0.0,1.1303,1.0678,1.0287,1.025,1.139,0.0,1.3547,1.5361,1.736,1.9406,2.049,2.1545,2.285,2.3841,2.449,2.4643,2.522,2.5641,2.5758,2.5828,2.584,2.5758,2.5758,2.5828,2.6027,2.6236,2.6396,2.6499,2.6624,2.676,2.6841,2.7134,2.7369,2.749,2.7914,2.8243,2.849,2.9237,2.9683,2.9939,3.0207,3.0458,3.0678,3.0713,3.0866,3.1132,3.1409,3.1726,3.2025,3.2219,3.2648,3.315,3.3477,3.3949,3.4423,3.4546,3.4954,3.5237,3.4804,3.5256,3.5847,3.5706,3.5873,3.6175,3.6582,3.59,3.5064,3.467,3.3807,3.2983,3.2475,3.2161,3.1912,3.1598,3.1428,3.1254,3.1092,3.0603,2.9811,2.8624,2.8009,2.7177,2.5835,2.5883,2.61,2.6331,2.6503,2.6691,2.6891,2.6227,2.5914,2.6052,2.4562,2.4015,2.4608,2.437,2.4897,2.6242,2.7078,2.7972,2.8839,2.8688,2.8672,1.9235,1.9594,1.965,1.8439,1.7419,1.6198,1.4215,1.2842,1.1681,1.0521,1.0299,1.0287,1.0212,1.1079,1.204,0.0,1.4159,1.6069,1.8375,1.9648,2.0965,0.0,2.389,0.0,2.4735,2.5255,0.0,2.5828,2.5723,2.5641,2.5641,2.5641,2.5723,2.591,2.6131,2.6339,2.643,2.6589,2.6679,2.676,2.7066,2.7434,2.7753,2.8,2.8264,2.86,2.9457,2.9836,2.9965,3.0556,3.0808,3.0859,3.1026,3.1073,3.1132,3.1395,3.1726,3.2066,3.2163,3.2648,3.3229,3.3424,3.3848,3.43,3.4448,3.4811,3.5175,3.5158,3.5464,3.5866,3.6114,3.643,3.6636,3.6462,3.599,3.5411,3.4717,3.4349,3.3861,3.2912,3.2504,3.2266,3.2002,3.1929,3.1783,3.1426,3.0917,3.0215,2.9224,2.8506,2.7653,2.6557,2.6378,2.6355,2.6452,2.6741,2.6979,2.7071,2.6869,2.6627,2.6337,2.5347,2.5011,2.5392,2.4991,2.5473,2.6854,2.7501,2.8171,2.8846,2.9123,2.9275,1.8808,1.8971,1.887,1.7831,1.7008,1.5938,1.4046,0.0,1.1681,1.0521,1.0299,1.0287,1.0212,1.0795,1.1702,1.3027,1.4294,1.5954,1.8375,1.9687,2.0899,2.2299,0.0,0.0,2.4516,2.5185,2.5606,2.5641,2.5793,2.5875,2.5875,2.5875,2.5875,2.591,2.6292,2.6396,2.6236,2.643,2.6671,2.6977,2.7024,2.7587,2.8594,2.8266,2.8557,2.9393,2.9228,2.9341,0.0,3.0043,3.0244,3.0398,3.0851,3.1058,3.1132,3.1395,3.1783,3.2191,3.2206,3.2742,3.3477,3.3503,3.3771,3.4176,3.4423,3.4618,3.4835,3.5264,3.5583,3.5893,3.6339,3.671,3.7108,3.7685,3.7178,3.6453,3.5942,3.5028,3.4067,3.3288,3.2923,3.27,3.2555,3.2369,3.2179,3.195,3.1718,3.1261,3.0432,3.0097,2.9645,2.8863,2.7987,2.7224,2.6622,2.7436,2.7691,2.7058,2.6544,2.6485,2.6981,2.586,2.56,2.6362,2.6568,2.6774,2.6983,2.8258,2.8895,2.898,2.9267,2.9412,1.8623,1.9242,1.9429,1.8276,1.7301,1.613,1.4159,0.0,1.1681,1.0521,1.0275,1.0211,1.0148,1.0392,1.0986,1.2201,1.282,0.0,1.6492,1.779,1.9079,2.0746,2.225,0.0,0.0,0.0,2.5265,2.5581,2.5676,2.5758,2.5898,2.591,2.5945,2.6097,2.6236,2.6339,2.6361,2.6521,2.6692,2.6829,2.7079,2.752,2.8165,2.812,2.8462,2.9116,2.9628,2.9927,0.0,3.0716,3.0933,3.0935,3.1102,3.1146,3.1146,3.1554,3.1855,3.2122,3.237,3.2834,3.3398,3.3581,3.3848,3.4151,3.4423,3.4763,3.5088,3.5297,3.5622,3.5958,3.6195,3.6673,3.7185,3.7703,3.7286,3.6627,3.6097,3.5236,3.4317,3.3535,3.316,3.2959,3.2848,3.2768,3.2638,3.2403,3.198,3.1542,3.1042,3.0505,3.0021,2.9742,2.9042,2.8612,2.8526,2.8403,2.831,2.8223,2.7444,2.7118,2.7444,2.6496,2.6376,2.7277,2.6985,2.7192,2.79,2.8645,2.9329,2.9972,3.0108,3.0501,1.8216,1.8869,1.9081,1.8028,1.6921,1.562,0.0,0.0,1.15,1.0508,1.0262,1.0199,1.0122,1.0148,1.0482,1.1404,0.0,1.2819,1.5076,1.6473,1.7841,1.9401,0.0,2.247,0.0,2.4304,2.5097,2.5432,2.5556,2.5615,2.5677,2.5824,2.5945,2.6097,2.6236,2.6339,2.6396,2.6589,2.6726,2.6794,2.7134,2.7594,2.814,2.8126,2.8468,2.9085,2.9688,3.0089,0.0,3.0958,3.1188,3.1159,3.1294,3.1292,3.1278,3.167,3.1968,3.2219,3.2492,3.2969,3.345,3.3658,3.3873,3.4151,3.4472,3.4851,3.5222,3.536,3.5778,3.6233,3.6367,3.6779,3.7228,3.7399,3.7141,3.6638,3.5851,3.5162,3.4466,3.3684,3.3331,3.315,3.3104,3.3104,3.3008,3.2852,3.2431,3.2087,3.1898,3.1357,3.0975,3.096,3.0666,3.0239,2.9623,2.9257,2.8952,2.8723,2.8076,2.7733,2.7786,2.7267,2.7261,2.7918,2.7549,2.7782,2.8597,2.9189,2.988,3.0639,3.0947,3.1609,1.7396,1.7475,1.7192,1.6651,1.5398,1.4092,1.3128,1.2025,1.1044,1.043,1.0299,1.0262,1.0122,1.0097,1.0302,1.0906,1.1799,0.0,1.4657,1.6342,1.7697,0.0,0.0,2.1506,2.2237,2.4128,2.5235,2.5114,2.5418,0.0,2.5136,2.5615,2.591,2.591,2.6292,2.6396,2.6213,2.6521,2.6794,2.699,2.7214,2.7904,2.8952,2.8379,2.8683,2.966,2.9265,2.9369,0.0,3.0387,3.0672,3.0866,3.1336,3.1509,3.1523,3.1712,3.215,3.2586,3.2586,3.3087,3.371,3.3694,3.3873,3.4176,3.457,3.4787,3.5018,3.5464,3.6144,3.6745,3.7011,3.7242,3.7307,3.6891,3.6913,3.6606,3.521,3.4805,3.448,3.3737,3.3437,3.331,3.331,3.331,3.331,3.3292,3.3223,3.3187,3.3172,3.3129,3.3034,3.2972,3.3139,3.2107,2.9248,2.9839,2.9701,2.812,2.8132,2.8128,2.7996,2.8183,2.8255,2.8205,2.85,2.8731,2.8797,3.0013,3.0631,3.0708,3.1647,3.2552,1.5231,1.5712,1.5798,1.4987,1.4241,1.3437,1.2511,1.1723,1.103,1.0417,1.0262,1.0211,1.0173,1.0097,1.0479,1.1814,1.2165,1.2821,0.0,0.0,0.0,1.8424,2.1119,2.305,0.0,0.0,2.5252,2.5444,2.5556,2.5603,2.5664,2.5812,2.5945,2.6097,2.6236,2.6339,2.6396,2.6589,2.6794,2.699,2.7214,2.7674,2.8379,2.8264,2.8603,2.9311,2.9502,2.973,3.0036,3.0522,3.0762,3.0821,3.1234,3.1423,3.1552,3.1826,3.2094,3.2385,3.2796,3.316,3.3477,3.3761,3.4025,3.43,3.4594,3.4875,3.5165,3.5871,3.6318,3.6606,3.6831,3.6661,3.6465,3.6505,3.5816,3.506,3.4755,3.4184,3.3686,3.3506,3.3382,3.3322,3.3408,3.3481,3.3509,3.3509,3.3534,3.353,3.3473,3.3401,3.3404,3.3469,3.3459,3.3002,3.196,3.1297,3.0708,3.0143,2.9008,2.8349,2.8344,2.8273,2.8582,2.9273,2.9396,2.988,3.0787,3.1168,3.1756,3.257,3.3406,3.3974,1.3545,1.4158,1.4392,1.3624,1.307,1.2542,1.1846,1.1252,1.0756,1.0378,1.0275,1.0237,1.0199,1.0085,1.0427,1.1725,1.1893,1.244,0.0,0.0,0.0,1.9015,0.0,0.0,0.0,2.4324,2.4988,2.5279,2.5302,2.5434,2.5781,2.5875,2.598,2.6201,2.6213,2.6136,2.6049,2.6557,2.6794,2.6778,2.7265,2.7769,2.8308,2.843,2.8785,2.932,2.9637,2.9946,0.0,3.0612,3.0881,3.1029,3.1351,3.1596,3.1809,3.2051,3.229,3.2511,3.2935,3.3256,3.3503,3.3797,3.4226,3.4643,3.4906,3.5142,3.5487,3.6131,3.6402,3.6547,3.6851,3.6677,3.6355,3.6078,3.5357,3.4593,3.4189,3.362,3.3232,3.3337,3.3277,3.3262,3.3437,3.3524,3.3577,3.3633,3.3684,3.3726,3.3671,3.3657,3.3671,3.3726,3.3712,3.3629,3.3484,3.2029,3.0838,3.0168,2.9052,2.8427,2.851,2.8694,2.9138,2.9875,3.0268,3.0913,3.179,3.2177,3.2865,3.3837,3.4419,3.4655,0.0,1.2798,1.2902,1.243,1.19,1.1412,1.1171,1.0704,0.0,1.0299,1.0299,1.03,1.0315,1.0174,1.0313,1.1083,1.1367,1.2078,0.0,1.5545,0.0,0.0,2.176,0.0,2.2708,2.3789,2.455,2.4769,2.4815,2.5046,2.5581,2.5793,2.598,2.6166,2.6164,2.5915,2.5418,2.6473,2.6843,2.6486,2.7341,2.8045,2.8587,2.8712,2.9062,0.0,2.9761,3.0007,3.0357,3.0672,3.0999,3.1322,3.1655,3.194,3.2191,3.2342,3.2578,3.2897,3.3058,3.3346,3.3694,3.3873,3.4472,3.5135,3.5333,3.56,3.5866,3.6216,3.6423,3.6588,3.7011,3.7055,3.6762,3.572,3.5376,3.4942,3.3646,3.3176,3.306,3.3232,3.3122,3.3088,3.3364,3.3466,3.3549,3.3684,3.3766,3.3788,3.382,3.3873,3.3868,3.3815,3.3921,3.3954,3.3821,3.2168,3.0481,2.8913,2.8696,2.866,2.8719,2.9476,2.9997,3.0203,3.1249,3.1892,3.2079,3.3098,3.389,3.4506,3.4687,3.4687,1.032,0.0,1.1098,1.0634,1.0449,1.039,0.0,1.0366,1.0299,1.0299,1.0299,1.0547,1.1349,1.1018,1.1195,1.2998,1.3256,1.3668,1.4955,0.0,0.0,2.1227,2.2408,2.3028,2.2957,2.3648,2.4299,2.4779,2.4815,2.5081,2.5804,2.5875,2.591,2.598,2.5825,2.5941,2.6388,2.6934,2.7237,2.7248,2.7261,2.7742,2.8605,2.8428,2.8813,2.9602,2.9913,3.0219,3.0538,3.0732,3.0999,3.1322,3.1509,3.1768,3.2066,3.2191,3.2428,3.2703,3.2989,3.3309,3.3658,3.4176,3.4707,3.5135,3.5333,3.565,3.6019,3.636,3.6544,3.6725,3.7011,3.6685,3.6249,3.6168,3.5204,3.4255,3.3967,3.3426,3.2995,3.2979,3.3042,3.3165,3.3419,3.3534,3.3615,3.3766,3.3793,3.3815,3.3868,3.386,3.3873,3.3947,3.3985,3.3701,3.2978,3.2674,3.2336,3.1888,3.1238,3.0888,3.0959,3.0993,3.1378,3.2127,3.3147,3.3704,3.3814,3.4164,3.4425,3.4591,3.4634,3.4645,0.9736,1.0226,1.0671,1.0372,1.0389,1.0481,1.0546,1.0405,1.025,1.025,1.0287,1.0547,1.1376,1.1378,1.1797,1.3413,1.4025,0.0,0.0,0.0,2.0613,2.2221,2.3071,2.3334,0.0,2.3408,2.388,2.4193,2.4417,2.4863,2.5505,2.5844,2.6027,2.6027,2.5891,2.5815,2.5832,2.6361,2.6557,2.6443,2.6972,2.7665,2.8433,2.8616,2.908,2.9713,3.0066,3.0341,3.0612,3.0821,3.1117,3.1408,3.1653,3.1881,3.2122,3.2401,3.2609,3.28,3.315,3.3555,3.3975,3.457,3.497,3.5228,3.5509,3.5778,3.6062,3.6339,3.6444,3.6606,3.697,3.6768,3.635,3.5882,3.5153,3.4366,3.3687,3.3237,3.2979,3.3075,3.3088,3.3196,3.3448,3.352,3.3591,3.3684,3.3739,3.3766,3.3788,3.3815,3.3868,3.3947,3.3947,3.3762,3.332,3.3408,3.3093,3.2126,3.1654,3.144,3.1476,3.1777,3.2428,3.3426,3.4093,3.445,3.445,3.4539,3.4572,3.455,3.4591,3.4623,0.9987,1.0548,1.1,1.0844,1.0964,1.1109,1.1111,1.0701,1.0354,0.0,0.0,0.0,0.0,1.1857,0.0,0.0,0.0,0.0,1.9558,2.0538,2.1397,2.2728,2.3452,0.0,2.2849,2.3189,2.349,2.3631,2.4042,2.4525,2.5151,2.5728,2.6042,2.6042,2.5911,2.5472,2.4759,2.5503,2.573,2.5395,2.6716,2.7614,2.8184,2.8886,2.9414,2.9808,3.016,0.0,3.0702,3.0984,3.1263,3.1581,3.1868,3.2066,3.2247,3.2691,3.2897,3.3005,3.3398,3.3873,3.4374,3.4851,3.5152,3.536,3.5639,3.5861,3.6019,3.6233,3.6322,3.6447,3.6891,3.7007,3.6732,3.5632,3.5385,3.5043,3.3721,3.3271,3.319,3.3409,3.3301,3.3238,3.3491,3.352,3.3534,3.3619,3.3657,3.3698,3.3712,3.3802,3.3895,3.3908,3.3934,3.3998,3.4111,3.4136,3.3401,3.1704,3.1638,3.1677,3.1677,3.2445,3.3278,3.4203,3.4461,3.4539,3.4495,3.458,3.4561,3.4517,3.4561,3.4612,1.0957,1.1459,1.1542,1.1013,1.124,1.1598,1.1657,1.1264,1.1009,0.0,0.0,0.0,0.0,1.3522,1.4188,0.0,0.0,1.7792,0.0,0.0,2.1213,2.184,0.0,2.3359,2.306,2.3122,2.3498,2.4285,2.4161,2.4484,2.547,2.5362,2.5256,2.5256,2.477,2.4474,2.4447,2.5625,2.6254,2.6314,2.6823,2.739,2.7975,2.8516,2.9158,2.9808,0.0,3.0568,3.1014,3.1087,3.1351,3.1784,3.194,3.2066,3.2234,3.2539,3.2827,3.3123,3.3658,3.405,3.4325,3.4521,3.4923,3.5314,3.5441,3.5644,3.5883,3.6144,3.6416,3.6684,3.6948,3.7048,3.7075,3.7053,3.6613,3.6149,3.5899,3.496,3.4168,3.4233,3.3798,3.3491,3.3629,3.3615,3.3619,3.3671,3.3684,3.3726,3.378,3.3788,3.3855,3.3972,3.4086,3.4161,3.4185,3.4293,3.4193,3.3826,3.3807,3.3819,3.3819,3.3961,3.4139,3.4363,3.4416,3.4461,3.4495,3.458,3.4583,3.4572,3.4602,3.4634,1.0478,1.1181,1.1691,1.145,1.2096,1.2769,1.2724,1.2291,1.2,0.0,0.0,0.0,0.0,0.0,1.5516,1.7836,0.0,1.9076,2.0962,2.1318,2.171,0.0,0.0,2.348,2.3378,2.3288,2.3472,2.399,2.4169,2.455,2.5232,2.5549,2.5645,2.5536,2.5058,2.4707,2.454,2.494,2.5243,2.548,2.6364,2.7053,2.7616,2.8249,2.8951,2.9699,0.0,3.0129,3.0702,3.0984,3.1278,3.1568,3.1813,3.2025,3.2247,3.2784,3.316,3.3503,3.3949,3.425,3.4448,3.4715,3.5041,3.5314,3.5412,3.5661,3.5949,3.6144,3.6,3.5925,3.6643,3.6615,3.6455,3.6643,3.6595,3.6397,3.6001,3.508,3.4382,3.4521,3.3966,3.3495,3.3615,3.3591,3.3549,3.3591,3.3591,3.3619,3.3684,3.3726,3.3793,3.3868,3.3985,3.4036,3.4036,3.4161,3.4245,3.4245,3.4281,3.4281,3.4245,3.4316,3.4328,3.4293,3.442,3.4484,3.445,3.5066,3.5346,3.5295,3.5295,3.5612,1.0272,1.1021,1.1804,1.2135,1.2945,1.3663,1.3711,1.3402,1.3132,1.3261,0.0,0.0,0.0,1.4591,0.0,1.9667,1.9623,1.9939,2.1977,2.1971,2.2082,2.2978,2.3299,2.3482,2.3511,2.3377,2.3403,2.3778,2.4243,2.4683,2.5107,2.5574,2.5786,2.5699,2.5141,2.4723,2.4438,2.4174,2.4229,2.4591,2.5764,2.6549,2.7039,2.7841,2.8619,2.9395,2.9384,2.9766,3.0417,3.0895,3.122,3.1365,3.1712,3.2053,3.2428,3.3027,3.345,3.3761,3.4101,3.4325,3.4546,3.4875,3.5111,3.5314,3.5429,3.5706,3.5975,3.6165,3.5658,3.5277,3.6226,3.6011,3.566,3.6003,3.6364,3.6502,3.6137,3.5323,3.4733,3.4981,3.4345,3.3778,3.3935,3.4057,3.4073,3.3858,3.3822,3.3777,3.3637,3.3657,3.3739,3.3802,3.3895,3.3972,3.4011,3.4136,3.4221,3.4221,3.4281,3.4293,3.4221,3.4316,3.4328,3.4221,3.4461,3.4641,3.4738,3.5579,3.5956,3.5902,3.5924,3.622,1.1361,1.1721,1.2058,1.3194,1.3483,1.3668,1.4278,1.4346,1.4413,1.4914,0.0,0.0,0.0,1.6278,1.7842,1.9392,1.9799,2.0093,2.0604,0.0,2.1772,2.1495,2.24,2.3091,2.3219,2.2977,2.3253,2.4272,2.4424,2.4813,2.5511,2.495,2.4766,2.5045,2.4063,2.3582,2.368,2.3844,2.4099,2.4523,2.5178,2.5722,2.6231,2.713,2.7993,2.879,2.9228,2.9869,3.0598,3.0955,3.1263,3.1523,3.1868,3.2333,3.287,3.3058,3.3346,3.372,3.3873,3.4176,3.4497,3.4521,3.4899,3.5314,3.5396,3.56,3.5883,3.6195,3.5766,3.5275,3.5665,3.5318,3.5081,3.5898,3.6364,3.6806,3.7558,3.6698,3.5836,3.5984,3.5352,3.4824,3.4968,3.5601,3.5801,3.4938,3.4796,3.454,3.3776,3.3698,3.3753,3.3868,3.4011,3.4161,3.434,3.4484,3.4484,3.4305,3.4351,3.4351,3.4293,3.4305,3.4305,3.4293,3.442,3.4899,3.5698,3.5902,3.5956,3.5902,3.5956,3.5558,1.0635,1.1505,1.2337,1.2494,1.359,1.482,1.5516,1.5335,1.5265,1.619,1.6073,0.0,0.0,0.0,1.8322,2.0063,2.023,2.0463,2.1366,2.1441,2.149,2.1779,2.2448,2.2941,2.3195,2.319,2.3458,2.4162,2.4289,2.457,2.5171,2.5059,2.5014,2.5011,2.4572,2.4094,2.3599,2.3789,2.3966,2.4128,2.4988,2.5593,2.5988,2.6642,2.7378,2.8101,2.8283,2.8726,2.9392,2.9891,3.0157,3.0323,3.0884,3.1261,3.1571,3.2425,3.2825,3.3067,3.3779,3.4176,3.4399,3.457,3.4923,3.5314,3.5379,3.5667,3.5997,3.6339,3.591,3.5439,3.5654,3.5563,3.5537,3.6004,3.6666,3.7202,3.7111,3.6332,3.5559,3.5224,3.4535,3.4268,3.4977,3.534,3.5436,3.5078,3.4948,3.4824,3.4605,3.4568,3.4807,3.5454,3.5153,3.4742,3.4325,3.4386,3.445,3.4381,3.4439,3.4397,3.4305,3.434,3.434,3.4293,3.5004,3.5506,3.5792,3.7055,3.7385,3.6835,3.6862,3.6682,1.0457,1.1537,1.264,1.2548,1.38,1.5336,1.6461,1.6336,1.6231,1.7227,1.7026,1.7018,1.814,0.0,0.0,0.0,2.0344,2.0579,2.1496,2.1312,2.1284,2.1792,2.2223,2.2675,2.3098,2.3187,2.3449,2.3995,2.4197,2.4443,2.4888,2.4988,2.5014,2.5005,2.4779,2.4372,2.376,2.3923,2.4011,2.4011,2.4728,2.5253,2.5644,2.5974,2.6592,2.7353,2.7454,2.7904,2.8581,2.9193,2.9562,2.9776,3.0319,3.0593,3.0783,3.188,3.2377,3.264,3.3581,3.4075,3.4349,3.4618,3.497,3.5337,3.5487,3.5778,3.6127,3.6461,3.607,3.5545,3.5435,3.5443,3.5537,3.5739,3.6328,3.6756,3.6325,3.5674,3.5067,3.4697,3.421,3.4142,3.4935,3.5307,3.5381,3.5105,3.5009,3.5009,3.5129,3.5115,3.5483,3.644,3.6125,3.5627,3.5095,3.5177,3.5247,3.5217,3.5281,3.5146,3.4757,3.5035,3.5177,3.5147,3.5938,3.6451,3.6685,3.806,3.8398,3.7799,3.7551,3.7236,1.1201,1.1991,1.2987,1.3707,0.0,0.0,1.6968,1.7308,1.7369,1.7996,1.8,1.8111,1.8783,1.8858,0.0,1.9684,2.0147,2.0447,2.0598,2.0888,2.1157,2.1289,2.1658,2.2195,2.2905,2.2868,2.3126,2.3852,2.4214,2.4479,2.4693,2.451,2.4584,2.4992,2.4413,2.4083,2.4083,2.4218,2.4292,2.4292,2.4292,2.4565,2.5005,2.5146,2.5714,2.6594,2.6947,2.7583,2.8425,2.9042,2.9642,3.0199,3.0334,3.0552,3.0853,3.1514,3.209,3.2574,3.3248,3.3832,3.4333,3.4618,3.497,3.536,3.5706,3.5971,3.6251,3.6602,3.6207,3.5539,3.4956,3.4799,3.4853,3.5031,3.5188,3.5308,3.5376,3.4914,3.453,3.4664,3.4687,3.4743,3.4962,3.5734,3.6009,3.5133,3.5069,3.5147,3.5197,3.5161,3.5515,3.6512,3.6731,3.6833,3.6895,3.7009,3.7068,3.7009,3.7075,3.6696,3.5742,3.6478,3.6925,3.6998,3.7212,3.7748,3.8596,3.8744,3.8764,3.8671,3.7868,3.6924,1.1223,1.2187,0.0,1.3626,0.0,0.0,0.0,1.7233,0.0,0.0,1.894,1.8809,1.9538,1.9656,0.0,1.9917,2.0394,2.0856,2.1198,2.0977,2.0965,2.1394,2.1793,2.2166,2.2554,2.3168,2.3742,2.4147,2.4259,2.4423,2.4612,2.4452,2.438,2.4498,2.4469,2.4287,2.3949,2.4203,2.4247,2.4157,2.435,2.4593,2.4863,2.509,2.5494,2.5994,2.6366,2.6737,2.7142,2.8067,2.8793,2.9301,2.9419,2.9396,2.9353,3.0226,3.0674,3.1092,3.2567,3.3356,3.3785,3.4574,3.5142,3.5549,3.5751,3.5578,3.5442,3.5749,3.5329,3.4817,3.4905,3.4942,3.4818,3.4305,3.4693,3.501,3.4508,3.4355,3.4195,3.3792,3.38,3.4076,3.481,3.5768,3.6145,3.528,3.5671,3.6081,3.6108,3.7156,3.7798,3.7551,3.7633,3.7499,3.6957,3.7021,3.708,3.7068,3.7577,3.7509,3.6714,3.6921,3.7068,3.7137,3.7848,3.8361,3.8671,3.9381,3.9412,3.8813,3.7869,3.6955,1.2121,1.3035,0.0,1.461,1.5716,1.6943,1.7996,0.0,0.0,0.0,1.9559,1.9541,2.0167,2.0208,0.0,2.027,2.0711,2.1068,2.1248,2.0985,2.1039,2.1733,2.1809,2.2028,2.2662,2.3269,2.3731,2.4048,2.4218,2.4392,2.4591,2.4421,2.4334,2.4421,2.4578,2.4563,2.4345,2.4434,2.4549,2.4662,2.4578,2.4721,2.5075,2.5244,2.5439,2.5633,2.6042,2.6467,2.6913,2.7749,2.8459,2.9053,2.9314,2.9164,2.8907,2.9875,3.0396,3.0774,3.1974,3.2829,3.3472,3.3965,3.4342,3.4677,3.4868,3.4738,3.4566,3.4772,3.4393,3.3992,3.4232,3.4164,3.4021,3.3948,3.4335,3.4544,3.3775,3.3727,3.3728,3.337,3.3661,3.4153,3.4757,3.5408,3.5657,3.5197,3.5901,3.6629,3.6971,3.8248,3.8915,3.8432,3.8516,3.842,3.7929,3.8015,3.8087,3.8087,3.8544,3.8601,3.816,3.8094,3.8087,3.8143,3.8798,3.9153,3.9256,3.9879,3.9719,3.8833,3.7908,3.7013,1.3392,1.4141,1.489,1.6165,1.692,0.0,1.9368,1.9799,1.9878,1.9878,0.0,2.0204,2.0645,2.0558,2.0515,2.0695,2.0997,2.1133,2.1004,2.0992,2.1312,2.2243,2.181,2.1874,2.3041,2.3173,2.3313,2.3617,2.4023,2.4341,2.454,2.4423,2.4421,2.462,2.475,2.4863,2.4948,2.4863,2.5018,2.5439,2.4905,2.4934,2.5494,2.5467,2.5494,2.555,2.5935,2.663,2.7478,2.7917,2.8569,2.9294,2.9729,2.9602,2.9281,3.0207,3.0773,3.1154,3.1446,3.2312,3.3224,3.2995,3.3043,3.3284,3.3528,3.3639,3.369,3.3713,3.3315,3.2958,3.3082,3.2792,3.2711,3.3728,3.404,3.389,3.3156,3.3137,3.3295,3.331,3.4002,3.4644,3.4772,3.4819,3.4895,3.5114,3.5911,3.6809,3.7692,3.8558,3.9115,3.9129,3.9288,3.9405,3.9418,3.9533,3.9589,3.962,3.9669,3.9693,3.9705,3.9583,3.9546,3.963,3.9804,3.9965,4.0106,4.0234,3.9824,3.8909,3.8004,3.71,1.2815,1.3748,0.0,1.5964,1.7405,1.8672,1.9134,1.9898,2.0504,2.0504,2.0515,2.0617,2.0812,2.0832,2.0828,2.0934,2.0997,2.1193,2.1608,2.1586,2.1824,2.2604,2.2471,2.247,2.2843,2.2977,2.3085,2.3138,2.3674,2.4065,2.4203,2.4423,2.4607,2.475,2.4892,2.4863,2.4706,2.4863,2.4948,2.4962,2.5033,2.5216,2.5494,2.5341,2.5467,2.5825,2.6016,2.6762,2.7869,2.7983,2.8684,2.9693,2.9906,2.9894,2.9742,2.9846,3.0152,3.0561,3.1052,3.162,3.2232,3.2856,3.3253,3.3528,3.3569,3.3223,3.2807,3.2965,3.1972,3.1085,3.2124,3.1917,3.17,3.2811,3.3136,3.3144,3.3075,3.3106,3.3188,3.3352,3.3538,3.392,3.4681,3.4924,3.5303,3.6067,3.6362,3.6809,3.7692,3.8558,3.9161,3.932,3.932,3.9391,3.954,3.9577,3.9614,3.9674,3.9638,3.965,3.9696,3.9672,3.9696,3.9758,3.9892,4.0026,4.0106,4.0234,4.0196,3.9948,3.828,3.7414,1.255,1.3728,0.0,1.7094,0.0,1.9501,1.979,2.0489,2.1014,2.0739,2.0774,2.0861,2.0888,2.0987,2.101,2.0974,2.1021,2.1164,2.1421,2.146,2.1687,2.2285,2.2034,2.2007,2.243,2.2535,2.2708,2.3056,2.3609,2.408,2.4502,2.4645,2.475,2.4892,2.5033,2.5061,2.5032,2.5173,2.5272,2.53,2.5012,2.497,2.5162,2.5356,2.5564,2.5811,2.5866,2.6624,2.7778,2.7995,2.8813,2.997,3.0368,3.0539,3.0525,3.0293,3.0614,3.116,3.0798,3.1128,3.1743,3.1883,3.2114,3.2357,3.2357,3.209,3.1805,3.1865,3.1327,3.0916,3.17,3.1777,3.186,3.2617,3.2886,3.2981,3.3075,3.3122,3.3201,3.3382,3.381,3.434,3.4892,3.5717,3.6458,3.6952,3.6967,3.7294,3.8303,3.8827,3.9129,3.9248,3.9293,3.9365,3.9489,3.9552,3.9614,3.965,3.9644,3.9668,3.9715,3.9724,3.977,3.9804,3.9943,4.0017,4.0106,3.9776,3.9423,3.8966,3.7576,3.6673,1.2039,1.3611,1.5462,1.8143,1.9331,0.0,2.0498,2.1,2.125,2.0829,2.0873,2.0985,2.0938,2.1059,2.112,2.1012,2.1084,2.1131,2.1082,2.1305,2.1611,2.1935,2.1604,2.1536,2.2088,2.2034,2.2233,2.2837,2.342,2.4013,2.4651,2.4755,2.4863,2.5005,2.5146,2.53,2.5411,2.5494,2.5619,2.5784,2.4967,2.4731,2.5043,2.5475,2.5686,2.5784,2.5784,2.6456,2.7521,2.8025,2.8941,3.012,3.0925,3.1349,3.1439,3.1031,3.1509,3.2226,3.0899,3.1082,3.1788,3.1145,3.1059,3.1183,3.1066,3.0995,3.0975,3.0955,3.1033,3.1164,3.1567,3.1898,3.2211,3.2688,3.2902,3.3013,3.308,3.3122,3.3196,3.3364,3.435,3.5175,3.5317,3.6542,3.7492,3.7536,3.7377,3.7692,3.8939,3.9101,3.9101,3.9101,3.9207,3.9307,3.9412,3.954,3.9614,3.9589,3.9668,3.9696,3.9691,3.9754,3.9781,3.9804,3.9943,3.997,3.9859,3.9376,3.8604,3.7585,3.6872,3.6037,1.04,0.0,1.5336,0.0,1.8464,1.9384,0.0,0.0,2.0854,0.0,2.0949,2.0924,2.0972,2.1021,2.1082,2.1302,2.1169,2.1106,2.1326,2.2053,2.2483,2.2258,2.2532,2.2613,2.2295,2.1794,2.1524,2.1629,2.2571,2.3205,2.3445,2.431,2.4863,2.5005,2.5313,2.5341,2.5061,2.5481,2.5536,2.53,2.4993,2.5233,2.5929,2.5609,2.5668,2.6056,2.6179,2.6631,2.7384,2.8096,2.8886,2.9798,3.124,3.1972,3.2199,3.1734,3.2288,3.3055,3.1841,3.2145,3.2937,3.2169,3.1937,3.186,3.1337,3.1052,3.0955,3.1196,3.0777,3.0515,3.172,3.1655,3.151,3.2548,3.287,3.295,3.308,3.3031,3.3026,3.3334,3.4685,3.5812,3.5888,3.6492,3.7048,3.7223,3.6883,3.722,3.8883,3.9101,3.9101,3.9101,3.9115,3.9242,3.954,3.9644,3.9649,3.9602,3.965,3.971,3.9708,3.9722,3.9727,3.9804,3.9943,3.9666,3.8985,3.9738,3.9242,3.7604,3.7481,3.6948,1.1243,1.3429,1.5483,0.0,1.8893,1.9837,2.0043,2.075,2.1295,2.1002,2.101,2.1059,2.1021,2.0997,2.1057,2.1253,2.1412,2.1481,2.1415,2.1968,2.2265,2.1846,2.1986,2.2015,2.1819,2.1621,2.1656,2.1983,2.2854,2.3521,2.3903,2.4723,2.5229,2.5285,2.5564,2.5661,2.5508,2.5866,2.5779,2.5334,2.5577,2.5684,2.5706,2.5845,2.6069,2.6338,2.6392,2.6791,2.7492,2.832,2.9043,2.9769,3.1394,3.2105,3.2238,3.2366,3.2765,3.3145,3.2541,3.2694,3.3139,3.2786,3.2753,3.2773,3.251,3.208,3.1719,3.1822,3.1339,3.0944,3.168,3.1812,3.1881,3.2535,3.2804,3.3077,3.375,3.3361,3.3351,3.4886,3.644,3.7439,3.7405,3.7686,3.7943,3.8033,3.7983,3.8215,3.9008,3.9101,3.917,3.9349,3.9197,3.929,3.9738,3.9789,3.9743,3.9602,3.9656,3.9703,3.9703,3.9698,3.9734,3.9804,3.9881,3.9577,3.8802,3.8756,3.809,3.6872,3.6331,3.5885,0.0,0.0,1.4799,1.7243,1.8765,1.9745,0.0,0.0,2.1392,0.0,2.1084,2.1131,2.1057,2.1082,2.1131,2.1229,2.1651,2.1825,2.1505,2.1986,2.215,2.1577,2.1642,2.1659,2.1533,2.1592,2.1842,2.2295,2.2986,2.3618,2.4253,2.4928,2.5356,2.5494,2.5798,2.5921,2.5839,2.6111,2.6044,2.5614,2.5954,2.5967,2.5692,2.6033,2.6354,2.6669,2.6604,2.7006,2.7739,2.864,2.9312,2.9914,3.1465,3.2089,3.2174,3.2692,3.3093,3.3371,3.3267,3.345,3.3715,3.3552,3.3592,3.3668,3.3545,3.3124,3.2683,3.2723,3.2434,3.2164,3.2429,3.2544,3.2634,3.2873,3.3093,3.3492,3.4328,3.4127,3.4295,3.5979,3.7301,3.8131,3.8031,3.8334,3.8614,3.8692,3.9642,4.002,3.9114,3.9059,3.9215,3.9445,3.9322,3.9382,3.9789,3.9867,3.98,3.9614,3.9672,3.972,3.9698,3.9698,3.9727,3.9804,3.9878,3.941,3.8438,3.8031,3.7176,3.5932,3.5467,3.5126,0.0,1.0918,0.0,1.556,1.7122,1.8383,0.0,0.0,2.0549,2.1073,2.1082,2.1033,2.118,2.1302,2.1375,2.1399,2.1776,2.1976,2.165,2.2489,2.2814,2.1897,2.228,2.2404,2.1825,2.1793,2.1807,2.1835,2.2401,2.3009,2.3616,2.4356,2.498,2.5481,2.588,2.5975,2.5702,2.5975,2.615,2.6256,2.583,2.5923,2.6426,2.602,2.6323,2.7155,2.6896,2.7328,2.8225,2.9038,2.9733,3.0397,3.1546,3.2039,3.2136,3.2434,3.3205,3.4142,3.4142,3.4729,3.5385,3.4783,3.4541,3.4346,3.3915,3.3758,3.3768,3.3945,3.4127,3.4303,3.4566,3.4129,3.3653,3.3807,3.4035,3.4283,3.4454,3.5406,3.6062,3.5568,3.6128,3.6721,3.6701,3.7553,3.8323,3.8661,4.1579,4.2523,3.9136,3.8935,3.9115,3.9129,3.9388,3.9577,3.9614,3.9796,3.98,3.9614,3.972,3.9766,3.9705,3.9703,3.9724,3.9804,3.9878,3.9096,3.7476,3.8327,3.7452,3.4993,3.5837,3.5752,0.0,0.0,0.0,1.3941,1.5833,1.7495,1.8024,1.9092,2.0125,2.0594,2.0749,2.0938,2.1379,2.135,2.1326,2.1496,2.1914,2.2129,2.177,2.2328,2.2522,2.188,2.1987,2.2042,2.1821,2.1864,2.1973,2.2067,2.2698,2.334,2.3957,2.4718,2.5394,2.5866,2.6192,2.6365,2.642,2.65,2.6568,2.6621,2.6442,2.6469,2.6698,2.6611,2.6806,2.7192,2.7284,2.7706,2.8355,2.8831,2.9337,2.9879,3.0954,3.1155,3.1014,3.2046,3.2878,3.3577,3.4041,3.488,3.57,3.5489,3.5496,3.5553,3.5398,3.5012,3.4675,3.4881,3.5022,3.518,3.5428,3.5417,3.5208,3.4764,3.5066,3.5492,3.5686,3.6727,3.7393,3.6591,3.6242,3.6103,3.6194,3.5608,3.6635,4.1099,4.3058,4.3531,4.2273,4.2198,4.2333,4.2534,4.0783,3.965,3.9785,3.9738,3.971,3.9662,3.914,3.9072,3.9607,3.9093,3.9091,3.9649,3.9789,3.9321,3.8305,3.8649,3.8061,3.6635,3.6929,3.691,0.9086,0.0,0.0,0.0,1.4501,1.5899,1.7014,1.8106,1.9164,2.0089,2.0498,2.0904,2.1554,2.152,2.1471,2.164,2.2062,2.224,2.1914,2.2476,2.2696,2.2023,2.2116,2.2172,2.194,2.2067,2.2184,2.2254,2.2753,2.342,2.4273,2.4855,2.5535,2.6312,2.6445,2.6618,2.6806,2.6806,2.6806,2.6806,2.6806,2.6806,2.6873,2.6925,2.7093,2.7346,2.7488,2.7912,2.8551,2.8785,2.9188,2.9773,3.0384,3.0455,3.041,3.186,3.2685,3.3177,3.4203,3.5077,3.5751,3.5839,3.5993,3.6144,3.6208,3.5949,3.5673,3.5798,3.6135,3.6488,3.67,3.6888,3.6876,3.6398,3.6665,3.7128,3.7596,3.7933,3.792,3.7025,3.7035,3.6715,3.5278,3.5106,3.672,4.1207,4.3,4.383,4.383,4.3942,4.3654,4.2773,4.1815,4.0842,3.9825,3.9679,3.9631,3.9662,3.9122,3.9053,3.9607,3.9098,3.9084,3.9668,3.9777,3.9635,3.9199,3.8922,3.8354,3.7566,3.7528,3.768,0.0,0.0,0.0,1.2983,1.3134,1.3631,1.7222,1.7518,1.7575,1.9521,2.0273,2.0831,2.1631,2.1779,2.1779,2.1793,2.2193,2.2372,2.2042,2.3003,2.3387,2.2353,2.2718,2.2845,2.2292,2.2338,2.2394,2.2417,2.2532,2.3135,2.4408,2.4646,2.5362,2.675,2.6618,2.6604,2.6806,2.6806,2.6806,2.6806,2.6806,2.6873,2.7003,2.6873,2.7104,2.76,2.7463,2.7938,2.8807,2.894,2.9438,3.0112,2.9993,3.0092,3.0497,3.1876,3.2617,3.3145,3.471,3.5418,3.5644,3.591,3.6014,3.6058,3.6255,3.6516,3.6771,3.6737,3.7504,3.84,3.8536,3.8615,3.8676,3.864,3.8734,3.9062,3.9964,3.8995,3.772,3.6878,3.8396,3.8457,3.4078,3.6388,3.8836,3.8836,4.1497,4.3515,4.3515,4.3798,4.276,3.9528,4.2366,4.3108,3.9731,3.9601,3.9672,3.9602,3.9701,3.9747,3.9693,3.9735,3.9773,3.9792,3.9867,3.9933,3.9986,3.9147,3.8341,3.7584,3.7584,3.8061,0.836,0.0,0.0,0.0,0.0,0.0,1.3924,1.4697,1.5751,1.7598,1.8161,1.892,2.0935,2.1213,2.1366,2.1997,2.2136,2.213,2.2128,2.2432,2.2684,2.2831,2.2615,2.2559,2.2817,2.2578,2.244,0.0,2.2652,2.308,2.387,2.4829,2.581,2.6765,2.6753,2.6806,2.6951,2.6951,2.6989,2.7078,2.7078,2.7104,2.7144,2.731,2.7448,2.761,2.7865,2.812,2.8393,2.9031,2.9705,3.0325,3.0598,3.0842,3.1158,3.1765,3.2562,3.3495,3.4155,3.4897,3.5644,3.591,3.6439,3.6852,3.6431,3.7201,3.8148,3.7742,3.8733,3.9958,4.0243,4.0246,4.0088,3.964,3.9229,3.9033,3.94,3.9569,3.959,3.9445,3.9008,3.8675,3.867,4.0617,4.2158,4.2158,4.2928,4.3515,4.3515,4.3798,4.3206,4.1126,4.2835,4.3121,4.0568,3.9896,3.9607,3.9533,3.8969,3.8944,3.9595,3.903,3.9027,3.9703,3.9789,3.9804,3.9781,3.9694,3.9551,3.9382,3.9382,3.9556,0.9608,1.0295,1.1366,1.1161,0.0,0.0,1.3287,1.3838,1.4667,1.6589,1.7209,1.8007,2.0005,2.057,2.0946,2.1707,2.1969,2.2114,2.2184,2.2433,2.2615,2.2704,2.2634,2.2615,2.2704,2.2583,2.2509,2.2592,2.2743,2.3262,2.4239,2.528,2.6188,2.6933,2.6963,2.7,2.7067,2.7093,2.7144,2.7284,2.7284,2.7335,2.7448,2.7549,2.77,2.785,2.8039,2.8177,2.8345,2.9228,2.9642,2.9782,3.0434,3.0829,3.115,3.1919,3.2772,3.359,3.4114,3.4768,3.5492,3.609,3.6638,3.7069,3.7148,3.7663,3.8243,3.838,3.9452,4.0683,4.1292,4.1404,4.128,4.098,4.0679,4.0483,4.0602,4.0971,4.1139,4.0528,3.9733,3.9277,3.9651,4.1822,4.3515,4.3515,4.3615,4.3649,4.3532,4.3798,4.3587,4.2519,4.2128,4.1425,4.0149,3.9642,3.9413,3.9502,3.9021,3.8996,3.957,3.9144,3.9154,3.9691,3.9743,3.9758,3.977,3.99,3.9986,4.0057,4.0057,4.0087,1.1493,1.1693,1.2381,1.2733,1.2094,0.0,1.3922,1.3929,1.4048,1.5915,1.6624,1.7353,1.8829,1.9635,2.0295,2.0908,2.164,2.2146,2.2194,2.2648,2.2841,2.2386,2.2728,2.2826,2.2395,2.2505,2.2638,2.2623,2.2915,2.3664,2.5057,2.5806,2.6518,2.7178,2.7207,2.7207,2.7233,2.7233,2.731,2.7437,2.7452,2.7604,2.7815,2.77,2.7875,2.821,2.8103,2.8201,2.8491,2.9346,2.938,2.9005,2.9951,3.0521,3.0958,3.2296,3.3089,3.3588,3.4429,3.4875,3.5252,3.6352,3.6705,3.6909,3.7952,3.7978,3.7914,3.8955,3.9956,4.092,4.1821,4.2082,4.2121,4.2246,4.2366,4.2506,4.257,4.267,4.2313,4.0869,4.0691,4.0347,3.8987,4.1353,4.3444,4.3479,4.3798,4.3894,4.3582,4.3781,4.383,4.3531,4.0858,3.9101,3.9115,3.9129,3.9229,3.9482,3.9502,3.9533,3.9589,3.9657,3.9698,3.9701,3.9701,3.977,3.99,3.99,3.9933,3.9986,3.9986,4.0017,1.3444,1.3681,1.396,1.3109,1.3401,0.0,1.2063,1.2412,1.3179,1.3628,1.3783,1.4555,1.6803,1.7731,1.8354,1.9024,2.0543,2.1764,2.2161,2.2306,2.2541,2.3017,2.2758,2.272,2.3198,2.2953,2.2789,2.2836,2.3572,2.4364,2.5138,2.583,2.6518,2.7178,2.7207,2.7258,2.7376,2.7488,2.7575,2.7715,2.7831,2.7905,2.7955,2.8039,2.8186,2.8372,2.8444,2.8565,2.8739,2.8983,2.928,2.9701,3.0757,3.1547,3.2187,3.2625,3.329,3.403,3.4521,3.4787,3.5134,3.6306,3.6774,3.6916,3.7251,3.8327,3.9621,4.065,4.1143,4.1477,4.1788,4.1948,4.2051,4.2121,4.2246,4.2407,4.257,4.2747,4.2772,4.2446,4.2541,4.2577,4.2286,4.2668,4.3142,4.3444,4.3798,4.3974,4.391,4.3732,4.3565,4.3515,4.0858,3.9129,3.9253,3.9307,3.9386,3.9495,3.9552,3.9589,3.9589,3.9602,3.9631,3.9689,3.9747,3.9815,3.99,3.99,3.9911,3.9922,3.9922,3.9954,1.5345,1.5177,0.0,1.4407,1.4462,0.0,0.0,1.2913,1.3221,1.4148,1.3629,1.3756,1.6244,1.6729,1.7178,1.8427,1.9803,2.0784,2.0969,2.1573,2.2258,2.2926,2.25,2.2439,2.3126,2.3053,2.3,2.3083,2.3607,2.4185,2.4813,2.5512,2.6238,2.6981,2.7309,2.7564,2.7705,2.7781,2.7865,2.7989,2.8063,2.8128,2.8217,2.8275,2.8372,2.8517,2.8573,2.8684,2.8818,2.8873,2.9077,2.95,3.0854,3.166,3.2157,3.296,3.3618,3.4151,3.4399,3.4594,3.4903,3.6159,3.6629,3.6852,3.7456,3.8705,4.0025,4.052,4.1061,4.1538,4.167,4.1797,4.1927,4.2058,4.2205,4.2328,4.243,4.2611,4.2786,4.2882,4.2994,4.3123,4.3322,4.3268,4.3268,4.348,4.3649,4.3749,4.3749,4.3599,4.3565,4.3732,4.0948,3.9133,3.9188,3.9234,3.9288,3.9341,3.9393,3.9445,3.9546,3.9558,3.9602,3.9689,3.9792,3.9878,3.99,3.99,3.99,3.99,3.9933,3.9943,0.0,0.0,0.0,0.0,1.5658,1.5328,0.0,0.0,0.0,1.495,0.0,0.0,0.0,0.0,0.0,1.7782,0.0,0.0,0.0,2.0394,0.0,2.2119,2.1939,2.2019,2.2724,2.279,2.2929,2.3326,2.3369,2.3717,2.4514,2.539,2.6182,2.682,2.7493,2.7905,2.7995,2.8029,2.8103,2.821,2.8235,2.8323,2.8444,2.8444,2.8517,2.8668,2.8668,2.8755,2.8897,2.8943,2.899,2.9147,3.0474,3.1238,3.175,3.2903,3.3673,3.4126,3.4275,3.4399,3.4709,3.5985,3.6599,3.7023,3.7927,3.8975,3.9882,4.0043,4.0711,4.1386,4.1538,4.1648,4.1801,4.2012,4.2142,4.2267,4.2287,4.243,4.2589,4.2749,4.2844,4.2995,4.3322,4.3444,4.3515,4.3515,4.3515,4.3515,4.3515,4.3515,4.3599,4.3878,4.1007,3.9101,3.9101,3.9115,3.9175,3.9242,3.9242,3.9315,3.9495,3.9514,3.9583,3.9689,3.9834,3.99,3.99,3.99,3.99,3.99,3.9954,3.9954,0.0,0.0,0.0,0.0,1.7319,1.7207,1.3952,0.0,1.4375,1.3572,0.0,0.0,0.0,0.0,0.0,0.0,0.0,0.0,1.7732,1.8379,1.9288,2.0356,2.091,2.1512,2.2283,2.1946,2.2177,2.3398,2.3107,2.3438,2.4694,2.6097,2.6894,2.6955,2.7631,2.798,2.7995,2.8128,2.8186,2.821,2.8323,2.8444,2.8573,2.8573,2.8677,2.8873,2.8873,2.9013,2.9236,2.9259,2.9305,2.9444,2.9503,3.0385,3.1622,3.1903,3.2894,3.4126,3.4399,3.4497,3.4709,3.5985,3.7023,3.7811,3.8103,3.8859,3.9795,4.056,4.0995,4.1255,4.1403,4.1515,4.167,4.1805,4.1977,4.2163,4.2267,4.2308,4.2348,4.2369,4.267,4.2901,4.2957,4.3268,4.3515,4.3515,4.3515,4.3515,4.3515,4.3515,4.3496,4.3548,4.0873,3.9101,3.9101,3.9221,3.9307,3.9373,3.9391,3.9399,3.9495,3.9619,3.9677,3.9701,3.9834,3.99,3.99,3.99,3.99,3.99,3.9911,3.9911,0.0,0.0,0.0,0.0,0.0,0.0,1.5089,0.0,1.4391,0.0,0.0,0.0,0.0,0.0,0.0,0.0,1.6663,0.0,0.0,0.0,1.8458,1.9649,0.0,0.0,2.1268,2.156,2.2074,2.3023,2.2606,2.2935,2.4245,2.5659,2.6457,2.6542,2.7651,2.8275,2.8348,2.8493,2.8541,2.8541,2.8604,2.8652,2.8708,2.8708,2.8787,2.8904,2.899,2.9366,2.9901,2.9548,2.9936,3.067,3.024,3.0788,3.1942,3.2902,3.3705,3.4374,3.4643,3.4715,3.4877,3.5765,3.6689,3.7569,3.8231,3.9043,3.9951,4.0775,4.1152,4.134,4.1493,4.1626,4.1736,4.1805,4.1938,4.2124,4.2267,4.2412,4.2512,4.249,4.2709,4.2976,4.3214,4.3392,4.341,4.3196,4.3142,4.3142,4.3142,4.3357,4.3565,4.3781,4.2609,4.1356,4.0178,3.9998,3.9728,3.9253,3.9256,3.9301,3.9328,4.0021,4.0162,3.9642,4.0314,4.0412,3.99,3.99,3.99,3.99,3.9943,3.9933,2.0892,0.0,0.0,0.0,0.0,0.0,0.0,0.0,0.0,0.0,0.0,0.0,0.0,0.0,0.0,0.0,0.0,1.656,0.0,1.683,0.0,0.0,0.0,0.0,0.0,2.0824,2.1469,2.2496,2.1732,2.1976,2.3722,2.4933,2.5831,2.6311,2.7535,2.834,2.866,2.8747,2.8794,2.8794,2.8794,2.8818,2.8826,2.8873,2.8928,2.9013,2.9144,2.9679,3.0447,2.9998,3.058,3.1686,3.1397,3.174,3.2526,3.3584,3.4186,3.4546,3.4804,3.5086,3.5435,3.5921,3.6809,3.7815,3.8591,3.9416,4.0256,4.0868,4.1169,4.1335,4.1515,4.1648,4.178,4.1849,4.1998,4.2124,4.2267,4.2452,4.2611,4.267,4.2805,4.2976,4.3286,4.3427,4.3392,4.3123,4.305,4.305,4.305,4.3322,4.3632,4.3974,4.3913,4.3045,4.0958,4.0546,4.0044,3.9184,3.9625,3.9815,3.9618,4.0653,4.0835,4.0,4.0995,4.098,3.99,4.0146,4.0127,3.99,3.9943,3.9943,0.0,0.0,0.0,1.9087,0.0,0.0,0.0,0.0,1.6585,0.0,0.0,0.0,0.0,0.0,0.0,0.0,0.0,0.0,0.0,0.0,0.0,0.0,0.0,0.0,0.0,1.9457,1.9914,0.0,2.0276,2.0395,2.3159,2.4091,2.5206,2.6636,2.7353,2.8069,2.8794,2.8794,2.8794,2.8794,2.8794,2.8834,2.8881,2.9029,2.9167,2.9305,2.9434,2.9948,3.0695,3.0679,3.12,3.2053,3.2757,3.3144,3.3336,3.3178,3.3706,3.4546,3.4804,3.5625,3.6558,3.6715,3.7831,3.9156,3.9317,3.999,4.071,4.0847,4.1006,4.1163,4.1358,4.1515,4.1692,4.2012,4.21,4.2124,4.2267,4.2308,4.243,4.2824,4.29,4.2901,4.2919,4.325,4.3497,4.3479,4.3479,4.3479,4.3479,4.3479,4.3632,4.3974,4.4005,4.3132,4.0973,4.0546,4.0058,3.9253,4.0775,4.1399,4.0675,4.1555,4.1713,4.0964,4.1888,4.1548,3.99,4.0753,4.0715,3.99,3.99,3.99,0.0,0.0,2.1898,2.0661,0.0,0.0,0.0,0.0,0.0,0.0,0.0,0.0,0.0,0.0,0.0,0.0,0.0,0.0,0.0,0.0,0.0,0.0,0.0,0.0,0.0,0.0,0.0,2.0811,2.0716,2.1471,2.339,2.5067,2.6178,2.6673,2.7865,2.8615,2.8865,2.8951,2.8998,2.8998,2.8998,2.9257,2.9754,2.9396,2.9529,3.0005,2.9749,3.0039,3.0695,3.0797,3.1577,3.2765,3.3048,3.3567,3.4136,3.4056,3.4349,3.4804,3.5065,3.5783,3.6639,3.6916,3.8069,3.9368,3.953,4.0273,4.1041,4.1088,4.1249,4.1488,4.1626,4.1692,4.1801,4.2037,4.21,4.2124,4.2267,4.2366,4.2465,4.2492,4.2728,4.2901,4.2901,4.3013,4.3178,4.3444,4.3515,4.3515,4.3515,4.3515,4.3583,4.3783,4.3881,4.3428,4.2165,4.1523,4.1095,4.0868,4.1399,4.1642,4.1445,4.2366,4.2534,4.1732,4.2698,4.2673,4.1616,4.1291,4.1037,4.0819,4.0135,3.9867,2.3473,2.3178,0.0,2.1828,2.079,0.0,1.7874,0.0,1.8776,0.0,0.0,0.0,0.0,0.0,0.0,0.0,0.0,0.0,0.0,1.5789,0.0,0.0,0.0,0.0,0.0,0.0,1.9207,2.0296,2.0128,2.0959,2.3205,2.4815,2.6025,2.682,2.8,2.8715,2.8967,2.9052,2.9098,2.9098,2.9098,2.9501,3.0188,2.9893,3.0154,3.0792,3.0328,3.0667,3.1539,3.1366,3.2158,3.3461,3.3567,3.395,3.4497,3.4546,3.4763,3.5098,3.5529,3.628,3.7141,3.7676,3.8736,3.9816,4.0012,4.0527,4.1094,4.1186,4.1323,4.1498,4.1692,4.1758,4.1774,4.1661,4.1866,4.2053,4.191,4.217,4.2425,4.2366,4.2609,4.2824,4.2882,4.2901,4.2976,4.325,4.341,4.3515,4.3515,4.3515,4.3566,4.3753,4.382,4.3518,4.2751,4.2288,4.1917,4.1706,4.2261,4.2491,4.2305,4.3193,4.3359,4.2617,4.3542,4.3521,4.2451,4.1859,4.1461,4.1236,4.0287,3.9867]}]]